[[{"header":{"parameterUnit":"m.s-1","parameterCategory":1,"la1":30.6,"la2":29.2853,"lo1":-89.7004,"lo2":-87.6739,"dy":0.0162,"dx":0.0183,"nx":112,"ny":82,"refTime":"2024-07-21T06:00:00:Z","depth":0,"parameterNumber":2,"parameterNumberName":"U-component_of_WINDS"},"data":[0.0,0.0,0.0,0.0,0.0,0.0,0.0,0.0,0.0,0.0,0.0,0.0,0.0,0.0,0.0,0.0,0.0,0.0,0.0,0.0,0.0,0.0,0.0,0.0,0.0,0.0,0.0,0.0,0.0,0.0,0.0,0.0,0.0,0.0,0.0,0.0,0.0,0.0,0.0,0.0,0.0,0.0,0.0,0.0,0.0,0.0,0.0,0.0,0.0,0.0,0.0,0.0,0.0,0.0,0.0,0.0,0.0,0.0,0.0,0.0,0.0,0.0,0.0,0.0,0.0,0.0,0.0,0.0,0.0,0.0,0.0,0.0,0.0,0.0,0.0,0.0,0.0,0.0,0.0,0.0,0.0,0.0,0.0,0.0,0.0,0.0,0.0,0.0,0.0,0.0,-2.4271,-2.4271,-2.2851,-2.172,-2.1202,-1.9782,-1.9328,-2.0362,0.0,0.0,0.0,0.0,0.0,0.0,0.0,0.0,0.0,0.0,0.0,0.0,0.0,0.0,0.0,0.0,0.0,0.0,0.0,0.0,0.0,0.0,0.0,0.0,0.0,0.0,0.0,0.0,0.0,0.0,0.0,0.0,0.0,0.0,0.0,0.0,0.0,0.0,0.0,0.0,0.0,0.0,0.0,0.0,0.0,0.0,0.0,0.0,0.0,0.0,0.0,0.0,0.0,0.0,0.0,0.0,0.0,0.0,0.0,0.0,0.0,0.0,0.0,0.0,0.0,0.0,0.0,0.0,0.0,0.0,0.0,0.0,0.0,0.0,0.0,0.0,0.0,0.0,0.0,0.0,0.0,0.0,0.0,0.0,0.0,0.0,0.0,0.0,0.0,0.0,0.0,0.0,0.0,0.0,0.0,0.0,0.0,0.0,0.0,0.0,0.0,0.0,0.0,0.0,-2.3312,-2.3312,-2.2035,-2.0972,-2.0503,-1.9515,-1.8974,-1.915,0.0,0.0,0.0,0.0,0.0,0.0,0.0,0.0,0.0,0.0,0.0,0.0,0.0,0.0,0.0,0.0,0.0,0.0,0.0,0.0,0.0,0.0,0.0,0.0,0.0,0.0,0.0,0.0,0.0,0.0,0.0,0.0,0.0,0.0,0.0,0.0,0.0,0.0,0.0,0.0,0.0,0.0,0.0,0.0,0.0,0.0,0.0,0.0,0.0,0.0,0.0,0.0,0.0,0.0,0.0,0.0,0.0,0.0,0.0,0.0,0.0,0.0,0.0,0.0,0.0,0.0,0.0,0.0,0.0,0.0,0.0,0.0,0.0,0.0,0.0,0.0,0.0,0.0,0.0,0.0,0.0,0.0,0.0,0.0,0.0,0.0,0.0,0.0,0.0,0.0,0.0,0.0,0.0,0.0,0.0,0.0,0.0,0.0,0.0,0.0,0.0,0.0,0.0,-2.3391,-2.2782,-2.2595,-2.1399,-2.0465,-2.0,-1.9066,-1.8574,-1.8893,-1.8341,0.0,0.0,0.0,0.0,0.0,0.0,0.0,0.0,0.0,0.0,0.0,0.0,0.0,0.0,0.0,0.0,0.0,0.0,0.0,0.0,0.0,0.0,0.0,0.0,0.0,0.0,0.0,0.0,0.0,0.0,0.0,0.0,0.0,0.0,0.0,0.0,0.0,0.0,0.0,0.0,0.0,0.0,0.0,0.0,0.0,0.0,0.0,0.0,0.0,0.0,0.0,0.0,0.0,0.0,0.0,0.0,0.0,0.0,0.0,0.0,0.0,0.0,0.0,0.0,0.0,0.0,0.0,0.0,0.0,0.0,0.0,0.0,0.0,0.0,0.0,0.0,0.0,0.0,0.0,0.0,0.0,0.0,0.0,0.0,0.0,0.0,0.0,0.0,0.0,0.0,0.0,0.0,0.0,0.0,0.0,0.0,0.0,0.0,0.0,0.0,0.0,0.0,-2.3321,-2.2573,-2.2013,-2.0957,-2.0158,-1.9711,-1.8727,-1.8263,-1.8688,-1.7706,0.0,0.0,0.0,0.0,0.0,0.0,0.0,0.0,0.0,0.0,0.0,0.0,0.0,0.0,0.0,0.0,0.0,0.0,0.0,0.0,0.0,0.0,0.0,0.0,0.0,0.0,0.0,0.0,0.0,0.0,0.0,0.0,0.0,0.0,0.0,0.0,0.0,0.0,0.0,0.0,0.0,0.0,0.0,0.0,0.0,0.0,0.0,0.0,0.0,0.0,0.0,0.0,0.0,0.0,0.0,0.0,0.0,0.0,0.0,0.0,0.0,0.0,0.0,0.0,0.0,0.0,0.0,0.0,0.0,0.0,0.0,0.0,0.0,0.0,0.0,0.0,0.0,0.0,0.0,0.0,0.0,0.0,0.0,0.0,0.0,0.0,0.0,0.0,0.0,0.0,0.0,0.0,0.0,0.0,0.0,0.0,0.0,0.0,0.0,0.0,0.0,0.0,-2.2979,-2.2678,-2.1639,-2.0817,-2.0158,-1.9711,-1.8727,-1.8145,-1.8145,-1.7146,0.0,0.0,0.0,0.0,0.0,0.0,0.0,0.0,0.0,0.0,0.0,0.0,0.0,0.0,0.0,0.0,0.0,0.0,0.0,0.0,0.0,0.0,0.0,0.0,0.0,0.0,0.0,0.0,0.0,0.0,0.0,0.0,0.0,0.0,0.0,0.0,0.0,0.0,0.0,0.0,0.0,0.0,0.0,0.0,0.0,0.0,0.0,0.0,0.0,0.0,0.0,0.0,0.0,0.0,0.0,0.0,0.0,0.0,0.0,0.0,0.0,0.0,0.0,0.0,0.0,0.0,0.0,0.0,0.0,0.0,0.0,0.0,0.0,0.0,0.0,0.0,0.0,0.0,0.0,0.0,0.0,0.0,0.0,0.0,0.0,0.0,0.0,0.0,0.0,0.0,0.0,0.0,0.0,0.0,0.0,0.0,0.0,0.0,0.0,0.0,0.0,0.0,-2.1983,-2.1674,-2.0829,-2.0257,-1.9874,-1.9711,-1.8727,-1.8106,-1.8106,0.0,0.0,0.0,0.0,0.0,0.0,0.0,0.0,0.0,0.0,0.0,0.0,0.0,0.0,0.0,0.0,0.0,0.0,0.0,0.0,0.0,0.0,0.0,0.0,0.0,0.0,0.0,0.0,0.0,0.0,0.0,0.0,0.0,0.0,0.0,0.0,0.0,0.0,0.0,0.0,0.0,0.0,0.0,0.0,0.0,0.0,0.0,0.0,0.0,0.0,0.0,0.0,0.0,0.0,0.0,0.0,0.0,0.0,0.0,0.0,0.0,0.0,0.0,0.0,0.0,0.0,0.0,0.0,0.0,0.0,0.0,0.0,0.0,0.0,0.0,0.0,0.0,0.0,0.0,0.0,0.0,0.0,0.0,0.0,0.0,0.0,0.0,0.0,0.0,0.0,0.0,0.0,0.0,0.0,0.0,0.0,0.0,0.0,0.0,0.0,0.0,0.0,-2.1278,-2.1349,-2.1084,-2.0216,-1.9874,-1.9639,-1.9442,-1.8612,-1.8027,-1.7867,0.0,0.0,0.0,0.0,0.0,0.0,0.0,0.0,0.0,0.0,0.0,0.0,0.0,0.0,0.0,0.0,0.0,0.0,0.0,0.0,0.0,0.0,0.0,0.0,0.0,0.0,0.0,0.0,0.0,0.0,0.0,0.0,0.0,0.0,0.0,0.0,0.0,0.0,0.0,0.0,0.0,0.0,0.0,0.0,0.0,0.0,0.0,0.0,0.0,0.0,0.0,0.0,0.0,0.0,0.0,0.0,0.0,0.0,0.0,0.0,0.0,0.0,0.0,0.0,0.0,0.0,0.0,0.0,0.0,0.0,0.0,0.0,0.0,0.0,0.0,0.0,0.0,0.0,0.0,0.0,0.0,0.0,0.0,0.0,0.0,0.0,0.0,0.0,0.0,0.0,0.0,0.0,0.0,0.0,0.0,0.0,0.0,0.0,0.0,0.0,0.0,0.0,-2.045,-2.1129,-2.1171,-1.9824,-1.969,-1.9479,-1.8968,-1.8419,-1.7867,0.0,0.0,0.0,0.0,0.0,0.0,0.0,0.0,0.0,0.0,0.0,0.0,0.0,0.0,0.0,0.0,0.0,0.0,0.0,0.0,0.0,0.0,0.0,0.0,0.0,0.0,0.0,0.0,0.0,0.0,0.0,0.0,0.0,0.0,0.0,0.0,0.0,0.0,0.0,0.0,0.0,0.0,0.0,0.0,0.0,0.0,0.0,0.0,0.0,0.0,0.0,0.0,0.0,0.0,0.0,0.0,0.0,0.0,0.0,0.0,0.0,0.0,0.0,0.0,0.0,0.0,0.0,0.0,0.0,0.0,0.0,0.0,0.0,0.0,0.0,0.0,0.0,0.0,0.0,0.0,0.0,0.0,0.0,0.0,0.0,0.0,0.0,0.0,0.0,0.0,0.0,0.0,0.0,0.0,0.0,0.0,0.0,0.0,0.0,0.0,0.0,0.0,0.0,-2.0423,-2.0719,-2.0662,-1.9779,-1.969,-1.9479,-1.8968,-1.8419,-1.7867,-1.7353,0.0,0.0,0.0,0.0,0.0,0.0,0.0,0.0,0.0,0.0,0.0,0.0,0.0,0.0,0.0,0.0,0.0,0.0,0.0,0.0,0.0,0.0,0.0,0.0,0.0,0.0,0.0,0.0,0.0,0.0,0.0,0.0,0.0,0.0,0.0,0.0,0.0,0.0,0.0,0.0,0.0,0.0,0.0,0.0,0.0,0.0,0.0,0.0,0.0,0.0,0.0,0.0,0.0,0.0,0.0,0.0,0.0,0.0,0.0,0.0,0.0,0.0,0.0,0.0,0.0,0.0,0.0,0.0,0.0,0.0,0.0,0.0,0.0,0.0,0.0,0.0,0.0,0.0,0.0,0.0,0.0,0.0,0.0,0.0,0.0,0.0,0.0,0.0,0.0,0.0,0.0,0.0,0.0,0.0,0.0,0.0,0.0,0.0,0.0,0.0,0.0,0.0,-2.0146,-2.0442,-2.0363,-1.9479,-1.9369,-1.908,-1.8341,-1.7987,-1.7544,-1.6993,0.0,0.0,0.0,0.0,0.0,0.0,0.0,0.0,0.0,0.0,0.0,0.0,0.0,0.0,0.0,0.0,0.0,0.0,0.0,0.0,0.0,0.0,0.0,0.0,0.0,0.0,0.0,0.0,0.0,0.0,0.0,0.0,0.0,0.0,0.0,0.0,0.0,0.0,0.0,0.0,0.0,0.0,0.0,0.0,0.0,0.0,0.0,0.0,0.0,0.0,0.0,0.0,0.0,0.0,0.0,0.0,0.0,0.0,0.0,0.0,0.0,0.0,0.0,0.0,0.0,0.0,0.0,0.0,0.0,0.0,0.0,0.0,0.0,0.0,0.0,0.0,0.0,0.0,0.0,0.0,0.0,0.0,0.0,0.0,0.0,0.0,0.0,0.0,0.0,0.0,0.0,0.0,0.0,0.0,0.0,0.0,0.0,0.0,0.0,0.0,0.0,0.0,-1.9765,-2.0228,-2.0175,-1.9026,-1.8893,-1.8458,-1.7394,-1.7312,-1.7076,-1.6522,0.0,0.0,0.0,0.0,0.0,0.0,0.0,0.0,0.0,0.0,0.0,0.0,0.0,0.0,0.0,0.0,0.0,0.0,0.0,0.0,0.0,0.0,0.0,0.0,0.0,0.0,0.0,0.0,0.0,0.0,0.0,0.0,0.0,0.0,0.0,0.0,0.0,0.0,0.0,0.0,0.0,0.0,0.0,0.0,0.0,0.0,0.0,0.0,0.0,0.0,0.0,0.0,0.0,0.0,0.0,0.0,0.0,0.0,0.0,0.0,-1.9257,-1.9153,0.0,0.0,0.0,0.0,0.0,0.0,0.0,0.0,0.0,0.0,0.0,0.0,0.0,0.0,0.0,0.0,0.0,0.0,0.0,0.0,0.0,0.0,0.0,0.0,0.0,0.0,0.0,0.0,0.0,0.0,0.0,0.0,0.0,0.0,0.0,0.0,0.0,0.0,0.0,0.0,-1.9705,-1.9809,-1.9642,-1.8983,-1.8893,-1.8458,-1.7394,-1.7312,-1.7076,-1.6522,-1.6522,0.0,0.0,0.0,0.0,0.0,0.0,0.0,0.0,0.0,0.0,0.0,0.0,0.0,0.0,0.0,0.0,0.0,0.0,0.0,0.0,0.0,0.0,0.0,0.0,0.0,0.0,0.0,0.0,0.0,0.0,0.0,0.0,0.0,0.0,0.0,0.0,0.0,0.0,0.0,0.0,0.0,0.0,0.0,0.0,0.0,0.0,0.0,0.0,0.0,0.0,0.0,0.0,0.0,0.0,0.0,0.0,0.0,0.0,0.0,-1.9484,-1.9555,0.0,0.0,0.0,0.0,0.0,0.0,0.0,0.0,0.0,0.0,0.0,0.0,0.0,0.0,0.0,0.0,0.0,0.0,0.0,0.0,0.0,0.0,0.0,0.0,0.0,0.0,0.0,0.0,0.0,0.0,0.0,0.0,0.0,0.0,0.0,0.0,0.0,0.0,0.0,0.0,-1.969,-1.969,-1.9406,-1.8612,-1.8535,-1.8066,-1.6993,-1.6909,-1.6795,-1.6522,-1.6522,0.0,0.0,0.0,0.0,0.0,0.0,0.0,0.0,0.0,0.0,0.0,0.0,0.0,0.0,0.0,0.0,0.0,0.0,0.0,0.0,0.0,0.0,0.0,0.0,0.0,0.0,0.0,0.0,0.0,0.0,0.0,0.0,0.0,0.0,0.0,0.0,0.0,0.0,0.0,0.0,0.0,0.0,0.0,0.0,0.0,0.0,0.0,0.0,0.0,0.0,0.0,0.0,0.0,-2.0407,-2.0011,-1.907,-1.8767,-1.8877,-1.9242,-1.9,-1.9535,-2.0589,-2.0348,0.0,0.0,0.0,0.0,0.0,0.0,0.0,0.0,0.0,0.0,0.0,0.0,0.0,0.0,0.0,0.0,0.0,0.0,0.0,0.0,0.0,0.0,-2.2572,-2.2158,-2.2921,-2.364,-2.3131,0.0,0.0,0.0,0.0,0.0,0.0,0.0,0.0,0.0,0.0,0.0,-1.9869,-1.9765,-1.9281,-1.8224,-1.8106,-1.7666,-1.6595,-1.6522,-1.6522,-1.6522,-1.6522,-1.6522,0.0,0.0,0.0,0.0,0.0,0.0,0.0,0.0,0.0,0.0,0.0,0.0,0.0,0.0,0.0,0.0,0.0,0.0,0.0,0.0,0.0,0.0,0.0,0.0,0.0,0.0,0.0,0.0,0.0,0.0,0.0,0.0,-1.8863,-1.7638,0.0,0.0,0.0,0.0,0.0,0.0,0.0,0.0,0.0,0.0,0.0,0.0,0.0,-2.0971,-2.0399,-2.0854,-2.0663,-1.9884,-1.9928,-1.9928,-1.9705,-1.8917,-1.8555,-1.8612,-1.86,0.0,-2.0737,-2.1706,0.0,0.0,0.0,0.0,0.0,0.0,0.0,0.0,0.0,0.0,0.0,0.0,0.0,0.0,0.0,0.0,0.0,0.0,0.0,0.0,0.0,0.0,-2.2833,-2.3241,-2.3939,-2.4477,-2.4388,-2.3969,-2.358,-2.349,-2.3475,-2.3251,0.0,0.0,0.0,0.0,0.0,0.0,-2.0572,-2.0049,-1.9281,-1.8224,-1.8106,-1.7666,-1.6595,-1.6522,-1.6522,-1.6522,-1.6522,-1.6522,-1.6522,-1.6522,0.0,0.0,0.0,0.0,0.0,0.0,0.0,0.0,0.0,0.0,0.0,0.0,0.0,0.0,0.0,0.0,0.0,0.0,0.0,0.0,0.0,0.0,0.0,0.0,0.0,0.0,0.0,0.0,0.0,-1.9421,-1.9864,-1.8969,-1.9227,-1.9349,0.0,0.0,0.0,0.0,0.0,0.0,0.0,0.0,0.0,-2.0852,-2.0676,-2.0521,-2.0435,-2.0653,-2.0245,-1.9102,-1.9665,-1.9273,-1.8082,-1.7943,-1.7865,-1.7759,-1.7865,-1.8498,-1.9571,-2.0748,-2.1209,-2.1155,0.0,0.0,0.0,0.0,-2.193,-2.1659,-2.2258,-2.2194,-2.1794,-2.1271,0.0,0.0,0.0,0.0,0.0,0.0,0.0,-2.1285,-2.1622,-2.2193,-2.2754,-2.3009,-2.3851,-2.4582,-2.4582,-2.4687,-2.4732,-2.4732,-2.5031,-2.4837,-2.343,-2.3191,0.0,0.0,0.0,-2.0255,-2.0255,-1.9387,-1.8496,-1.7747,-1.7666,-1.7353,-1.6552,-1.6522,-1.6522,-1.6522,-1.6522,-1.6522,-1.6522,-1.6522,-1.6522,0.0,0.0,0.0,0.0,0.0,0.0,0.0,0.0,0.0,0.0,0.0,0.0,0.0,0.0,0.0,0.0,0.0,0.0,0.0,0.0,0.0,0.0,0.0,0.0,0.0,0.0,0.0,0.0,-2.0045,-2.057,-1.9821,-2.0016,-2.0024,0.0,0.0,0.0,0.0,0.0,0.0,-2.0766,-2.0342,-2.0297,-2.0883,-2.0353,-2.0095,-2.0268,-2.0147,-1.9458,-1.8297,-1.873,-1.8071,-1.6543,-1.6787,-1.6819,-1.677,-1.6808,-1.7333,-1.8124,-1.9608,-2.0601,-2.1288,-2.1786,-2.2029,-2.2213,-2.2724,-2.2631,-2.2211,-2.2695,-2.2526,-2.2058,-2.1782,-2.186,-2.1949,-2.1251,0.0,0.0,0.0,0.0,-2.0893,-2.1363,-2.1819,-2.2314,-2.2603,-2.3434,-2.4178,-2.4313,-2.4881,-2.5405,-2.557,-2.6004,-2.5809,-2.4148,-2.3864,0.0,-2.2353,-2.1017,-2.0157,-2.0157,-1.8951,-1.7907,-1.7353,-1.7312,-1.7076,-1.6552,-1.6522,-1.6522,-1.6522,-1.6522,-1.6522,-1.6522,-1.6522,-1.6522,-1.6522,0.0,0.0,0.0,0.0,0.0,0.0,0.0,0.0,0.0,0.0,0.0,0.0,0.0,0.0,0.0,0.0,0.0,0.0,0.0,0.0,0.0,0.0,0.0,0.0,0.0,0.0,0.0,0.0,0.0,-1.9231,-2.0439,0.0,0.0,0.0,0.0,-2.1355,-2.0613,-2.0439,-2.0962,-2.0202,-2.0019,-2.0598,-2.0546,-2.0182,-1.9365,-1.8922,-1.8253,-1.7439,-1.6648,-1.6235,-1.6145,-1.5704,-1.5498,-1.5498,-1.5498,-1.5894,-1.6782,-1.879,-1.9981,-2.049,-2.0672,-2.1083,-2.1536,-2.1592,-2.1592,-2.1549,-2.1574,-2.1587,-2.1606,-2.2108,-2.1907,-2.1635,-2.2135,-2.1602,0.0,0.0,-2.0805,-2.0818,-2.0832,-2.0845,-2.1175,-2.242,-2.2768,-2.2933,-2.3509,-2.4193,-2.4821,-2.5495,-2.563,-2.5435,-2.4657,0.0,-2.4328,-2.361,-2.1997,-2.0862,-2.0862,-1.9218,-1.7907,-1.7353,-1.7312,-1.7076,-1.6552,-1.6522,-1.6522,-1.6522,-1.6522,-1.6522,-1.6522,-1.6522,-1.6522,-1.6522,-1.6522,0.0,0.0,0.0,0.0,0.0,0.0,0.0,0.0,0.0,0.0,0.0,0.0,0.0,0.0,0.0,0.0,0.0,0.0,0.0,0.0,0.0,0.0,0.0,0.0,0.0,0.0,0.0,0.0,-2.1238,-2.1708,0.0,-2.1255,-2.0895,-2.0798,-2.1136,-2.0356,-2.0152,-2.074,-1.994,-1.9576,-1.9748,-1.9243,-1.8645,-1.8051,-1.7891,-1.7402,-1.6596,-1.6272,-1.5918,-1.5635,-1.5488,-1.541,-1.541,-1.541,-1.5526,-1.5931,-1.7601,-1.8923,-1.9989,-2.0841,-2.1317,-2.1493,-2.1493,-2.1493,-2.1493,-2.1493,-2.1493,-2.1518,-2.1719,-2.1644,-2.1473,-2.138,-2.1038,-2.0629,-2.0259,-2.0156,-2.0156,-2.0156,-2.0497,-2.0851,-2.0941,-2.1264,-2.1583,-2.1808,-2.2395,-2.304,-2.3639,-2.4724,-2.5405,-2.4701,-2.4582,-2.4343,-2.3699,-2.1786,-2.0387,-2.0387,-1.8463,-1.6993,-1.6795,-1.6795,-1.671,-1.6522,-1.6522,-1.6522,-1.6522,-1.6522,-1.6522,-1.6522,-1.6522,-1.6522,-1.6522,-1.6522,-1.6522,0.0,0.0,0.0,0.0,0.0,0.0,0.0,0.0,0.0,0.0,0.0,0.0,0.0,0.0,0.0,0.0,0.0,0.0,0.0,0.0,0.0,0.0,0.0,0.0,0.0,-2.1555,-2.2113,-2.2092,-2.2002,-2.1737,-2.1181,-2.0509,-2.0274,-2.0612,-1.9829,-1.955,-2.0117,-1.9228,-1.8629,-1.8629,-1.8118,-1.7588,-1.7168,-1.7012,-1.6641,-1.6125,-1.5918,-1.5693,-1.541,-1.541,-1.541,-1.541,-1.541,-1.541,-1.5517,-1.6968,-1.81,-1.9089,-2.0649,-2.133,-2.1468,-2.128,-2.1204,-2.1179,-2.0991,-2.1041,-2.1204,-2.1204,-2.1204,-2.1142,-2.0832,-2.058,-2.0288,-1.9911,-1.9798,-1.9798,-1.9798,-2.0016,-2.0182,-2.003,-2.014,-2.0402,-2.0817,-2.1255,-2.1715,-2.2262,-2.3746,-2.4792,-2.4358,-2.4283,-2.403,-2.3393,-2.147,-2.0029,-1.9798,-1.7835,-1.6522,-1.6522,-1.6522,-1.6522,-1.6522,-1.6522,-1.6522,-1.6522,-1.6522,-1.6522,-1.6522,-1.6522,-1.6595,-1.6752,-1.6951,-1.7034,-1.7034,0.0,0.0,0.0,0.0,0.0,0.0,0.0,0.0,0.0,0.0,0.0,0.0,0.0,0.0,0.0,0.0,0.0,0.0,0.0,0.0,0.0,0.0,0.0,-2.0612,-2.2139,-2.2834,-2.168,-2.1323,-2.1009,-2.0483,-2.0033,-1.9817,-1.9817,-1.9018,-1.872,-1.917,-1.8031,-1.7363,-1.7363,-1.7363,-1.7148,-1.6719,-1.6279,-1.6115,-1.6096,-1.5615,-1.541,-1.541,-1.541,-1.541,-1.541,-1.54,-1.5391,-1.5497,-1.698,-1.7588,-1.7797,-1.9829,-2.0941,-2.1343,-2.079,-2.0655,-2.0539,-1.9987,-2.0162,-2.0639,-2.0639,-2.0639,-2.0639,-2.0639,-2.025,-1.9798,-1.9798,-1.9798,-1.9798,-1.9786,-1.9409,-1.9155,-1.9756,-1.9483,-1.936,-2.0528,-2.0793,-2.0981,-2.1513,-2.2629,-2.3522,-2.3551,-2.3551,-2.3377,-2.274,-2.1177,0.0,-1.9163,-1.7573,-1.6522,-1.6522,-1.6522,-1.6522,-1.6522,-1.6522,-1.6522,-1.6522,-1.6522,-1.6522,-1.6522,-1.6522,-1.6795,-1.7312,-1.7827,-1.8106,-1.8145,0.0,0.0,0.0,0.0,0.0,0.0,0.0,0.0,0.0,0.0,0.0,0.0,0.0,0.0,0.0,0.0,0.0,0.0,0.0,0.0,0.0,-1.9965,-2.083,-2.1183,-2.2051,-2.2419,-2.2108,-2.1543,-2.1009,-2.0483,-1.9235,-1.8534,-1.8534,-1.7687,-1.7262,-1.7382,-1.7091,-1.6914,-1.6914,-1.6914,-1.6699,-1.625,-1.6184,-1.5908,-1.5586,-1.5469,-1.541,-1.541,-1.541,-1.541,-1.5391,-1.5088,-1.5233,-1.5694,-1.6306,-1.6826,-1.7381,-1.8881,-1.9572,-1.9635,-1.9083,-1.9133,-1.9395,-1.9129,-1.9088,-1.9155,-1.8616,-1.8821,-1.9262,-1.9262,-1.9494,-1.9798,-1.9798,-1.9798,-1.971,-1.9334,-1.9133,-1.8868,-1.8249,-1.8009,-1.7984,-1.8283,-1.8695,-1.9189,-1.97,-2.0796,-2.1775,-2.2154,-2.262,-2.2725,-2.2053,-2.0507,-1.9297,-1.9118,-1.7573,-1.6522,-1.6522,-1.6522,-1.6522,-1.6522,-1.6522,-1.6522,-1.6522,-1.6522,-1.6522,-1.6522,-1.6879,-1.7353,-1.7867,-1.8027,-1.8302,0.0,0.0,0.0,0.0,0.0,0.0,0.0,0.0,0.0,0.0,0.0,0.0,0.0,0.0,0.0,0.0,0.0,0.0,0.0,0.0,0.0,0.0,-2.0087,-2.0907,-2.1405,-2.1769,-2.1843,-2.1543,-2.0628,-1.9843,-1.9182,-1.798,-1.7216,-1.7216,-1.6745,-1.6533,-1.6719,-1.6553,-1.6455,-1.6455,-1.6455,-1.624,-1.5791,-1.5791,-1.5664,-1.541,-1.5234,-1.5146,-1.5146,-1.4961,-1.4883,-1.4863,-1.4619,-1.473,-1.507,-1.5891,-1.6428,-1.6849,0.0,0.0,0.0,0.0,-1.7641,-1.7905,-1.7772,-1.7763,-1.7659,-1.724,-1.7482,-1.7972,-1.7972,-1.8601,-1.9319,-1.9319,-1.9379,-1.9409,-1.9058,-1.8681,-1.8179,-1.7539,-1.72,-1.71,-1.7306,-1.7613,-1.807,-1.861,-1.9686,0.0,-2.0548,-2.1511,-2.2053,-2.1438,-2.0047,-1.8995,-1.8747,-1.7409,-1.6522,-1.6522,-1.6522,-1.6522,-1.6522,-1.6522,0.0,0.0,0.0,-1.6951,-1.7146,-1.7706,0.0,0.0,0.0,0.0,0.0,0.0,0.0,0.0,-2.1276,-2.1784,0.0,0.0,0.0,0.0,0.0,0.0,0.0,0.0,0.0,0.0,0.0,0.0,0.0,0.0,0.0,0.0,-2.017,-2.0719,-2.1206,-2.1113,-2.0841,-2.0385,-1.9172,-1.8074,-1.7371,-1.6507,-1.5986,-1.5986,-1.5986,-1.6162,-1.6562,-1.6201,0.0,0.0,0.0,-1.5801,-1.542,-1.5371,-1.5342,-1.5342,-1.4912,-1.4717,-1.4697,-1.4307,-1.4077,-1.4077,-1.4029,-1.4062,-1.4212,-1.5426,-1.5959,-1.6169,-1.7472,-1.7615,-1.7051,-1.6486,-1.6321,-1.6282,-1.6277,0.0,0.0,-1.6149,-1.6428,-1.6785,-1.6841,-1.7686,-1.8631,-1.8631,-1.88,-1.8945,-1.8869,-1.8116,-1.7363,-1.73,-1.6886,-1.6637,-1.7118,-1.7188,-1.7345,-1.7882,-1.8859,-1.9467,-1.889,-2.0356,-2.1363,-2.0716,-1.9659,-1.8754,-1.821,-1.7174,-1.6522,-1.6522,-1.6522,0.0,-1.6522,-1.6522,-1.671,-1.7188,-1.7271,-1.7585,-1.8185,-1.865,-1.8688,-1.8302,-1.9207,-1.9479,-1.9006,-1.9479,-2.0034,-2.0722,-2.0722,-2.1425,0.0,0.0,0.0,0.0,0.0,0.0,0.0,0.0,0.0,0.0,0.0,0.0,0.0,0.0,0.0,-1.8967,-1.9396,-1.9848,-1.9944,-1.8779,-1.8352,-1.9583,-1.8497,-1.7365,-1.6764,-1.5994,-1.5537,-1.5537,-1.5537,-1.5576,-1.5664,-1.5586,-1.5537,-1.5537,-1.5537,-1.5498,-1.541,-1.5078,-1.4902,-1.4902,-1.4473,0.0,-1.4204,-1.4116,-1.4077,-1.4058,-1.3779,-1.3911,-1.4355,-1.4285,-1.4566,-1.5116,-1.6267,-1.6404,-1.5899,-1.5724,-1.568,-1.5639,-1.5466,-1.5442,-1.535,-1.4746,-1.4997,-1.5593,-1.5978,-1.7119,0.0,-1.8096,-1.8507,-1.8819,-1.7928,-1.7539,-1.7262,-1.6798,-1.6597,-1.6522,-1.6637,-1.6637,-1.6705,-1.682,-1.739,-1.7868,-1.7723,-1.9521,-2.0588,-1.9532,-1.8798,-1.8168,-1.7647,-1.6936,-1.6522,-1.6522,-1.6522,-1.6522,-1.6522,-1.6522,-1.6552,-1.6637,-1.7076,-1.7747,-1.8688,-1.8855,-1.9043,-1.9369,-1.9603,-1.9639,-1.9566,-1.9639,-2.0034,-2.0722,-2.0722,-2.1425,0.0,0.0,0.0,0.0,0.0,0.0,0.0,0.0,0.0,0.0,0.0,-1.7511,-1.7499,0.0,-1.8715,-1.8715,-1.8459,-1.8309,-1.8309,-1.7059,-1.6488,-1.7598,-1.6862,-1.6126,-1.5711,-1.5117,-1.4951,-1.5381,-1.5215,-1.5186,-1.54,-1.541,-1.541,-1.541,-1.541,-1.541,-1.541,-1.5,-1.4785,-1.4775,-1.4131,-1.3818,-1.3818,-1.3603,-1.3506,-1.3496,-1.3281,-1.3382,-1.3677,-1.3778,-1.4143,-1.4731,-1.5002,-1.4946,-1.4663,-1.4328,-1.4184,-1.4167,-1.4101,-1.4033,-1.3983,-1.3598,-1.389,-1.4399,-1.4633,-1.5832,-1.7159,-1.7046,-1.7592,-1.8078,-1.7526,-1.7162,-1.6873,-1.6584,-1.6522,-1.6522,-1.6522,-1.6522,-1.6522,-1.6522,-1.6986,-1.7388,-1.7388,-1.8563,-1.9297,-1.8704,-1.8141,-1.7689,-1.7413,-1.6873,-1.6522,-1.6522,-1.6522,-1.6522,-1.6522,-1.6993,-1.7312,-1.7312,-1.8066,-1.8727,-1.9281,-1.9281,-1.9442,-1.969,-1.969,-1.969,-1.969,-1.969,-1.9854,-2.0198,-2.0198,-2.0917,0.0,0.0,0.0,0.0,0.0,0.0,0.0,-1.5533,-1.5415,-1.5752,-1.6325,-1.6863,-1.7317,-1.7391,-1.7515,-1.7931,-1.7228,-1.6655,-1.6655,-1.5613,-1.4987,-1.5371,-1.5153,-1.4879,-1.4674,-1.4336,-1.436,-1.5107,-1.4853,-1.4805,-1.5146,-1.5166,-1.5205,-1.5283,-1.5205,-1.5205,-1.5283,-1.4785,-1.4541,-1.4531,-1.375,-1.3389,-1.3379,-1.3037,-1.2881,-1.2881,-1.2881,-1.2881,-1.2929,-1.342,-1.392,-1.4294,-1.3826,-1.3647,-1.3552,-1.3055,-1.2881,-1.2881,-1.2881,-1.2881,-1.2881,-1.2881,-1.3105,-1.3398,-1.3486,-1.4633,-1.5881,-1.5981,-1.649,-1.7008,-1.7045,-1.6672,-1.6337,-1.6337,-1.6423,-1.6522,-1.6522,-1.6522,-1.6522,-1.6522,-1.6898,-1.7212,-1.7212,-1.7576,-1.7915,-1.8028,-1.7664,-1.7338,-1.7225,-1.681,-1.6522,-1.6522,-1.6522,-1.6522,-1.6522,-1.7312,-1.7867,-1.8106,-1.8893,-1.9479,-1.969,-1.969,-1.969,-1.969,-1.969,-1.969,-1.969,-1.969,-1.969,-1.969,-1.969,-2.0333,-1.6522,-1.6095,-1.5588,-1.5017,-1.4835,-1.4647,0.0,-1.4669,-1.5426,-1.5346,-1.5917,-1.6266,-1.562,-1.6045,-1.6345,-1.5696,-1.5497,-1.5414,-1.5414,-1.443,-1.3686,-1.3736,-1.4031,-1.4204,-1.4199,-1.4107,-1.4116,-1.4214,-1.4175,-1.4175,-1.4223,-1.4223,-1.4453,-1.4844,-1.4482,-1.4463,-1.4853,-1.4053,-1.3652,-1.3643,-1.3174,-1.2949,-1.2949,-1.29,-1.2881,-1.2881,-1.2881,-1.2881,-1.2929,-1.2968,-1.3017,-1.3113,-1.3017,-1.3017,-1.2968,-1.2929,-1.2881,-1.2881,-1.2881,-1.2881,-1.2881,-1.2881,-1.291,-1.3018,-1.3389,-1.4114,-1.4881,-1.5262,-1.5567,-1.5716,-1.5802,-1.5768,-1.572,-1.572,-1.6095,-1.6522,-1.6522,-1.6522,-1.6522,-1.6522,-1.6572,-1.6609,-1.6609,-1.666,-1.6886,-1.74,-1.7426,-1.72,-1.6685,-1.6559,-1.6522,-1.6522,-1.6522,-1.6522,-1.6522,-1.6595,-1.7076,-1.8027,-1.8224,-1.8688,-1.9639,-1.969,-1.969,-1.969,-1.969,-1.969,-1.969,-1.969,-1.969,-1.969,-1.969,-2.0094,-1.5966,-1.5776,-1.5454,-1.4835,-1.4422,-1.4026,-1.3541,-1.359,-1.382,-1.3941,-1.4241,-1.4611,-1.5133,-1.5143,-1.5102,-1.5184,-1.4666,-1.4205,-1.4205,-1.36,-1.3145,-1.3145,-1.3301,-1.3496,-1.375,-1.3157,-1.3152,-1.4038,-1.3527,-1.3446,-1.4068,-1.4077,-1.4165,-1.4404,-1.4175,-1.4165,-1.4404,-1.3809,-1.3506,-1.3506,-1.3076,-1.2881,-1.2881,-1.2881,-1.2881,-1.2881,-1.2881,-1.2881,-1.2881,-1.2881,-1.2881,-1.2881,-1.2881,-1.2881,-1.2881,-1.2881,-1.2881,-1.2881,-1.2881,-1.2881,-1.2881,-1.2881,-1.2881,-1.291,-1.3096,-1.3598,-1.4206,-1.4387,-1.4719,-1.5049,-1.5062,-1.5062,-1.5062,-1.5062,-1.5555,-1.5964,-1.5964,-1.6238,-1.6522,-1.6522,-1.6522,-1.6522,-1.6522,-1.6522,-1.6609,-1.6848,-1.6886,-1.6798,-1.6547,-1.6522,-1.6522,-1.6522,-1.6522,-1.6522,-1.6522,-1.6795,-1.7312,-1.8066,-1.838,-1.8893,-1.969,-1.969,-1.969,-1.969,-1.969,-1.969,-1.969,-1.969,-1.969,-1.969,-1.969,-1.9839,-1.5668,-1.5499,-1.5174,-1.4354,-1.37,-1.3162,-1.2755,-1.2341,-1.2096,-1.2423,-1.2592,-1.3051,-1.4072,-1.4009,-1.3935,-1.4471,-1.3861,-1.334,-1.334,-1.3076,-1.2881,-1.2881,-1.2725,-1.2723,-1.2979,-1.2295,-1.2369,-1.3688,-1.2861,-1.272,-1.3717,-1.3789,-1.3848,-1.3902,-1.3848,-1.3848,-1.3902,-1.3545,-1.334,-1.333,-1.3027,-1.2881,-1.2881,-1.2881,-1.2881,-1.2881,-1.2881,-1.2881,-1.2881,-1.2881,-1.2881,-1.2881,-1.2881,-1.2881,-1.2881,-1.2881,-1.2881,-1.2881,-1.2881,-1.2881,-1.2881,-1.2881,-1.2881,-1.2881,-1.2881,-1.319,-1.36,-1.3732,-1.4003,-1.4247,-1.4422,-1.4468,-1.4468,-1.4468,-1.4915,-1.541,-1.5543,-1.5952,-1.6281,-1.6466,-1.6522,-1.6522,-1.6522,-1.6522,-1.6522,-1.6522,-1.6522,-1.6522,-1.6522,-1.6522,-1.6522,-1.6522,-1.6522,-1.6522,-1.6522,-1.6993,-1.7544,-1.8066,-1.8612,-1.9132,-1.969,-1.969,-1.969,-1.969,-1.969,-1.969,-1.969,-1.969,-1.969,-1.969,-1.969,-1.969,-1.5764,-1.5186,-1.4411,-1.3158,-1.2346,-1.1665,-1.1032,-1.088,-1.0838,-1.0846,-1.1401,-1.185,-1.19,-1.248,-1.292,-1.2969,-1.2959,-1.29,-1.29,-1.2891,-1.2881,-1.2881,-1.2295,-1.1823,-1.1832,-1.1823,-1.2138,-1.2861,-1.2264,-1.2157,-1.292,-1.292,-1.3105,-1.3516,-1.3135,-1.3115,-1.3525,-1.3105,-1.29,-1.29,-1.2891,-1.2881,-1.2881,-1.2881,-1.2881,-1.2881,-1.2881,-1.2881,-1.2881,-1.2881,-1.2881,-1.2881,-1.2881,-1.2881,-1.2881,-1.2881,-1.2881,-1.2881,-1.2881,-1.2881,-1.2881,-1.2881,-1.2881,-1.2881,-1.2881,-1.2929,-1.3065,-1.3647,-1.3372,-1.3113,-1.3684,-1.3815,-1.3815,-1.3815,-1.4283,-1.488,-1.5454,-1.5632,-1.582,-1.638,-1.6522,-1.6522,-1.6522,-1.6522,-1.6522,-1.6522,-1.6522,-1.6522,-1.6522,-1.6522,-1.6522,-1.6522,-1.6522,-1.6522,-1.6522,-1.6993,-1.7544,-1.8066,-1.8612,-1.9132,-1.969,-1.969,-1.969,-1.969,-1.969,-1.969,-1.969,-1.969,-1.969,-1.969,-1.969,-1.969,-1.4731,-1.4586,-1.4272,-1.258,-1.1953,-1.1516,-1.0415,-0.9784,-0.957,-1.0056,-1.0281,-1.0713,-1.1607,-1.2393,-1.2881,-1.2881,-1.2881,-1.2715,-1.2236,-1.2187,-1.199,-1.1584,-1.1498,-1.1489,-1.1489,-1.126,-1.153,-1.2545,-1.2401,-1.2554,-1.325,-1.3301,-1.3232,-1.3096,-1.2959,-1.2949,-1.3096,-1.2949,-1.2881,-1.2881,-1.2881,-1.2881,-1.2881,-1.2881,-1.2881,-1.2881,-1.2881,-1.2881,-1.2881,-1.2881,-1.2881,-1.2881,-1.2881,-1.2881,-1.2881,-1.2881,-1.2881,-1.2881,-1.2881,-1.2881,-1.2881,-1.2881,-1.2881,-1.2881,-1.2881,-1.2881,-1.2929,-1.3152,-1.3065,-1.2978,-1.3152,-1.319,-1.319,-1.319,-1.3647,-1.4143,-1.4365,-1.5039,-1.5676,-1.5864,-1.6238,-1.6522,-1.6522,-1.6522,-1.6522,-1.6522,-1.6522,-1.6522,-1.6522,-1.6522,-1.6522,-1.6522,-1.6522,-1.6522,-1.6522,-1.668,-1.6993,-1.7544,-1.7747,-1.8263,-1.9132,-1.9169,-1.9332,-1.969,-1.969,-1.969,-1.969,-1.969,-1.969,-1.969,-1.969,-1.969,-1.458,-1.4463,-1.4125,-1.1868,-1.137,-1.1082,-0.9621,-0.9003,-0.8862,-0.9354,-0.9585,-1.0069,-1.1258,-1.2039,-1.2608,-1.2881,-1.2881,-1.2715,-1.2236,-1.1972,-1.1669,-1.1362,-1.1121,-1.1094,-1.1485,-1.1341,-1.1625,-1.2582,-1.2715,-1.2915,-1.3464,-1.3506,-1.3311,-1.2891,-1.2881,-1.2881,-1.2881,-1.2881,-1.2881,-1.2881,-1.2881,-1.2881,-1.2881,-1.2881,-1.2881,-1.2881,-1.2881,-1.2881,-1.2881,-1.2881,-1.2881,-1.2881,-1.2881,-1.2881,-1.2881,-1.2881,-1.2881,-1.2881,-1.2881,-1.2881,-1.2881,-1.2881,-1.2881,-1.2881,-1.2881,-1.2881,-1.2881,-1.2881,-1.2881,-1.2881,-1.2881,-1.2881,-1.2881,-1.2881,-1.32,-1.3552,-1.3732,-1.4595,-1.532,-1.5543,-1.6095,-1.6522,-1.6522,-1.6522,-1.6522,-1.6522,-1.6522,-1.6522,-1.6522,-1.6522,-1.6522,-1.6522,-1.6522,-1.6522,-1.6522,-1.668,-1.6993,-1.7544,-1.7787,-1.8263,-1.9169,-1.9207,-1.9369,-1.969,-1.969,-1.969,-1.969,-1.969,-1.969,-1.969,-1.969,-1.969,-1.5115,-1.4654,-1.3939,-1.1131,-1.0606,-1.033,-0.8776,-0.8584,-0.8732,-0.8804,-0.9309,-0.9961,-1.0661,-1.1384,-1.2058,-1.2803,-1.291,-1.2861,-1.2812,-1.2197,-1.1808,-1.2113,-1.1001,-1.0654,-1.1695,-1.1855,-1.2159,-1.2811,-1.3077,-1.3273,-1.3513,-1.3545,-1.334,-1.2891,-1.2881,-1.2881,-1.2881,-1.2881,-1.2881,-1.2881,-1.2881,-1.2881,-1.2881,-1.2881,-1.2881,-1.2881,-1.2881,-1.2881,-1.2881,-1.2881,-1.2881,-1.2881,-1.2881,-1.2881,-1.2881,-1.2881,-1.2881,-1.2881,-1.2881,-1.2881,-1.2881,-1.2881,-1.2881,-1.2881,-1.2881,-1.2881,-1.2881,-1.2881,-1.2881,-1.2881,-1.2881,-1.2881,-1.2881,-1.2881,-1.2881,-1.3065,-1.3684,-1.4283,-1.488,-1.5499,-1.6095,-1.6522,-1.6522,-1.6522,-1.6522,-1.6522,-1.6522,-1.6522,-1.6522,-1.6522,-1.6522,-1.6522,-1.6522,-1.6522,-1.6522,-1.6951,-1.7463,-1.7987,-1.8496,-1.9006,-1.9566,-1.9603,-1.9639,-1.9639,-1.969,-1.969,-1.969,-1.969,-1.969,-1.969,-1.969,-1.969,-1.4256,-1.3802,-1.3172,-1.1503,-1.053,-0.9826,-0.9158,-0.8303,-0.7914,-0.8652,-0.8876,-0.9363,-1.0559,-1.1618,-1.2558,-1.3239,-1.2935,-1.2456,-1.1913,-1.0943,-1.0146,-0.9731,-0.958,-0.9681,-1.0208,-1.101,-1.1603,-1.2038,-1.3513,-1.426,-1.3941,-1.3975,-1.3643,-1.29,-1.2881,-1.2881,-1.2881,-1.2881,-1.2881,-1.2881,-1.2881,-1.2881,-1.2881,-1.2881,-1.2881,-1.2881,-1.2881,-1.2881,-1.2881,-1.2881,-1.2881,-1.2881,-1.2881,-1.2881,-1.2881,-1.2881,-1.2881,-1.2881,-1.2881,-1.2881,-1.2881,-1.2881,-1.2881,-1.2881,-1.2881,-1.2881,-1.2881,-1.2881,-1.2881,-1.2881,-1.2881,-1.2881,-1.2881,-1.2881,-1.2881,-1.3065,-1.3684,-1.4283,-1.488,-1.5499,-1.6095,-1.6522,-1.6522,-1.6522,-1.6522,-1.6522,-1.6522,-1.6522,-1.6522,-1.6522,-1.6522,-1.6522,-1.6522,-1.6522,-1.6522,-1.6637,-1.6752,-1.6909,-1.7034,-1.7353,-1.7907,-1.8302,-1.8688,-1.9095,-1.9479,-1.969,-1.969,-1.969,-1.969,-1.969,-1.969,-1.969,-1.4653,-1.4082,-1.3362,-1.1588,-1.0881,-1.038,-0.924,-0.8692,-0.8474,-0.8771,-0.8981,-0.9526,-1.061,-1.1748,-1.2715,-1.3404,-1.3189,-1.2706,-1.2009,-1.0949,-1.0022,-0.95,-0.9302,-0.9464,-1.0157,-1.0784,-1.1371,-1.1917,-1.3416,-1.4081,-1.3603,-1.3744,-1.3555,-1.29,-1.2881,-1.2881,-1.2881,-1.2881,-1.2881,-1.2881,-1.2881,-1.2881,-1.2881,-1.2881,-1.2881,-1.2881,-1.2881,-1.2881,-1.2881,-1.2881,-1.2715,-1.2403,-1.2403,-1.2255,-1.1999,-1.1999,-1.2147,-1.2403,-1.2403,-1.2618,-1.2881,-1.2881,-1.2881,-1.2881,-1.2881,-1.2881,-1.2881,-1.2881,-1.2881,-1.2881,-1.2881,-1.2881,-1.2881,-1.2881,-1.2881,-1.3065,-1.3684,-1.4283,-1.4971,-1.582,-1.6281,-1.6522,-1.6522,-1.6522,-1.6522,-1.6522,-1.6522,-1.6609,-1.6861,-1.6898,-1.6986,-1.7237,-1.7262,-1.7262,-1.7262,-1.7262,-1.7339,-1.7593,-1.7553,-1.7807,-1.833,-1.8638,-1.893,-1.9244,-1.9566,-1.969,-1.969,-1.969,-1.969,-1.969,-1.969,-1.969,-1.5505,-1.4785,-1.3934,-1.1648,-1.1453,-1.1278,-0.9468,-0.9501,-0.971,-0.9047,-0.9465,-1.0115,-1.0712,-1.1748,-1.2715,-1.3404,-1.3343,-1.3025,-1.2446,-1.131,-1.043,-1.0163,-0.9555,-0.9563,-1.059,-1.0669,-1.0966,-1.176,-1.2629,-1.3032,-1.2751,-1.3057,-1.3099,-1.2783,-1.2832,-1.2832,-1.2764,-1.2764,-1.2764,-1.2764,-1.2764,-1.2822,-1.2881,-1.2881,-1.2881,-1.2881,-1.2881,-1.2822,-1.2764,-1.2764,-1.2393,-1.1814,-1.1814,-1.1516,-1.1074,-1.1074,-1.1475,-1.1972,-1.1972,-1.2344,-1.2881,-1.2881,-1.2881,-1.2881,-1.2881,-1.2881,-1.2881,-1.2881,-1.2881,-1.2881,-1.2881,-1.2968,-1.3017,-1.3017,-1.3065,-1.3286,-1.3909,-1.4514,-1.5242,-1.6293,-1.6572,-1.6635,-1.6635,-1.6635,-1.6635,-1.6635,-1.6572,-1.6748,-1.7413,-1.7426,-1.7601,-1.8141,-1.8204,-1.8204,-1.8204,-1.8204,-1.838,-1.8865,-1.8849,-1.9003,-1.9468,-1.9558,-1.9603,-1.9603,-1.9639,-1.969,-1.969,-1.969,-1.969,-1.969,-1.969,-1.969,-1.5276,-1.4414,-1.351,-1.2495,-1.163,-1.1026,-1.0894,-1.0568,-1.0172,-0.971,-1.0167,-1.0661,-1.0762,-1.1748,-1.2715,-1.3404,-1.2593,-1.179,-1.1684,-1.0234,-0.9127,-0.9083,-0.8931,-0.9052,-0.9445,-0.9472,-0.9694,-1.0057,-1.0606,-1.1152,-1.1724,-1.1824,-1.1878,-1.199,-1.2559,-1.2618,-1.1972,-1.1972,-1.1972,-1.1972,-1.1972,-1.2295,-1.2881,-1.2881,-1.2881,-1.2881,-1.2881,-1.2559,-1.1972,-1.1972,-1.1922,-1.1814,-1.1814,-1.2089,-1.252,-1.252,-1.2618,-1.2715,-1.2715,-1.2774,-1.2881,-1.2881,-1.2881,-1.2881,-1.2881,-1.2881,-1.2881,-1.2881,-1.2881,-1.2881,-1.2881,-1.3286,-1.3637,-1.3637,-1.4014,-1.456,-1.5141,-1.5776,-1.625,-1.6479,-1.6911,-1.7237,-1.7237,-1.7237,-1.7237,-1.7237,-1.6823,-1.6886,-1.7928,-1.7664,-1.7601,-1.8141,-1.8204,-1.8204,-1.8204,-1.8204,-1.8251,-1.8333,-1.8317,-1.8382,-1.8468,-1.8835,-1.9043,-1.9043,-1.9479,-1.969,-1.969,-1.969,-1.969,-1.969,-1.969,-1.969,-1.5991,-1.514,-1.4422,-1.3518,-1.2804,-1.2234,-1.1797,-1.1134,-1.0466,-0.9931,-1.0064,-1.0364,-1.0762,-1.1748,-1.2715,-1.3404,-1.2654,-1.1973,-1.1722,-1.0493,-0.9449,-0.9031,-0.9031,-0.9025,-0.9018,-0.9018,-0.9078,-0.9218,-0.9411,-0.9921,-1.0832,-1.1027,-1.1353,-1.1774,-1.2138,-1.2344,-1.2344,-1.2344,-1.2187,-1.1814,-1.2187,-1.2344,-1.2344,-1.2715,-1.2881,-1.2881,-1.2881,-1.2501,-1.1814,-1.1814,-1.1366,-1.0762,-1.0762,-1.0973,-1.1292,-1.1292,-1.1742,-1.2344,-1.2314,-1.2578,-1.2881,-1.2881,-1.2881,-1.2881,-1.2881,-1.2881,-1.2881,-1.2881,-1.2881,-1.2881,-1.2881,-1.3324,-1.3815,-1.3815,-1.4503,-1.5231,-1.5543,-1.6328,-1.6974,-1.6974,-1.7426,-1.7815,-1.7815,-1.7564,-1.7388,-1.7388,-1.6886,-1.6823,-1.7664,-1.779,-1.8129,-1.8945,-1.9032,-1.9032,-1.9032,-1.9032,-1.9032,-1.9032,-1.9029,-1.8897,-1.864,-1.9071,-1.9185,-1.8907,-1.9169,-1.9406,-1.969,-1.9406,-1.9442,-1.969,-1.969,-1.969,-1.6897,-1.6022,-1.5344,-1.4398,-1.3859,-1.3369,-1.2652,-1.1739,-1.0813,-1.0167,-1.0012,-1.0167,-1.0712,-1.1627,-1.2577,-1.3268,-1.2763,-1.2122,-1.1801,-1.0855,-0.993,-0.9388,-0.9223,-0.9097,-0.8925,-0.8844,-0.8804,-0.8804,-0.8804,-0.9164,-0.9933,-1.0358,-1.0813,-1.1366,-1.1516,-1.1882,-1.2461,-1.2461,-1.2246,-1.1814,-1.2403,-1.2344,-1.1823,-1.2403,-1.2618,-1.2461,-1.2461,-1.2039,-1.1366,-1.1366,-1.0762,-0.9814,-0.9814,-0.9865,-1.0012,-1.0167,-1.0914,-1.1814,-1.1999,-1.2421,-1.2881,-1.2881,-1.2881,-1.2881,-1.2881,-1.2881,-1.2881,-1.2881,-1.2881,-1.2881,-1.2881,-1.3324,-1.3862,-1.4133,-1.4994,-1.5844,-1.5965,-1.6724,-1.7388,-1.7388,-1.7827,-1.8166,-1.8053,-1.7765,-1.7513,-1.74,-1.6999,-1.6861,-1.7325,-1.7765,-1.8392,-1.9359,-1.956,-1.9585,-1.9472,-1.9459,-1.951,-1.9598,-1.9599,-1.9495,-1.9164,-1.9514,-1.9513,-1.9095,-1.908,-1.9281,-1.969,-1.9281,-1.9281,-1.969,-1.969,-1.9747,-1.7604,-1.6384,-1.536,-1.4768,-1.3845,-1.3164,-1.363,-1.2706,-1.1516,-1.0864,-1.072,-1.072,-1.0762,-1.1392,-1.2085,-1.2832,-1.21,-1.1374,-1.1354,-1.0416,-0.9755,-0.9646,-0.9406,-0.9176,-0.915,-0.8965,-0.8804,-0.8804,-0.8804,-0.8818,-0.895,-0.9532,-0.9917,-0.9961,-1.0559,-1.0914,-1.0973,-1.0973,-1.1266,-1.1814,-1.1873,-1.1882,-1.1801,-1.1882,-1.1566,-1.0973,-1.0973,-1.0618,-0.9961,-0.9961,-0.9909,-0.9814,-0.9814,-1.0167,-1.0762,-1.1416,-1.1715,-1.1922,-1.2559,-1.2832,-1.2881,-1.2881,-1.2881,-1.2881,-1.2881,-1.2881,-1.2881,-1.2881,-1.2881,-1.2881,-1.2881,-1.3324,-1.4097,-1.5174,-1.5964,-1.6573,-1.7142,-1.7338,-1.7388,-1.7388,-1.7827,-1.8053,-1.7551,-1.784,-1.7953,-1.7451,-1.7338,-1.7325,-1.7375,-1.7426,-1.7689,-1.8292,-1.8794,-1.8894,-1.8392,-1.8355,-1.8567,-1.9054,-1.901,-1.9183,-1.9634,-1.9683,-1.9677,-1.9639,-1.9639,-1.9639,-1.969,-1.9639,-1.9639,-1.969,-1.969,-1.9909,-1.8358,-1.7182,-1.6303,-1.5356,-1.3918,-1.2834,-1.3155,-1.1865,-1.0517,-1.0261,-0.9865,-0.971,-1.0115,-1.0771,-1.1416,-1.2138,-1.1858,-1.1757,-1.218,-1.116,-1.0415,-1.0601,-0.9962,-0.9439,-0.9203,-0.8978,-0.8804,-0.8804,-0.8804,-0.8804,-0.8804,-0.9061,-0.9361,-0.9762,-1.0064,-1.0415,-1.0813,-1.0813,-1.0712,-1.0618,-1.1015,-1.0973,-1.0626,-1.1023,-1.1065,-1.0813,-1.0813,-1.0415,-0.9814,-0.9814,-0.9562,-0.9263,-0.9666,-1.0218,-1.0864,-1.1566,-1.208,-1.2501,-1.2774,-1.2881,-1.2881,-1.2881,-1.2881,-1.2881,-1.2881,-1.2881,-1.2881,-1.2881,-1.2881,-1.2881,-1.2881,-1.3324,-1.4086,-1.5309,-1.5776,-1.621,-1.7205,-1.7388,-1.7488,-1.7815,-1.8053,-1.8141,-1.7915,-1.779,-1.7639,-1.7413,-1.7087,-1.6861,-1.6861,-1.7162,-1.7338,-1.72,-1.799,-1.8442,-1.8229,-1.8508,-1.8773,-1.8989,-1.9287,-1.9362,-1.9224,-1.9545,-1.9564,-1.9207,-1.9207,-1.9369,-1.969,-1.9369,-1.9575,-2.0303,-2.0639,-2.0824,-1.8805,-1.7362,-1.6201,-1.4829,-1.3129,-1.1797,-1.1859,-1.0444,-0.9221,-0.9436,-0.8935,-0.8738,-0.9658,-1.0364,-1.1015,0.0,-1.1962,-1.2322,-1.2842,-1.1817,-1.1108,-1.1391,-1.0502,-0.9693,-0.9399,-0.9031,-0.8804,-0.8804,-0.8804,-0.8804,-0.8804,-0.8804,-0.9008,-0.9465,-0.9517,-0.9814,-1.0517,-1.0517,-1.0364,-1.0115,-1.0559,-1.0466,-0.9814,-1.0269,-1.0415,-1.0218,-1.0218,-0.9969,-0.9517,-0.9517,-0.9211,-0.8857,-0.9309,-0.9909,-1.0568,-1.1266,-1.1981,-1.2618,-1.2822,-1.2881,-1.2881,-1.2881,-1.2881,-1.2881,-1.2881,-1.2881,-1.2881,-1.2881,-1.2881,-1.2881,-1.2881,-1.3324,-1.405,-1.5096,-1.5454,-1.5921,-1.716,-1.7388,-1.7501,-1.789,-1.7953,-1.7953,-1.7953,-1.7777,-1.7655,-1.7613,-1.7428,-1.7178,-1.7002,-1.7355,-1.7458,-1.7002,-1.7686,-1.8042,-1.7702,-1.8177,-1.8552,-1.8728,-1.9234,-1.9405,-1.916,-1.9516,-1.9508,-1.9132,-1.9132,-1.9332,-1.969,-1.9693,-2.0109,-2.0955,-2.1672,-2.202,-1.8792,-1.6662,-1.4525,-1.285,-1.1104,-0.9787,-0.9645,-0.8592,-0.7817,-0.8574,-0.8178,-0.8143,-0.9555,-1.0364,-1.1015,-1.1715,-1.2386,-1.2913,-1.2922,-1.2236,-1.1757,-1.1764,-1.0765,-1.0,-0.9706,-0.9152,-0.8804,-0.8804,-0.8804,-0.8804,-0.8804,-0.8804,-0.8804,-0.8804,-0.8804,-0.9106,-0.9814,-0.9814,-1.0167,-1.0762,-1.0813,-1.0466,-0.9814,-0.9814,-0.9465,-0.8804,-0.8804,-0.8804,-0.8804,-0.8804,-0.8811,-0.8804,-0.8811,-0.9211,-0.9917,-1.0568,-1.1266,-1.1922,-1.2666,-1.2881,-1.2881,-1.2881,-1.2881,-1.2881,-1.2881,-1.2881,-1.2881,-1.2881,-1.2881,-1.2881,-1.2881,-1.3324,-1.3956,-1.456,-1.5186,-1.5921,-1.716,-1.7388,-1.7388,-1.7388,-1.7388,-1.7388,-1.7388,-1.784,-1.8177,-1.8184,-1.8653,-1.8764,-1.8138,-1.8106,-1.8106,-1.8066,-1.8066,-1.768,-1.662,-1.7005,-1.7517,-1.808,-1.8602,-1.9147,-1.9654,-1.969,-1.969,-1.969,-1.969,-1.969,-1.969,-2.088,-2.147,-2.1537,-2.2662,-2.3434,-1.738,-1.5532,-1.4013,-1.2889,-1.0831,-0.9034,-0.8981,-0.7682,-0.6484,-0.6753,-0.7267,-0.783,-0.8296,-0.9688,-1.0947,-1.1507,-1.2559,-1.3315,-1.3365,-1.2722,-1.213,-1.1804,-1.0643,-0.9626,-0.9132,-0.8918,-0.8804,-0.8804,-0.8804,-0.8804,-0.8804,-0.8804,-0.8804,-0.8804,-0.8804,-0.891,-0.9106,-0.9106,-0.9211,-0.9413,-0.9413,-0.9309,-0.9106,-0.9106,-0.9008,-0.8804,-0.8804,-0.8804,-0.8804,-0.8804,-0.8804,-0.8857,-0.9316,-0.9614,-0.9865,-1.0559,-1.1216,-1.1814,-1.208,-1.2501,-1.2881,-1.2881,-1.2881,-1.2881,-1.2881,-1.2881,-1.2881,-1.2881,-1.32,-1.3505,-1.3505,-1.3967,-1.456,-1.5186,-1.5454,-1.5921,-1.716,-1.7074,-1.703,-1.7808,-1.7632,-1.7632,-1.8441,-1.8702,-1.8811,-1.882,-1.8973,-1.8851,-1.8163,-1.8106,-1.8106,-1.8106,-1.8106,-1.7947,-1.7626,-1.8106,-1.8458,-1.865,-1.9169,-1.953,-1.969,-1.969,-1.969,-1.969,-1.969,-1.9854,-2.0089,-2.1058,-2.2331,-2.3891,-2.4172,-2.486,-1.5314,-1.4438,-1.3424,-1.1234,-0.8857,-0.6918,-0.6372,-0.5475,-0.5023,-0.5734,-0.6622,-0.7456,-0.799,-0.9592,-1.0937,-1.1406,-1.2501,-1.3336,-1.3546,-1.2756,-1.1926,-1.1218,-1.0155,-0.9372,-0.9005,-0.8871,-0.8804,-0.8804,-0.8804,-0.8804,-0.8804,-0.8804,-0.8804,-0.8804,-0.8804,-0.8804,-0.8804,-0.8804,-0.8804,-0.8804,-0.8804,-0.8804,-0.8804,-0.8804,-0.8804,-0.8804,-0.8804,-0.8804,0.0,-0.8804,-0.8804,-0.8857,-0.9263,-0.971,-1.0218,-1.0669,-1.1425,-1.2236,-1.2236,-1.251,-1.2881,-1.2881,-1.2881,-1.2881,-1.2881,-1.3065,-1.3238,-1.3238,-1.3647,-1.4143,-1.4143,-1.4422,-1.4835,-1.5454,-1.5588,-1.586,-1.6841,-1.6934,-1.7089,-1.8047,-1.8109,-1.8415,-1.9582,-1.9792,-1.9744,-1.9726,-1.9725,-1.9456,-1.8803,-1.8688,-1.8688,-1.8688,-1.8688,-1.8688,-1.8688,-1.8817,-1.8893,-1.8893,-1.9406,-1.969,-1.969,-1.969,-1.969,-1.969,-1.9839,-2.007,-2.0314,-2.1426,-2.3091,-2.5213,-2.488,-2.5112,0.0,-1.3064,-1.2398,-0.8025,-0.5651,-0.4006,-0.2563,-0.2674,0.0,-0.5521,-0.6352,-0.7182,-0.8606,-0.9925,-1.0953,-1.1481,-1.2258,-1.2955,-1.3438,-1.2462,-1.1254,-1.0114,-0.9528,-0.9176,-0.9101,-0.8911,-0.8804,-0.8804,-0.8804,-0.8804,-0.8804,-0.8804,-0.8804,-0.8804,-0.8804,-0.8804,-0.8804,-0.8804,-0.8804,-0.8804,-0.8804,-0.8804,-0.8804,-0.8804,-0.8804,-0.8804,-0.8804,-0.8804,-0.8804,-0.8804,-0.8804,-0.8804,-0.8804,-0.9562,-1.0661,-1.0661,-1.1543,-1.2774,-1.2774,-1.2832,-1.2881,-1.2881,-1.2881,-1.2881,-1.2881,-1.3324,-1.3815,-1.3815,-1.4283,-1.4744,-1.4744,-1.4823,-1.5028,-1.5603,-1.576,-1.5917,-1.6485,-1.7015,-1.7565,-1.8278,-1.8836,-1.9572,-2.0857,-2.1021,-2.0976,-2.0851,-2.0763,-2.0502,-1.9803,-1.969,-1.969,-1.969,-1.969,-1.969,-1.969,-1.9281,-1.9006,-1.9006,-1.95,-1.9782,-1.9747,-1.9747,-1.9747,-1.9747,-2.0158,-2.0462,-2.0556,-2.2037,-2.3712,-2.5507,-2.4814,-2.4506,-0.8961,0.0,-0.8729,-0.4436,-0.395,-0.4095,0.0,-0.3171,-0.4443,-0.5668,-0.7106,-0.8434,-0.9146,-1.0105,-1.1118,-1.2172,-1.2212,-1.2182,-1.2237,-1.1214,-1.0094,-0.9092,-0.9112,-0.887,-0.8105,-0.8519,-0.8804,-0.8804,-0.8804,-0.8804,-0.8804,-0.8804,-0.8804,-0.8804,-0.8804,-0.8804,-0.8804,-0.8804,-0.8804,-0.8804,-0.8804,-0.8804,-0.8804,-0.8804,-0.8804,-0.8804,-0.8804,-0.8804,-0.8804,-0.8804,-0.8804,-0.8804,-0.8804,-0.9008,-0.9256,-0.9256,-1.0123,-1.1275,-1.1275,-1.1999,-1.2881,-1.2881,-1.2881,-1.2881,-1.2881,-1.3324,-1.3815,-1.3815,-1.4595,-1.541,-1.541,-1.6044,-1.6802,-1.6938,-1.7306,-1.7618,-1.7756,-1.7882,-1.8294,-1.9305,-1.9642,-2.0373,-2.2465,-2.2393,-2.2046,-2.2017,-2.1508,-2.0803,-1.9816,-1.969,-1.969,-1.969,-1.969,-1.969,-1.969,-1.9879,-1.9954,-1.9954,-2.0416,-2.0532,-2.0193,-2.0158,-2.0158,-2.0158,-2.091,-2.1874,-2.3063,-2.3181,-2.3742,-2.4729,-2.4591,-2.4506,-0.7025,-0.7063,-0.686,-0.3993,-0.3866,-0.4281,-0.3421,0.0,0.0,0.0,0.0,-0.889,-0.9486,-1.0399,-1.1422,-1.2655,-1.2118,-1.1422,-1.1085,-1.008,-0.9263,-0.8927,-0.8651,-0.8317,-0.7735,-0.8374,-0.8646,-0.8321,-0.8593,-0.8804,-0.8804,-0.8804,-0.8804,-0.8804,-0.8804,-0.8804,-0.8804,-0.8804,-0.8804,-0.8804,-0.8804,-0.8804,-0.8804,-0.8804,-0.8804,-0.8804,-0.8804,-0.8804,-0.8804,-0.8804,-0.8804,-0.8804,-0.8804,-0.9008,-0.9309,-0.9614,-1.0364,-1.1316,-1.1633,-1.2255,-1.2881,-1.2881,-1.2881,-1.2881,-1.2881,-1.3324,-1.3862,-1.4143,-1.4869,-1.5736,-1.6268,-1.6901,-1.7451,-1.7702,-1.799,-1.8304,-1.8524,-1.8799,-1.9357,-2.0595,-2.1175,-2.1916,-2.3238,-2.3371,-2.3143,-2.2613,-2.2217,-2.1508,-2.031,-2.0154,-2.0034,-1.972,-1.969,-1.969,-1.969,-2.007,-2.0212,-2.0035,-2.0277,-2.0311,-2.0035,-2.057,-2.1192,-2.1951,-2.2394,-2.3156,-2.4161,-2.3658,-2.3596,-2.3985,-2.3646,-2.3477,-0.6268,-0.6128,-0.6078,-0.4601,-0.4386,-0.4501,-0.4494,0.0,0.0,0.0,0.0,0.0,-0.9918,-1.074,-1.1614,-1.2648,-1.1789,-1.0689,-0.9986,-0.9098,-0.864,-0.8869,-0.81,-0.7503,-0.7391,-0.8043,-0.8209,-0.7563,-0.8103,-0.8533,-0.8646,-0.8646,-0.8699,-0.8804,-0.8804,-0.8804,-0.8804,-0.8804,-0.8804,-0.8804,-0.8804,-0.8804,-0.8804,-0.8804,-0.8804,-0.8804,-0.8804,-0.8804,-0.8804,-0.8804,-0.8804,-0.8804,-0.8804,-0.9159,-0.9718,-1.0415,-1.1065,-1.1774,-1.2618,-1.2881,-1.2881,-1.2881,-1.2881,-1.2929,-1.3017,-1.3372,-1.392,-1.4514,-1.5198,-1.5948,-1.7,-1.7455,-1.7752,-1.8216,-1.8488,-1.8738,-1.9231,-1.9789,-2.0555,-2.1787,-2.2716,-2.336,-2.3688,-2.3998,-2.3902,-2.2934,-2.2701,-2.2194,-2.1006,-2.0857,-2.0647,-2.0049,-1.9989,-1.9989,-1.9989,-2.0304,-2.0375,-2.0025,-1.9939,-1.9889,-1.9782,-2.0956,-2.2311,-2.3753,-2.3935,-2.4211,-2.4661,-2.3799,-2.3393,-2.3376,-2.2649,-2.231,-0.6387,-0.6207,-0.5953,-0.3724,-0.377,-0.4388,-0.4402,0.0,0.0,0.0,0.0,0.0,-1.1112,-1.1272,-1.1364,-1.1557,-1.084,-0.9979,-0.9108,-0.858,-0.8039,-0.7491,-0.7054,-0.6529,-0.5923,-0.6524,-0.6912,-0.6804,-0.6858,-0.7235,-0.783,-0.7883,-0.8156,-0.8758,-0.8804,-0.8804,-0.8804,-0.8804,-0.8804,-0.8804,-0.8804,-0.8804,-0.8804,-0.8804,-0.8804,-0.8804,-0.8804,-0.8804,-0.8804,-0.8804,-0.8804,-0.8804,-0.8804,-0.8857,-0.9061,-0.9718,-1.0364,-1.1116,-1.2461,-1.2881,-1.2881,-1.2881,-1.2881,-1.3027,-1.3505,-1.3732,-1.392,-1.4514,-1.5453,-1.6312,-1.65,-1.765,-1.8794,-1.8882,-1.968,-2.0448,-2.0538,-2.1016,-2.1629,-2.2429,-2.2694,-2.3137,-2.4117,-2.3844,-2.3443,-2.3319,-2.2763,-2.2156,-2.1599,-2.1545,-2.15,-2.1395,-2.138,-2.138,-2.138,-2.1458,-2.1458,-2.138,-2.1031,-2.0632,-2.0212,-2.1379,-2.2435,-2.3296,-2.4031,-2.4734,-2.5439,-2.4052,-2.3393,-2.3376,-2.2649,-2.231,-0.7699,-0.7563,-0.7512,-0.6749,-0.6455,-0.6249,-0.6046,-0.7133,0.0,0.0,0.0,0.0,-1.0525,-1.0809,-1.0767,-1.0186,-0.9765,-0.912,-0.8016,-0.7381,-0.6977,-0.6865,-0.6315,-0.5869,-0.5538,-0.6145,-0.6421,-0.6036,-0.6367,-0.675,-0.7074,-0.7128,-0.745,-0.8156,-0.8209,-0.8374,-0.8804,-0.8804,-0.8804,-0.8804,-0.8804,-0.8804,-0.8804,-0.8804,-0.8804,-0.8804,-0.8804,-0.8804,-0.8804,-0.8804,-0.8804,-0.8804,-0.8804,-0.8804,-0.891,-0.9961,-1.1032,-1.2049,-1.2676,-1.2881,-1.2881,-1.2881,-1.3104,-1.342,-1.3732,-1.405,-1.4329,-1.4606,-1.551,-1.6478,-1.6777,-1.7946,-1.9046,-1.9384,-2.0128,-2.0913,-2.1239,-2.1784,-2.2454,-2.3076,-2.3413,-2.3764,-2.4302,-2.4382,-2.4319,-2.4358,-2.3858,-2.3233,-2.2683,-2.2405,-2.1949,-2.1246,-2.1171,-2.1171,-2.1171,-2.1171,-2.1321,-2.168,-2.15,-2.1389,-2.1414,-2.2321,-2.3239,-2.4158,-2.4654,-2.5111,-2.5609,-2.4627,-2.4091,-2.3985,-2.3646,-2.3274,-0.955,-0.957,-0.982,-1.0277,0.0,-0.83,-0.8359,-0.8457,-0.8671,0.0,-0.9595,-1.0187,-1.0187,-1.0173,-0.9806,-0.8794,-0.8583,-0.8162,-0.6959,-0.6294,-0.5983,-0.6332,-0.571,-0.5273,-0.5273,-0.5769,-0.5878,-0.5328,-0.5769,-0.6154,-0.6312,-0.6367,-0.6691,-0.7402,-0.745,-0.7723,-0.8262,-0.848,-0.8646,-0.8804,-0.8804,-0.8804,-0.8804,-0.8804,-0.8804,-0.8804,-0.8804,-0.8804,-0.8804,-0.8804,-0.8804,-0.8804,-0.8804,-0.9008,-0.9413,-1.0415,-1.1692,-1.2881,-1.2881,-1.2881,-1.2881,-1.2881,-1.3334,-1.3815,-1.3956,-1.4422,-1.4926,-1.4926,-1.574,-1.6749,-1.7183,-1.8142,-1.9158,-1.9673,-2.0446,-2.1113,-2.1615,-2.2469,-2.3216,-2.3709,-2.4116,-2.443,-2.4592,-2.4816,-2.5067,-2.5182,-2.4736,-2.4203,-2.3716,-2.3219,-2.2585,-2.168,-2.1575,-2.1598,-2.1751,-2.1751,-2.1965,-2.2483,-2.2003,-2.1862,-2.2224,-2.2987,-2.379,-2.4629,-2.5019,-2.5285,-2.5497,-2.5043,-2.4713,-2.4555,-2.4343,-2.3934,-1.1759,-1.2156,-1.2736,-1.2512,-1.1022,0.0,-1.0979,-1.1211,0.0,-1.2527,-1.1995,-1.1378,-1.1378,-0.974,-0.816,-0.7516,-0.7322,-0.6949,-0.6006,-0.5673,-0.5555,-0.5597,-0.5003,-0.457,-0.457,-0.4625,-0.4625,-0.457,-0.4625,-0.4897,-0.5542,-0.5597,-0.5923,-0.6642,-0.6696,-0.6696,-0.675,-0.745,-0.8103,-0.8804,-0.8804,-0.8804,-0.8804,-0.8804,-0.8804,-0.8804,-0.8804,-0.8804,-0.8804,-0.8804,-0.8804,-0.8804,-0.8804,-0.9562,-1.0669,-1.0762,-1.1692,-1.2881,-1.2881,-1.2881,-1.2881,-1.2881,-1.3334,-1.3909,-1.4468,-1.505,-1.5543,-1.5543,-1.641,-1.7306,-1.7291,-1.8142,-1.9158,-1.9673,-2.0756,-2.1663,-2.1697,-2.3054,-2.4307,-2.4348,-2.4389,-2.4552,-2.5067,-2.4736,-2.4632,-2.5144,-2.4736,-2.4374,-2.4327,-2.3846,-2.3688,-2.4107,-2.4132,-2.4333,-2.4828,-2.4882,-2.4898,-2.4946,-2.2909,-2.1734,-2.1759,-2.2808,-2.3445,-2.3522,-2.4623,-2.5189,-2.5217,-2.4958,-2.4789,-2.4776,-2.3902,-2.3444,-1.3498,-1.3844,-1.4131,-1.4369,-1.3632,0.0,0.0,-1.1003,-1.0556,-1.0946,-1.0401,-0.9855,-1.0053,-0.8929,-0.7847,-0.725,-0.6678,-0.5962,-0.5117,-0.4934,-0.4897,-0.4897,-0.468,-0.4519,-0.4519,-0.4519,-0.4519,-0.4519,-0.4519,-0.4625,-0.4842,-0.4897,-0.5222,-0.5873,-0.5923,-0.6145,-0.6588,-0.7343,-0.783,-0.8103,-0.8593,-0.8804,-0.8804,-0.8804,-0.8804,-0.8804,-0.8804,-0.8804,-0.8804,-0.8804,-0.8804,-0.8857,-0.9263,-1.0269,-1.1416,-1.1416,-1.2039,-1.2881,-1.2881,-1.2881,-1.2968,-1.3334,-1.3873,-1.4468,-1.5096,-1.5688,-1.6151,-1.6151,-1.6486,-1.6828,-1.6785,-1.7627,-1.874,-1.97,-2.0563,-2.1485,-2.2611,-2.3661,-2.4511,-2.4816,-2.491,-2.5067,-2.5615,-2.554,-2.5561,-2.6052,-2.5433,-2.491,-2.491,-2.4158,-2.3643,-2.3776,-2.4069,-2.4376,-2.4564,-2.4965,-2.5221,-2.5221,-2.4381,-2.3538,-2.2769,-2.3582,-2.384,-2.3421,-2.3927,-2.4552,-2.5221,-2.5099,-2.5228,-2.5516,-2.4994,-2.4509,-1.5053,-1.552,-1.5804,-1.6009,0.0,0.0,-1.306,-1.1769,-1.0908,-1.0829,-1.0045,-0.9286,-0.9078,-0.8202,-0.7361,-0.6982,-0.6084,-0.5193,-0.4584,-0.4519,-0.4519,-0.4519,-0.4522,-0.4522,-0.4519,-0.4522,-0.4522,-0.4519,-0.4519,-0.4519,-0.4519,-0.4519,-0.4736,-0.5164,-0.5164,-0.5437,-0.5937,-0.6858,-0.7343,-0.7343,-0.8321,-0.8804,-0.8804,-0.8804,-0.8804,-0.8804,-0.8804,-0.8804,-0.8804,-0.8804,-0.891,-0.9159,-0.9865,-1.0813,-1.1814,-1.1814,-1.2374,-1.32,-1.32,-1.3296,-1.3525,-1.3967,-1.4503,-1.505,-1.5454,-1.6008,-1.6522,-1.6522,-1.6522,-1.6554,-1.6658,-1.7418,-1.8472,-1.9668,-2.0384,-2.1281,-2.2829,-2.379,-2.4563,-2.5287,-2.5449,-2.5615,-2.6139,-2.6085,-2.6156,-2.6624,-2.598,-2.5373,-2.5221,-2.443,-2.3891,-2.3975,-2.4463,-2.4847,-2.4974,-2.5432,-2.5672,-2.5672,-2.5672,-2.5056,-2.3747,-2.3979,-2.3928,-2.3467,-2.3568,-2.3948,-2.4712,-2.5012,-2.5373,-2.5746,-2.5665,-2.5203,-1.6476,-1.73,-1.7987,-1.7463,0.0,0.0,-1.496,-1.4024,-1.332,-1.3086,-1.1676,-1.0156,-0.9017,-0.7616,-0.6588,-0.6588,-0.5445,-0.4519,-0.4519,-0.4519,-0.4519,-0.4519,-0.4473,-0.4473,-0.4463,-0.4473,-0.4473,-0.4519,-0.4519,-0.4519,-0.4519,-0.4519,-0.4519,-0.4519,-0.4519,-0.4519,-0.4519,-0.5932,-0.6588,-0.6642,-0.8103,-0.8804,-0.8804,-0.8804,-0.8804,-0.8804,-0.8804,-0.8804,-0.8804,-0.8811,-0.9211,-0.9865,-1.0559,-1.1216,-1.1814,-1.1814,-1.2696,-1.3815,-1.3815,-1.419,-1.4698,-1.4698,-1.5096,-1.5588,-1.5588,-1.6008,-1.6522,-1.6522,-1.6522,-1.6637,-1.7146,-1.7761,-1.8472,-1.953,-2.0259,-2.1048,-2.2245,-2.3398,-2.4555,-2.5793,-2.6013,-2.6156,-2.6624,-2.6297,-2.6139,-2.6624,-2.6297,-2.5815,-2.5259,-2.4736,-2.4632,-2.5144,-2.5689,-2.6175,-2.6657,-2.6691,-2.6691,-2.6691,-2.6691,-2.5999,-2.4471,-2.3921,-2.3595,-2.3595,-2.3595,-2.3595,-2.3595,-2.4672,-2.5221,-2.5205,-2.5478,-2.5203,-1.8031,-1.8527,-1.8994,-1.8919,-1.8218,-1.7111,0.0,-1.3663,0.0,-1.034,-0.9674,-0.9051,-0.8168,-0.767,-0.7015,-0.5977,-0.5487,-0.5058,-0.457,-0.4525,-0.4473,-0.4473,-0.4484,-0.4089,-0.301,-0.3855,-0.4477,-0.4473,-0.4522,-0.4519,-0.4519,-0.4519,-0.4736,-0.5164,-0.5218,-0.5437,-0.5991,-0.6912,-0.7396,-0.7402,-0.8315,-0.8804,-0.8804,-0.8804,-0.8804,-0.8804,-0.8804,-0.8804,-0.8857,-0.9316,-0.9917,-1.0618,-1.1747,-1.2628,-1.3273,-1.369,-1.4086,-1.4422,-1.4422,-1.456,-1.4744,-1.5186,-1.5454,-1.5676,-1.6095,-1.638,-1.6595,-1.6951,-1.7076,-1.7271,-1.8185,-1.8803,-1.9382,-2.0123,-2.0682,-2.1627,-2.3681,-2.4385,-2.4985,-2.6251,-2.647,-2.6556,-2.6691,-2.6573,-2.6436,-2.6227,-2.6085,-2.5815,-2.5259,-2.5373,-2.5577,-2.5742,-2.621,-2.6556,-2.6691,-2.6691,-2.6691,-2.6691,-2.6401,-2.5835,-2.4989,-2.4831,-2.4389,-2.3595,-2.3595,-2.3595,-2.3595,-2.4672,-2.5221,-2.5205,-2.5478,-2.549,-1.9259,-1.9645,-1.9901,-1.9432,-1.8792,-1.7691,-1.5325,-1.2982,-1.0939,-0.951,-0.8738,-0.8209,-0.7777,-0.723,-0.6519,-0.5651,-0.5273,-0.4952,-0.4577,-0.4473,-0.4252,-0.3633,-0.4154,-0.3872,-0.2343,-0.251,-0.3166,-0.4287,-0.444,-0.4443,-0.4379,-0.4433,-0.4787,-0.5487,-0.5487,-0.5873,-0.6588,-0.7343,-0.7723,-0.7723,-0.8427,-0.8804,-0.8804,-0.8804,-0.8804,-0.8804,-0.8804,-0.8956,-0.9263,-0.9917,-1.0762,-1.1697,-1.2773,-1.3606,-1.419,-1.456,-1.4835,-1.505,-1.505,-1.5197,-1.5478,-1.582,-1.5952,-1.6008,-1.638,-1.6522,-1.6595,-1.7146,-1.7312,-1.7585,-1.8849,-1.9498,-1.9929,-2.0339,-2.0786,-2.1652,-2.3554,-2.4231,-2.4795,-2.6017,-2.6488,-2.6691,-2.6691,-2.6556,-2.6332,-2.6033,-2.5652,-2.5335,-2.5221,-2.5297,-2.554,-2.5961,-2.6262,-2.6521,-2.6691,-2.6691,-2.6691,-2.6691,-2.6436,-2.5944,-2.5221,-2.4926,-2.4508,-2.3906,-2.3622,-2.3732,-2.4225,-2.4894,-2.5297,-2.5524,-2.5864,-2.5879,-2.0283,-2.0652,-2.0651,-1.9236,-1.8702,-1.769,-1.4529,-1.226,-1.061,-0.9858,-0.8613,-0.767,-0.7503,-0.6416,-0.5492,-0.5433,-0.4897,-0.4525,-0.448,-0.448,-0.3971,-0.2567,-0.3423,-0.354,-0.212,-0.0779,-0.1042,-0.3626,-0.4219,-0.4399,-0.4256,-0.4385,-0.4842,-0.5597,-0.5597,-0.5982,-0.6804,-0.745,-0.7777,-0.783,-0.848,-0.8857,-0.891,-0.8804,-0.8804,-0.8804,-0.8804,-0.9159,-0.9865,-1.0517,-1.1598,-1.287,-1.3616,-1.4236,-1.4789,-1.4835,-1.5186,-1.5676,-1.5676,-1.6051,-1.6522,-1.6522,-1.6522,-1.6522,-1.6522,-1.6522,-1.668,-1.7229,-1.7435,-1.7814,-1.928,-1.9963,-2.0304,-2.04,-2.0797,-2.1407,-2.2534,-2.3389,-2.4281,-2.5392,-2.6201,-2.6691,-2.6691,-2.6332,-2.6049,-2.6013,-2.5105,-2.4576,-2.5128,-2.4776,-2.4871,-2.5815,-2.5924,-2.6104,-2.6539,-2.6573,-2.6573,-2.6573,-2.6573,-2.6123,-2.5182,-2.4489,-2.4144,-2.424,-2.3566,-2.3756,-2.4952,-2.5029,-2.5292,-2.5799,-2.6286,-2.6133,-2.133,-2.1052,-2.0637,-1.9647,-1.7822,-1.5917,-1.4744,-1.2561,-1.045,-0.9207,-0.8283,-0.7337,-0.6195,-0.5882,-0.5572,-0.4857,-0.4591,-0.449,-0.4494,-0.4501,-0.4392,-0.4051,-0.2188,-0.084,-0.0504,-0.0164,-0.0267,-0.0848,-0.299,-0.434,-0.4414,-0.4494,-0.5062,-0.6312,-0.6367,-0.7015,-0.8315,-0.848,-0.8586,-0.8586,-0.8699,-0.9061,-0.9562,-0.9061,-0.8804,-0.8804,-0.8804,-0.9159,-0.9865,-1.0517,-1.1598,-1.2918,-1.4075,-1.4869,-1.5454,-1.592,-1.6207,-1.6293,-1.6293,-1.638,-1.6522,-1.6522,-1.6522,-1.6522,-1.6522,-1.6795,-1.7229,-1.7787,-1.8224,-1.8788,-1.9869,-2.0501,-2.0894,-2.1228,-2.1675,-2.2249,-2.3059,-2.3829,-2.4601,-2.5424,-2.6201,-2.6691,-2.6691,-2.6624,-2.6436,-2.6049,-2.5105,-2.4576,-2.5128,-2.5105,-2.5105,-2.5335,-2.5373,-2.5411,-2.5524,-2.5524,-2.5524,-2.5524,-2.5524,-2.5243,-2.4592,-2.4322,-2.3847,-2.3069,-2.2692,-2.2647,-2.2938,-2.3661,-2.4079,-2.4231,-2.4741,-2.4896,-2.1553,-2.1111,-2.0476,-1.917,-1.6948,-1.5016,-1.4744,-1.2657,-1.0391,-0.8964,-0.7894,-0.6858,-0.5887,-0.5462,-0.4802,-0.3574,-0.3411,-0.3641,-0.4389,-0.3251,-0.1788,-0.0335,0.0559,0.0783,0.0056,-0.0,-0.0,-0.0,-0.1364,-0.284,-0.4261,-0.4462,-0.5124,-0.6534,-0.6588,-0.7289,-0.8804,-0.8804,-0.8804,-0.8804,-0.9113,-0.9614,-1.0269,-0.9917,-0.9562,-0.9309,-0.9614,-0.9961,-1.0364,-1.1349,-1.2522,-1.3773,-1.4767,-1.5511,-1.6051,-1.638,-1.6522,-1.6522,-1.6522,-1.6522,-1.6522,-1.6522,-1.6522,-1.6522,-1.6522,-1.6879,-1.7435,-1.7947,-1.8636,-1.9456,-2.04,-2.0943,-2.1415,-2.1823,-2.2106,-2.2412,-2.2801,-2.3444,-2.4086,-2.4475,-2.5423,-2.6167,-2.6167,-2.6047,-2.5819,-2.5297,-2.4552,-2.4184,-2.4752,-2.4831,-2.491,-2.5182,-2.5221,-2.5221,-2.5221,-2.5221,-2.5221,-2.5221,-2.5221,-2.5051,-2.4776,-2.4435,-2.3957,-2.3389,-2.3128,-2.3106,-2.3365,-2.3587,-2.3819,-2.4079,-2.4365,-2.4506,-2.1381,-2.0639,-1.9622,-1.7862,-1.5985,-1.4514,-1.4411,-1.2512,-1.0383,-0.8833,-0.7564,-0.649,-0.5795,-0.4577,-0.3342,-0.2103,-0.161,-0.1893,-0.3174,-0.1166,0.1394,0.4166,0.3363,0.2122,0.0894,0.0323,-0.0,-0.0,-0.0206,-0.1335,-0.3652,-0.433,-0.5249,-0.6533,-0.673,-0.745,-0.8804,-0.8804,-0.8804,-0.8811,-0.9614,-1.0312,-1.0965,-1.1208,-1.0813,-1.0012,-1.0568,-1.0864,-1.1065,-1.2278,-1.3548,-1.4744,-1.5365,-1.5952,-1.6522,-1.6522,-1.6552,-1.6637,-1.6637,-1.6637,-1.6637,-1.6637,-1.6595,-1.6522,-1.6595,-1.6993,-1.7585,-1.821,-1.9022,-1.9939,-2.0878,-2.1337,-2.1718,-2.218,-2.231,-2.231,-2.231,-2.2885,-2.3393,-2.3393,-2.4594,-2.5642,-2.5778,-2.5478,-2.5089,-2.4752,-2.4074,-2.3794,-2.4348,-2.4307,-2.443,-2.4855,-2.4934,-2.4934,-2.4934,-2.4934,-2.4934,-2.4934,-2.4934,-2.4989,-2.5067,-2.4623,-2.428,-2.404,-2.3699,-2.3685,-2.3995,-2.3649,-2.3681,-2.4133,-2.4133,-2.4133,-2.0939,-1.8928,-1.6696,-1.5452,-1.4538,-1.3768,-1.3215,-1.1886,-1.023,-0.8174,-0.7503,-0.6737,-0.503,-0.2449,-0.0606,-0.0643,0.0601,0.1545,0.1342,0.1643,0.2567,0.4268,0.4327,0.4101,0.3937,0.1532,-0.0,-0.0,-0.0981,-0.173,-0.2106,-0.4097,-0.5575,-0.6401,-0.7178,-0.7937,-0.8804,-0.8804,-0.8804,-0.8804,-1.0064,-1.1015,-1.1715,-1.289,-1.2395,-1.0661,-1.0762,-1.1116,-1.1715,-1.2483,-1.3548,-1.4744,-1.5365,-1.5952,-1.6522,-1.6522,-1.6795,-1.7188,-1.7188,-1.7188,-1.7188,-1.7188,-1.6879,-1.6595,-1.7034,-1.7585,-1.821,-1.9133,-1.9798,-2.04,-2.129,-2.1552,-2.1718,-2.218,-2.231,-2.231,-2.231,-2.2885,-2.3393,-2.3393,-2.4594,-2.5812,-2.6437,-2.579,-2.5335,-2.5742,-2.4552,-2.3794,-2.4348,-2.3991,-2.3709,-2.3794,-2.3794,-2.3794,-2.3794,-2.3794,-2.3794,-2.3794,-2.3794,-2.4032,-2.4511,-2.4854,-2.4648,-2.3784,-2.3161,-2.2549,-2.1999,-2.2316,-2.2524,-2.2598,-2.2598,-2.2598,-1.9101,-1.7263,-1.5652,-1.4413,-1.3982,-1.3616,-1.2966,-1.1414,-0.9695,-0.797,-0.6147,-0.4532,-0.34,-0.285,-0.1445,0.181,0.2998,0.3516,0.3463,0.3492,0.3747,0.4428,0.448,0.448,0.4494,0.2523,0.0604,-0.0907,-0.2143,-0.286,-0.2994,-0.4344,-0.5535,-0.635,-0.6935,-0.7731,-0.8804,-0.8644,-0.9043,-0.9917,-1.0517,-1.1375,-1.2452,-1.3399,-1.2938,-1.1408,-1.2512,-1.2764,-1.2483,-1.3799,-1.4699,-1.5276,-1.5864,-1.6281,-1.6552,-1.6837,-1.7118,-1.7353,-1.7626,-1.7747,-1.7747,-1.7747,-1.7585,-1.7422,-1.7666,-1.8145,-1.865,-1.9089,-1.9904,-2.0781,-2.1181,-2.1645,-2.2032,-2.2237,-2.231,-2.231,-2.231,-2.2564,-2.2919,-2.3325,-2.4255,-2.522,-2.5964,-2.5839,-2.5615,-2.5577,-2.4712,-2.4032,-2.3948,-2.3767,-2.3595,-2.3595,-2.3595,-2.3709,-2.4032,-2.4032,-2.4032,-2.4032,-2.4307,-2.4576,-2.4831,-2.5373,-2.5198,-2.4176,-2.3873,-2.3154,-2.2003,-2.2209,-2.231,-2.231,-2.231,-2.231,-1.7417,-1.6021,-1.5062,-1.3662,-1.3296,-1.3102,-1.232,-1.0771,-0.9068,-0.7788,-0.5046,-0.2646,-0.1779,-0.1953,-0.0778,0.3721,0.4477,0.4484,0.444,0.4457,0.4473,0.4473,0.4522,0.4522,0.4477,0.347,0.1659,-0.1156,-0.2754,-0.3771,-0.4226,-0.4987,-0.5731,-0.6431,-0.7266,-0.8034,-0.8776,-0.8833,-0.9554,-1.0872,-1.1165,-1.1972,-1.3152,-1.3909,-1.3643,-1.2628,-1.4075,-1.4168,-1.3385,-1.5106,-1.5796,-1.5884,-1.66,-1.6909,-1.6951,-1.7353,-1.7585,-1.7747,-1.8185,-1.8302,-1.8302,-1.8302,-1.8288,-1.8274,-1.8288,-1.8736,-1.9259,-1.9383,-2.0249,-2.1181,-2.1291,-2.1811,-2.231,-2.231,-2.231,-2.231,-2.231,-2.231,-2.2581,-2.3494,-2.4133,-2.478,-2.5727,-2.5826,-2.5689,-2.5449,-2.4697,-2.4116,-2.3837,-2.3666,-2.3595,-2.3595,-2.3595,-2.3752,-2.4158,-2.4307,-2.4389,-2.4389,-2.4894,-2.5259,-2.5411,-2.5779,-2.5628,-2.4797,-2.4608,-2.3765,-2.231,-2.231,-2.231,-2.231,-2.231,-2.231,-1.6801,-1.5536,-1.4381,-1.2763,-1.2163,-1.1663,-1.0684,-0.9532,-0.8488,-0.7597,-0.5019,-0.2314,-0.0444,0.2171,0.4097,0.4194,0.4382,0.4416,0.4227,0.4379,0.4519,0.4519,0.4519,0.4522,0.4477,0.4438,0.3134,0.0151,-0.2256,-0.4062,-0.5154,-0.604,-0.6549,-0.6601,-0.8889,-0.9678,-0.8707,-0.9652,-1.0485,-1.1179,-1.2205,-1.3072,-1.3779,-1.4949,-1.5141,-1.456,-1.4663,-1.4652,-1.4687,-1.586,-1.6348,-1.6464,-1.7599,-1.8027,-1.8027,-1.8066,-1.838,-1.8817,-1.8855,-1.8855,-1.8855,-1.8855,-1.8812,-1.8769,-1.8826,-1.9447,-2.0255,-2.0732,-2.1213,-2.1658,-2.2106,-2.2282,-2.231,-2.231,-2.231,-2.231,-2.231,-2.231,-2.2733,-2.4154,-2.4489,-2.498,-2.6387,-2.5875,-2.5411,-2.5888,-2.4632,-2.3837,-2.4307,-2.3921,-2.3595,-2.3595,-2.3595,-2.3595,-2.3638,-2.4116,-2.4389,-2.4389,-2.4894,-2.5411,-2.5941,-2.5977,-2.5878,-2.5542,-2.4847,-2.3765,-2.231,-2.231,-2.231,-2.231,-2.231,-2.231,-1.6237,-1.5192,-1.4165,-1.1885,-1.1571,-1.1334,-0.9664,-0.8964,-0.8281,-0.6727,-0.3536,-0.0441,0.1489,0.4058,0.5749,0.5333,0.5919,0.6204,0.5793,0.5783,0.566,0.5218,0.5164,0.4965,0.4559,0.4485,0.3658,0.1556,-0.0966,-0.3388,-0.5517,-0.6021,-0.6842,-0.8114,-0.9157,-0.963,-0.9404,-1.0285,-1.0886,-1.1283,-1.1945,-1.2658,-1.3303,-1.4182,-1.4589,-1.4689,-1.5496,-1.5654,-1.5365,-1.6532,-1.6995,-1.7037,-1.7814,-1.8106,-1.8145,-1.8496,-1.8727,-1.8968,-1.9281,-1.9406,-1.9479,-1.9722,-1.9798,-1.9818,-2.0147,-2.0452,-2.0749,-2.0959,-2.1275,-2.1658,-2.1794,-2.2061,-2.231,-2.231,-2.231,-2.231,-2.231,-2.231,-2.2598,-2.3596,-2.4201,-2.4702,-2.5363,-2.5595,-2.554,-2.5067,-2.4471,-2.4074,-2.3921,-2.3724,-2.3595,-2.3595,-2.3595,-2.3767,-2.4074,-2.4592,-2.4894,-2.4894,-2.5709,-2.6087,-2.5997,-2.6297,-2.6168,-2.5625,-2.5094,-2.4206,-2.3004,-2.2547,-2.231,-2.231,-2.231,-2.231,-1.6191,-1.5171,-1.4201,-1.21,-1.1554,-1.1006,-0.93,-0.8562,-0.7501,-0.4938,-0.1777,0.1158,0.3473,0.5605,0.6807,0.6232,0.6673,0.6993,0.6647,0.6588,0.6421,0.5923,0.5651,0.5375,0.5011,0.3811,0.2677,0.1664,-0.0912,-0.3507,-0.6056,-0.6301,-0.746,-0.9844,-0.992,-1.0156,-1.0716,-1.1223,-1.1536,-1.1703,-1.2341,-1.2885,-1.3342,-1.4161,-1.466,-1.4942,-1.6091,-1.6493,-1.6453,-1.7598,-1.8168,-1.8335,-1.8844,-1.9082,-1.9119,-1.9477,-1.9585,-1.9636,-1.9823,-2.0015,-2.0139,-2.0246,-2.0516,-2.0781,-2.0959,-2.1197,-2.1385,-2.126,-2.1507,-2.1823,-2.1823,-2.2077,-2.231,-2.231,-2.231,-2.2378,-2.2632,-2.2479,-2.2598,-2.3579,-2.4154,-2.4686,-2.5346,-2.5595,-2.5486,-2.4792,-2.4348,-2.3991,-2.3638,-2.3595,-2.3595,-2.3595,-2.3752,-2.3991,-2.4389,-2.5067,-2.5449,-2.5449,-2.6245,-2.6556,-2.6262,-2.6657,-2.6667,-2.619,-2.5813,-2.509,-2.4104,-2.3079,-2.2598,-2.2598,-2.2598,-2.2544,0.0,0.0,0.0,-1.3472,-1.2016,-1.0574,-0.9572,-0.8311,-0.6256,-0.2231,0.0112,0.2419,0.5449,0.6928,0.7503,0.6804,0.6696,0.6691,0.6745,0.6691,0.6696,0.6691,0.5977,0.564,0.5854,0.2497,0.0295,0.0285,-0.2187,-0.4631,-0.6911,-0.7058,-0.8518,-1.1726,-1.1276,-1.145,-1.2508,-1.2461,-1.243,-1.2441,-1.3493,-1.399,-1.4018,-1.5044,-1.5507,-1.5568,-1.6362,-1.7119,-1.7913,-1.9114,-1.9843,-2.0239,-2.0797,-2.0991,-2.0991,-2.0991,-2.0991,-2.0926,-2.0483,-2.0616,-2.0926,-2.0483,-2.0894,-2.1521,-2.115,-2.1615,-2.2209,-2.1764,-2.1957,-2.231,-2.231,-2.231,-2.231,-2.231,-2.231,-2.2513,-2.3207,-2.2818,-2.275,-2.4222,-2.4523,-2.4949,-2.6437,-2.5855,-2.5221,-2.5182,-2.4266,-2.3638,-2.3638,-2.3638,-2.3638,-2.3638,-2.4116,-2.443,-2.443,-2.5373,-2.6013,-2.6013,-2.6436,-2.6691,-2.6691,-2.7066,-2.7251,-2.7251,-2.6915,-2.6313,-2.5472,-2.3968,-2.3206,-2.3189,-2.3189,-2.3021,-1.7192,0.0,0.0,0.0,0.0,0.0,-0.8744,-0.762,-0.6185,-0.2689,0.1004,0.4519,0.7466,0.777,0.7888,0.8751,0.8915,0.9065,0.957,0.9214,0.8901,0.886,0.7357,0.5942,0.5002,0.2096,-0.0487,-0.234,-0.4164,-0.5964,-0.7721,-0.9464,-1.101,-1.2282,-1.2484,-1.2555,-1.2508,-1.283,-1.283,-1.2492,-1.3453,-1.3928,-1.395,-1.4779,-1.5301,-1.5628,-1.6577,-1.7452,-1.8289,-1.8965,-1.9623,-2.0239,-2.0797,-2.0991,-2.0991,-2.0991,-2.0991,-2.0991,-2.0862,-2.0894,-2.1039,-2.1197,-2.1383,-2.1658,-2.1869,-2.2106,-2.2265,-2.2135,-2.2209,-2.231,-2.231,-2.231,-2.231,-2.231,-2.231,-2.2361,-2.2564,-2.2446,-2.2902,-2.4915,-2.4847,-2.4854,-2.6012,-2.5961,-2.554,-2.4752,-2.4389,-2.4184,-2.4184,-2.4184,-2.4307,-2.4712,-2.491,-2.4973,-2.4973,-2.5615,-2.6013,-2.6013,-2.6436,-2.6691,-2.6691,-2.6553,-2.6429,-2.6429,-2.572,-2.5237,-2.5004,-2.4373,-2.3779,-2.3189,-2.3189,-2.3141,-1.7382,-1.625,-1.4949,-1.3878,0.0,0.0,-0.9162,-0.7545,-0.5824,-0.3154,0.0838,0.4512,0.6594,0.7359,0.8106,0.9518,0.9997,1.0364,1.0771,1.0704,1.0485,1.0214,0.8534,0.69,0.5507,0.2274,-0.1344,-0.5218,-0.561,-0.6551,-0.8504,-1.0826,-1.221,-1.2508,-1.2943,-1.3082,-1.2791,-1.3047,-1.3151,-1.3079,-1.3622,-1.4071,-1.4397,-1.4973,-1.5518,-1.6018,-1.695,-1.7811,-1.8618,-1.9125,-1.9906,-2.0828,-2.136,-2.1612,-2.1681,-2.1598,-2.1554,-2.1524,-2.1323,-2.1385,-2.1554,-2.1598,-2.1718,-2.1928,-2.2209,-2.231,-2.231,-2.231,-2.231,-2.231,-2.231,-2.231,-2.231,-2.231,-2.231,-2.2395,-2.2699,-2.2767,-2.3139,-2.4425,-2.4577,-2.4785,-2.5681,-2.5922,-2.5779,-2.5182,-2.4855,-2.4736,-2.4736,-2.4736,-2.4855,-2.5182,-2.5411,-2.5524,-2.5524,-2.5997,-2.6164,-2.5863,-2.6101,-2.6165,-2.5985,-2.6246,-2.6282,-2.6071,-2.6045,-2.5728,-2.5056,-2.4559,-2.4078,-2.361,-2.3648,-2.3563,-1.7489,-1.6095,0.0,-1.472,-1.343,0.0,-1.0295,-0.8049,-0.5739,-0.3736,-0.0111,0.3011,0.4123,0.6161,0.8112,0.9431,1.0351,1.0965,1.1015,1.1481,1.1621,1.1116,0.9577,0.814,0.6968,0.2751,-0.2216,-0.784,-0.6929,-0.7154,-0.9594,-1.1531,-1.2603,-1.2579,-1.2978,-1.3198,-1.3198,-1.3198,-1.3459,-1.3901,-1.3967,-1.4365,-1.5079,-1.5519,-1.6072,-1.6668,-1.7422,-1.815,-1.8824,-1.9437,-2.0464,-2.1631,-2.2034,-2.2405,-2.2686,-2.2415,-2.231,-2.2237,-2.1823,-2.1957,-2.2237,-2.1794,-2.1974,-2.231,-2.231,-2.231,-2.231,-2.231,-2.231,-2.231,-2.231,-2.231,-2.231,-2.231,-2.231,-2.2496,-2.3139,-2.3274,-2.3291,-2.3376,-2.4052,-2.4847,-2.5609,-2.5914,-2.6049,-2.6013,-2.5512,-2.5201,-2.5281,-2.5233,-2.5201,-2.5357,-2.5799,-2.6085,-2.6085,-2.647,-2.642,-2.5761,-2.5659,-2.5445,-2.5074,-2.5981,-2.632,-2.5835,-2.6859,-2.6686,-2.5274,-2.4538,-2.419,-2.419,-2.4263,-2.41,-1.7596,-1.6654,-1.5788,-1.4902,-1.458,0.0,-1.02,-0.9155,-0.7966,-0.4668,-0.1299,0.1529,0.3176,0.5712,0.7961,0.904,1.0541,1.1823,1.2412,1.256,1.2541,1.251,1.0187,0.8517,0.8317,0.2827,-0.2873,-0.822,-0.9326,-1.0573,-1.2438,-1.2916,-1.3131,-1.3072,-1.3163,-1.3198,-1.3198,-1.3198,-1.3459,-1.3901,-1.4214,-1.4772,-1.5519,-1.6235,-1.6887,-1.7484,-1.7924,-1.8319,-1.8696,-1.9409,-2.0464,-2.1586,-2.1635,-2.2074,-2.2686,-2.2415,-2.231,-2.2282,-2.2209,-2.2209,-2.2282,-2.218,-2.2225,-2.231,-2.231,-2.231,-2.231,-2.231,-2.231,-2.231,-2.231,-2.231,-2.231,-2.231,-2.231,-2.2344,-2.2496,-2.2513,-2.2699,-2.3274,-2.4475,-2.5625,-2.6353,-2.6522,-2.6453,-2.6049,-2.5379,-2.5092,-2.577,-2.5291,-2.5285,-2.6283,-2.6505,-2.6539,-2.6539,-2.6657,-2.664,-2.6488,-2.593,-2.5573,-2.5484,-2.5035,-2.4739,-2.4612,-2.482,-2.474,-2.4428,-2.4281,-2.419,-2.419,-2.421,-2.4172,-1.7949,-1.7033,-1.6206,-1.566,-1.5019,0.0,0.0,-1.0789,-0.946,-0.6759,-0.3357,-0.0361,0.1146,0.4113,0.6777,0.8065,0.9338,1.0532,1.1706,1.2404,1.2686,1.2393,1.0128,0.8622,0.8677,0.284,-0.3335,-0.8933,-1.1481,-1.3148,-1.4034,-1.4075,-1.4029,-1.4007,-1.3474,-1.3198,-1.3198,-1.3198,-1.3547,-1.4214,-1.4554,-1.5257,-1.6208,-1.6793,-1.7452,-1.8156,-1.8333,-1.8547,-1.8843,-1.9309,-2.0292,-2.1507,-2.1503,-2.2086,-2.2898,-2.2453,-2.231,-2.231,-2.231,-2.231,-2.231,-2.231,-2.231,-2.231,-2.231,-2.231,-2.231,-2.231,-2.231,-2.231,-2.231,-2.231,-2.231,-2.231,-2.231,-2.231,-2.231,-2.2598,-2.3071,-2.3799,-2.4847,-2.5775,-2.6356,-2.6602,-2.6674,-2.664,-2.6302,-2.6134,-2.6317,-2.6169,-2.6218,-2.664,-2.6691,-2.6691,-2.6691,-2.6691,-2.6622,-2.6473,-2.5723,-2.5304,-2.5257,-2.4825,-2.4682,-2.4843,-2.4417,-2.419,-2.419,-2.4303,-2.4303,-2.4209,-2.4474,-2.4508,-1.8173,-1.7269,-1.6455,-1.6123,-1.5029,-1.3917,0.0,0.0,0.0,-0.8557,-0.5302,-0.2407,-0.0988,0.2241,0.5106,0.6507,0.7759,0.9032,1.034,1.1635,1.2239,1.1864,0.9758,0.8469,0.8672,0.1606,-0.5132,-1.039,-1.3302,-1.5049,-1.5464,-1.5339,-1.5127,-1.4796,-1.3947,-1.3471,-1.3335,-1.3323,-1.3769,-1.4627,-1.4972,-1.5706,-1.6815,-1.7207,-1.7842,-1.8625,-1.866,-1.8843,-1.9135,-1.9261,-2.0054,-2.1241,-2.1414,-2.2212,-2.323,-2.2607,-2.2388,-2.236,-2.2338,-2.231,-2.231,-2.231,-2.231,-2.231,-2.231,-2.231,-2.231,-2.231,-2.231,-2.231,-2.231,-2.231,-2.231,-2.231,-2.231,-2.231,-2.231,-2.2709,-2.3287,-2.4137,-2.4683,-2.5319,-2.6151,-2.6578,-2.6939,-2.7241,-2.7243,-2.713,-2.6937,-2.7072,-2.713,-2.6954,-2.6939,-2.6939,-2.6939,-2.6939,-2.6842,-2.6556,-2.5623,-2.5077,-2.5021,-2.4789,-2.4838,-2.5162,-2.452,-2.4209,-2.4266,-2.4428,-2.4428,-2.4266,-2.4733,-2.4823,-1.7814,-1.7188,-1.6659,-1.5234,-1.4931,-1.4358,-1.2129,0.0,-1.1126,-0.864,0.0,-0.4209,-0.2607,0.0,0.0,0.4242,0.6844,0.8967,0.9545,1.0417,1.1208,1.1765,0.9329,0.7884,0.8613,-0.2477,-1.0764,-1.3427,-1.4739,-1.6023,-1.7462,-1.7208,-1.6336,-1.4857,-1.466,-1.4348,-1.3835,-1.3835,-1.4214,-1.5043,-1.5374,-1.5973,-1.6815,-1.7389,-1.8069,-1.8769,-1.8895,-1.9166,-1.9513,-1.935,-1.9806,-2.0654,-2.1148,-2.2255,-2.3566,-2.2898,-2.2643,-2.2625,-2.2388,-2.231,-2.231,-2.231,-2.231,-2.231,-2.231,-2.231,-2.231,-2.231,-2.231,-2.231,-2.231,-2.231,-2.231,-2.231,-2.231,-2.231,-2.231,-2.2041,-2.2156,-2.33,-2.3257,-2.3814,-2.6218,-2.6967,-2.7241,-2.7286,-2.7058,-2.7081,-2.7694,-2.7211,-2.7098,-2.7694,-2.7765,-2.7765,-2.7765,-2.7765,-2.7747,-2.7717,-2.6286,-2.5446,-2.5435,-2.4382,-2.4003,-2.4337,-2.4245,-2.4284,-2.4461,-2.4495,-2.4495,-2.4478,-2.4716,-2.4785,-1.8135,-1.795,-1.7851,-1.6581,-1.6054,-1.5556,-1.4554,-1.3647,-1.2638,-1.1146,0.0,0.0,0.0,0.0,0.0,0.0,0.2763,0.4077,0.5218,0.5381,0.6167,0.8133,0.8277,0.6822,0.3345,-0.6044,-1.2104,-1.2592,-1.5238,-1.7289,-1.8374,-1.849,-1.8182,-1.7486,-1.6231,-1.5422,-1.517,-1.477,-1.4805,-1.5389,-1.597,-1.661,-1.7342,-1.7881,-1.8446,-1.9036,-1.9179,-1.9368,-1.9582,-1.9513,-1.9893,-2.0521,-2.0749,-2.1599,-2.2665,-2.2178,-2.2211,-2.2436,-2.2349,-2.231,-2.231,-2.231,-2.231,-2.231,-2.231,-2.231,-2.231,-2.231,-2.231,-2.231,-2.231,-2.231,-2.231,-2.231,-2.231,-2.2225,-2.1957,-2.1957,-2.2204,-2.2862,-2.3056,-2.3644,-2.5415,-2.5837,-2.6184,-2.69,-2.6632,-2.655,-2.7136,-2.7086,-2.7094,-2.7207,-2.7632,-2.7897,-2.7897,-2.7462,-2.728,-2.7486,-2.6189,-2.524,-2.4747,-2.426,-2.4054,-2.4208,-2.4321,-2.4428,-2.4495,-2.4693,-2.479,-2.479,-2.4891,-2.4917,-1.8774,-1.8788,-1.8827,-1.7626,-1.6977,-1.6552,-1.6209,-1.5188,-1.4007,-1.3195,-1.0779,0.0,0.0,0.0,-0.3639,-0.2706,0.0,-0.1218,-0.0102,-0.0198,0.1037,0.4748,0.7289,0.6182,-0.0164,-0.7378,-1.1772,-1.2167,-1.5526,-1.81,-1.933,-1.969,-1.972,-1.9405,-1.7652,-1.6604,-1.6426,-1.5684,-1.5519,-1.593,-1.6636,-1.7221,-1.7737,-1.8332,-1.8835,-1.9251,-1.9447,-1.9588,-1.9688,-1.9636,-1.9876,-2.0292,-2.0202,-2.0735,-2.1544,-2.1604,-2.1892,-2.2234,-2.2281,-2.231,-2.231,-2.231,-2.231,-2.231,-2.231,-2.231,-2.231,-2.231,-2.231,-2.231,-2.231,-2.231,-2.231,-2.231,-2.231,-2.2209,-2.1869,-2.1974,-2.2182,-2.2535,-2.2862,-2.3323,-2.4223,-2.4795,-2.5487,-2.6446,-2.6339,-2.6291,-2.6619,-2.6873,-2.6947,-2.6691,-2.7209,-2.7531,-2.7531,-2.7004,-2.6677,-2.6711,-2.5884,-2.5054,-2.4226,-2.4247,-2.4284,-2.4284,-2.4478,-2.4607,-2.4636,-2.4885,-2.5022,-2.5088,-2.5088,-2.5088,-1.9798,-1.957,-1.9192,-1.7599,-1.7192,-1.6876,-1.578,-1.5472,-1.5093,-1.3928,-1.256,-1.1282,-1.0266,-0.8548,-0.7508,-0.8386,-0.6863,0.0,0.0,-0.545,-0.2952,0.2811,0.6565,0.6381,0.0547,-0.5358,-1.021,-1.3477,-1.5707,-1.8092,-2.0797,-2.0943,-2.048,-1.9421,-1.864,-1.7926,-1.7254,-1.6545,-1.6369,-1.6763,-1.7389,-1.7693,-1.772,-1.8734,-1.9251,-1.941,-1.9681,-1.9869,-1.9973,-1.972,-1.9688,-1.9781,-1.9471,-1.9753,-2.0496,-2.158,-2.2006,-2.2054,-2.2241,-2.231,-2.231,-2.231,-2.231,-2.231,-2.231,-2.231,-2.231,-2.231,-2.231,-2.231,-2.231,-2.231,-2.231,-2.231,-2.231,-2.2282,-2.2282,-2.1928,-2.1764,-2.2214,-2.2215,-2.2286,-2.2695,-2.427,-2.5603,-2.5979,-2.634,-2.6591,-2.6588,-2.6609,-2.6628,-2.6588,-2.6625,-2.6625,-2.6625,-2.6606,-2.6279,-2.5511,-2.5419,-2.5054,-2.4226,-2.4393,-2.4495,-2.4495,-2.4685,-2.4836,-2.4967,-2.4979,-2.5099,-2.5284,-2.5284,-2.5284,-2.0169,-2.0268,-2.015,-1.865,-1.8513,-1.8513,-1.7464,-1.6918,-1.6401,-1.5636,-1.4155,-1.2732,-1.2048,-1.0698,-0.9612,-0.9438,-0.8757,-0.8037,0.0,-0.6497,-0.4956,-0.2258,0.0404,0.0582,-0.3091,-0.9163,-1.324,-1.4082,-1.7192,-1.9497,-2.0438,-2.1526,-2.19,-2.1354,-2.0097,-1.9213,-1.8757,-1.7536,-1.7101,-1.7412,-1.7837,-1.8263,-1.8717,-1.9139,-1.9507,-1.9804,-2.0031,-2.0079,-1.9984,-1.9912,-1.9836,-1.9778,-1.967,-1.9708,-1.9908,-2.0516,-2.1127,-2.1732,-2.2143,-2.231,-2.231,-2.231,-2.231,-2.231,-2.231,-2.231,-2.231,-2.231,-2.231,-2.231,-2.231,-2.231,-2.231,-2.231,-2.231,-2.2209,-2.1899,-2.1974,-2.2073,-2.2164,-2.2351,-2.2678,-2.3259,-2.3884,-2.4513,-2.5167,-2.5124,-2.5259,-2.593,-2.5887,-2.5847,-2.5986,-2.6346,-2.6612,-2.6612,-2.6117,-2.5456,-2.4649,-2.4612,-2.4483,-2.4208,-2.4284,-2.4303,-2.4303,-2.4495,-2.4682,-2.4883,-2.4949,-2.5099,-2.5303,-2.5303,-2.5303,-2.0035,-2.016,-2.0161,-1.9076,-1.933,-1.9584,-1.8666,-1.8337,-1.8029,-1.7397,-1.5683,-1.4176,-1.3814,-1.2357,-1.0998,-1.0511,-1.0065,-0.9486,0.0,-0.7679,-0.6896,-0.5996,-0.4727,-0.4652,-0.6488,-1.2031,-1.5246,-1.4647,-1.7875,-2.0128,-2.0621,-2.1945,-2.2678,-2.2624,-2.1044,-2.0074,-1.9858,-1.837,-1.7721,-1.7864,-1.834,-1.8771,-1.9213,-1.9481,-1.9741,-2.0012,-2.0205,-2.0233,-2.0106,-2.0031,-1.9983,-1.9971,-1.9855,-1.9786,-1.9782,-2.0071,-2.0817,-2.1739,-2.227,-2.2436,-2.2426,-2.2321,-2.231,-2.231,-2.231,-2.231,-2.231,-2.231,-2.231,-2.231,-2.231,-2.231,-2.2321,-2.2426,-2.2436,-2.2392,-2.2214,-2.2412,-2.259,-2.2504,-2.2805,-2.3189,-2.3628,-2.386,-2.4145,-2.4675,-2.4504,-2.4579,-2.5307,-2.5189,-2.5116,-2.5261,-2.5558,-2.575,-2.575,-2.5273,-2.474,-2.4226,-2.419,-2.419,-2.419,-2.4339,-2.4409,-2.4409,-2.4651,-2.4855,-2.4994,-2.5053,-2.5163,-2.5303,-2.5321,-2.5312]},{"header":{"parameterUnit":"m.s-1","parameterCategory":1,"la1":30.6,"la2":29.2853,"lo1":-89.7004,"lo2":-87.6739,"dy":0.0162,"dx":0.0183,"nx":112,"ny":82,"refTime":"2024-07-21T06:00:00:Z","depth":0,"parameterNumber":3,"parameterNumberName":"V-component_of_WINDS"},"data":[0.0,0.0,0.0,0.0,0.0,0.0,0.0,0.0,0.0,0.0,0.0,0.0,0.0,0.0,0.0,0.0,0.0,0.0,0.0,0.0,0.0,0.0,0.0,0.0,0.0,0.0,0.0,0.0,0.0,0.0,0.0,0.0,0.0,0.0,0.0,0.0,0.0,0.0,0.0,0.0,0.0,0.0,0.0,0.0,0.0,0.0,0.0,0.0,0.0,0.0,0.0,0.0,0.0,0.0,0.0,0.0,0.0,0.0,0.0,0.0,0.0,0.0,0.0,0.0,0.0,0.0,0.0,0.0,0.0,0.0,0.0,0.0,0.0,0.0,0.0,0.0,0.0,0.0,0.0,0.0,0.0,0.0,0.0,0.0,0.0,0.0,0.0,0.0,0.0,0.0,-1.444,-1.444,-1.491,-1.5493,-1.6195,-1.6896,-1.7326,-1.739,0.0,0.0,0.0,0.0,0.0,0.0,0.0,0.0,0.0,0.0,0.0,0.0,0.0,0.0,0.0,0.0,0.0,0.0,0.0,0.0,0.0,0.0,0.0,0.0,0.0,0.0,0.0,0.0,0.0,0.0,0.0,0.0,0.0,0.0,0.0,0.0,0.0,0.0,0.0,0.0,0.0,0.0,0.0,0.0,0.0,0.0,0.0,0.0,0.0,0.0,0.0,0.0,0.0,0.0,0.0,0.0,0.0,0.0,0.0,0.0,0.0,0.0,0.0,0.0,0.0,0.0,0.0,0.0,0.0,0.0,0.0,0.0,0.0,0.0,0.0,0.0,0.0,0.0,0.0,0.0,0.0,0.0,0.0,0.0,0.0,0.0,0.0,0.0,0.0,0.0,0.0,0.0,0.0,0.0,0.0,0.0,0.0,0.0,0.0,0.0,0.0,0.0,0.0,0.0,-1.5873,-1.5873,-1.5215,-1.5028,-1.5662,-1.6667,-1.731,-1.7319,0.0,0.0,0.0,0.0,0.0,0.0,0.0,0.0,0.0,0.0,0.0,0.0,0.0,0.0,0.0,0.0,0.0,0.0,0.0,0.0,0.0,0.0,0.0,0.0,0.0,0.0,0.0,0.0,0.0,0.0,0.0,0.0,0.0,0.0,0.0,0.0,0.0,0.0,0.0,0.0,0.0,0.0,0.0,0.0,0.0,0.0,0.0,0.0,0.0,0.0,0.0,0.0,0.0,0.0,0.0,0.0,0.0,0.0,0.0,0.0,0.0,0.0,0.0,0.0,0.0,0.0,0.0,0.0,0.0,0.0,0.0,0.0,0.0,0.0,0.0,0.0,0.0,0.0,0.0,0.0,0.0,0.0,0.0,0.0,0.0,0.0,0.0,0.0,0.0,0.0,0.0,0.0,0.0,0.0,0.0,0.0,0.0,0.0,0.0,0.0,0.0,0.0,0.0,-1.4974,-1.5367,-1.5675,-1.5405,-1.5421,-1.6051,-1.7092,-1.7626,-1.7312,-1.7867,0.0,0.0,0.0,0.0,0.0,0.0,0.0,0.0,0.0,0.0,0.0,0.0,0.0,0.0,0.0,0.0,0.0,0.0,0.0,0.0,0.0,0.0,0.0,0.0,0.0,0.0,0.0,0.0,0.0,0.0,0.0,0.0,0.0,0.0,0.0,0.0,0.0,0.0,0.0,0.0,0.0,0.0,0.0,0.0,0.0,0.0,0.0,0.0,0.0,0.0,0.0,0.0,0.0,0.0,0.0,0.0,0.0,0.0,0.0,0.0,0.0,0.0,0.0,0.0,0.0,0.0,0.0,0.0,0.0,0.0,0.0,0.0,0.0,0.0,0.0,0.0,0.0,0.0,0.0,0.0,0.0,0.0,0.0,0.0,0.0,0.0,0.0,0.0,0.0,0.0,0.0,0.0,0.0,0.0,0.0,0.0,0.0,0.0,0.0,0.0,0.0,0.0,-1.4573,-1.5012,-1.5485,-1.5578,-1.582,-1.6466,-1.7463,-1.7947,-1.7504,-1.8496,0.0,0.0,0.0,0.0,0.0,0.0,0.0,0.0,0.0,0.0,0.0,0.0,0.0,0.0,0.0,0.0,0.0,0.0,0.0,0.0,0.0,0.0,0.0,0.0,0.0,0.0,0.0,0.0,0.0,0.0,0.0,0.0,0.0,0.0,0.0,0.0,0.0,0.0,0.0,0.0,0.0,0.0,0.0,0.0,0.0,0.0,0.0,0.0,0.0,0.0,0.0,0.0,0.0,0.0,0.0,0.0,0.0,0.0,0.0,0.0,0.0,0.0,0.0,0.0,0.0,0.0,0.0,0.0,0.0,0.0,0.0,0.0,0.0,0.0,0.0,0.0,0.0,0.0,0.0,0.0,0.0,0.0,0.0,0.0,0.0,0.0,0.0,0.0,0.0,0.0,0.0,0.0,0.0,0.0,0.0,0.0,0.0,0.0,0.0,0.0,0.0,0.0,-1.5354,-1.6101,-1.6232,-1.583,-1.582,-1.6466,-1.7463,-1.8066,-1.8066,-1.9043,0.0,0.0,0.0,0.0,0.0,0.0,0.0,0.0,0.0,0.0,0.0,0.0,0.0,0.0,0.0,0.0,0.0,0.0,0.0,0.0,0.0,0.0,0.0,0.0,0.0,0.0,0.0,0.0,0.0,0.0,0.0,0.0,0.0,0.0,0.0,0.0,0.0,0.0,0.0,0.0,0.0,0.0,0.0,0.0,0.0,0.0,0.0,0.0,0.0,0.0,0.0,0.0,0.0,0.0,0.0,0.0,0.0,0.0,0.0,0.0,0.0,0.0,0.0,0.0,0.0,0.0,0.0,0.0,0.0,0.0,0.0,0.0,0.0,0.0,0.0,0.0,0.0,0.0,0.0,0.0,0.0,0.0,0.0,0.0,0.0,0.0,0.0,0.0,0.0,0.0,0.0,0.0,0.0,0.0,0.0,0.0,0.0,0.0,0.0,0.0,0.0,0.0,-1.5392,-1.6185,-1.5911,-1.6041,-1.6238,-1.6466,-1.7463,-1.8106,-1.8106,0.0,0.0,0.0,0.0,0.0,0.0,0.0,0.0,0.0,0.0,0.0,0.0,0.0,0.0,0.0,0.0,0.0,0.0,0.0,0.0,0.0,0.0,0.0,0.0,0.0,0.0,0.0,0.0,0.0,0.0,0.0,0.0,0.0,0.0,0.0,0.0,0.0,0.0,0.0,0.0,0.0,0.0,0.0,0.0,0.0,0.0,0.0,0.0,0.0,0.0,0.0,0.0,0.0,0.0,0.0,0.0,0.0,0.0,0.0,0.0,0.0,0.0,0.0,0.0,0.0,0.0,0.0,0.0,0.0,0.0,0.0,0.0,0.0,0.0,0.0,0.0,0.0,0.0,0.0,0.0,0.0,0.0,0.0,0.0,0.0,0.0,0.0,0.0,0.0,0.0,0.0,0.0,0.0,0.0,0.0,0.0,0.0,0.0,0.0,0.0,0.0,0.0,-1.4488,-1.587,-1.6696,-1.5937,-1.6238,-1.6552,-1.6752,-1.7585,-1.8185,-1.8341,0.0,0.0,0.0,0.0,0.0,0.0,0.0,0.0,0.0,0.0,0.0,0.0,0.0,0.0,0.0,0.0,0.0,0.0,0.0,0.0,0.0,0.0,0.0,0.0,0.0,0.0,0.0,0.0,0.0,0.0,0.0,0.0,0.0,0.0,0.0,0.0,0.0,0.0,0.0,0.0,0.0,0.0,0.0,0.0,0.0,0.0,0.0,0.0,0.0,0.0,0.0,0.0,0.0,0.0,0.0,0.0,0.0,0.0,0.0,0.0,0.0,0.0,0.0,0.0,0.0,0.0,0.0,0.0,0.0,0.0,0.0,0.0,0.0,0.0,0.0,0.0,0.0,0.0,0.0,0.0,0.0,0.0,0.0,0.0,0.0,0.0,0.0,0.0,0.0,0.0,0.0,0.0,0.0,0.0,0.0,0.0,0.0,0.0,0.0,0.0,0.0,0.0,-1.5763,-1.711,-1.7765,-1.6635,-1.6522,-1.671,-1.7229,-1.7787,-1.8341,0.0,0.0,0.0,0.0,0.0,0.0,0.0,0.0,0.0,0.0,0.0,0.0,0.0,0.0,0.0,0.0,0.0,0.0,0.0,0.0,0.0,0.0,0.0,0.0,0.0,0.0,0.0,0.0,0.0,0.0,0.0,0.0,0.0,0.0,0.0,0.0,0.0,0.0,0.0,0.0,0.0,0.0,0.0,0.0,0.0,0.0,0.0,0.0,0.0,0.0,0.0,0.0,0.0,0.0,0.0,0.0,0.0,0.0,0.0,0.0,0.0,0.0,0.0,0.0,0.0,0.0,0.0,0.0,0.0,0.0,0.0,0.0,0.0,0.0,0.0,0.0,0.0,0.0,0.0,0.0,0.0,0.0,0.0,0.0,0.0,0.0,0.0,0.0,0.0,0.0,0.0,0.0,0.0,0.0,0.0,0.0,0.0,0.0,0.0,0.0,0.0,0.0,0.0,-1.5671,-1.6778,-1.7338,-1.6597,-1.6522,-1.671,-1.7229,-1.7787,-1.8341,-1.8855,0.0,0.0,0.0,0.0,0.0,0.0,0.0,0.0,0.0,0.0,0.0,0.0,0.0,0.0,0.0,0.0,0.0,0.0,0.0,0.0,0.0,0.0,0.0,0.0,0.0,0.0,0.0,0.0,0.0,0.0,0.0,0.0,0.0,0.0,0.0,0.0,0.0,0.0,0.0,0.0,0.0,0.0,0.0,0.0,0.0,0.0,0.0,0.0,0.0,0.0,0.0,0.0,0.0,0.0,0.0,0.0,0.0,0.0,0.0,0.0,0.0,0.0,0.0,0.0,0.0,0.0,0.0,0.0,0.0,0.0,0.0,0.0,0.0,0.0,0.0,0.0,0.0,0.0,0.0,0.0,0.0,0.0,0.0,0.0,0.0,0.0,0.0,0.0,0.0,0.0,0.0,0.0,0.0,0.0,0.0,0.0,0.0,0.0,0.0,0.0,0.0,0.0,-1.6025,-1.6777,-1.7238,-1.6859,-1.6837,-1.7105,-1.7867,-1.8224,-1.865,-1.9207,0.0,0.0,0.0,0.0,0.0,0.0,0.0,0.0,0.0,0.0,0.0,0.0,0.0,0.0,0.0,0.0,0.0,0.0,0.0,0.0,0.0,0.0,0.0,0.0,0.0,0.0,0.0,0.0,0.0,0.0,0.0,0.0,0.0,0.0,0.0,0.0,0.0,0.0,0.0,0.0,0.0,0.0,0.0,0.0,0.0,0.0,0.0,0.0,0.0,0.0,0.0,0.0,0.0,0.0,0.0,0.0,0.0,0.0,0.0,0.0,0.0,0.0,0.0,0.0,0.0,0.0,0.0,0.0,0.0,0.0,0.0,0.0,0.0,0.0,0.0,0.0,0.0,0.0,0.0,0.0,0.0,0.0,0.0,0.0,0.0,0.0,0.0,0.0,0.0,0.0,0.0,0.0,0.0,0.0,0.0,0.0,0.0,0.0,0.0,0.0,0.0,0.0,-1.6584,-1.6974,-1.7308,-1.7282,-1.7312,-1.7747,-1.8817,-1.8893,-1.9132,-1.969,0.0,0.0,0.0,0.0,0.0,0.0,0.0,0.0,0.0,0.0,0.0,0.0,0.0,0.0,0.0,0.0,0.0,0.0,0.0,0.0,0.0,0.0,0.0,0.0,0.0,0.0,0.0,0.0,0.0,0.0,0.0,0.0,0.0,0.0,0.0,0.0,0.0,0.0,0.0,0.0,0.0,0.0,0.0,0.0,0.0,0.0,0.0,0.0,0.0,0.0,0.0,0.0,0.0,0.0,0.0,0.0,0.0,0.0,0.0,0.0,-2.1766,-2.0994,0.0,0.0,0.0,0.0,0.0,0.0,0.0,0.0,0.0,0.0,0.0,0.0,0.0,0.0,0.0,0.0,0.0,0.0,0.0,0.0,0.0,0.0,0.0,0.0,0.0,0.0,0.0,0.0,0.0,0.0,0.0,0.0,0.0,0.0,0.0,0.0,0.0,0.0,0.0,0.0,-1.6534,-1.6622,-1.685,-1.7242,-1.7312,-1.7747,-1.8817,-1.8893,-1.9132,-1.969,-1.969,0.0,0.0,0.0,0.0,0.0,0.0,0.0,0.0,0.0,0.0,0.0,0.0,0.0,0.0,0.0,0.0,0.0,0.0,0.0,0.0,0.0,0.0,0.0,0.0,0.0,0.0,0.0,0.0,0.0,0.0,0.0,0.0,0.0,0.0,0.0,0.0,0.0,0.0,0.0,0.0,0.0,0.0,0.0,0.0,0.0,0.0,0.0,0.0,0.0,0.0,0.0,0.0,0.0,0.0,0.0,0.0,0.0,0.0,0.0,-2.2914,-2.2103,0.0,0.0,0.0,0.0,0.0,0.0,0.0,0.0,0.0,0.0,0.0,0.0,0.0,0.0,0.0,0.0,0.0,0.0,0.0,0.0,0.0,0.0,0.0,0.0,0.0,0.0,0.0,0.0,0.0,0.0,0.0,0.0,0.0,0.0,0.0,0.0,0.0,0.0,0.0,0.0,-1.6522,-1.6522,-1.6795,-1.7585,-1.7666,-1.8145,-1.9207,-1.9281,-1.9406,-1.969,-1.969,0.0,0.0,0.0,0.0,0.0,0.0,0.0,0.0,0.0,0.0,0.0,0.0,0.0,0.0,0.0,0.0,0.0,0.0,0.0,0.0,0.0,0.0,0.0,0.0,0.0,0.0,0.0,0.0,0.0,0.0,0.0,0.0,0.0,0.0,0.0,0.0,0.0,0.0,0.0,0.0,0.0,0.0,0.0,0.0,0.0,0.0,0.0,0.0,0.0,0.0,0.0,0.0,0.0,-2.577,-2.6078,-2.749,-2.5595,-2.5051,-2.5534,-2.3994,-2.3281,-2.317,-2.2599,0.0,0.0,0.0,0.0,0.0,0.0,0.0,0.0,0.0,0.0,0.0,0.0,0.0,0.0,0.0,0.0,0.0,0.0,0.0,0.0,0.0,0.0,-1.9193,-1.8593,-1.9233,-1.9836,-1.9409,0.0,0.0,0.0,0.0,0.0,0.0,0.0,0.0,0.0,0.0,0.0,-1.6672,-1.6584,-1.6909,-1.7987,-1.8106,-1.8535,-1.9603,-1.969,-1.969,-1.969,-1.969,-1.969,0.0,0.0,0.0,0.0,0.0,0.0,0.0,0.0,0.0,0.0,0.0,0.0,0.0,0.0,0.0,0.0,0.0,0.0,0.0,0.0,0.0,0.0,0.0,0.0,0.0,0.0,0.0,0.0,0.0,0.0,0.0,0.0,-1.8618,-2.038,0.0,0.0,0.0,0.0,0.0,0.0,0.0,0.0,0.0,0.0,0.0,0.0,0.0,-2.5667,-2.6346,-2.6933,-2.7545,-2.8136,-2.7937,-2.7937,-2.8142,-2.6643,-2.6013,-2.6093,-2.5837,0.0,-2.4387,-2.432,0.0,0.0,0.0,0.0,0.0,0.0,0.0,0.0,0.0,0.0,0.0,0.0,0.0,0.0,0.0,0.0,0.0,0.0,0.0,0.0,0.0,0.0,-2.038,-1.9763,-2.0087,-2.0539,-2.0464,-2.0112,-1.9786,-1.971,-1.9698,-1.951,0.0,0.0,0.0,0.0,0.0,0.0,-1.7262,-1.6823,-1.6909,-1.7987,-1.8106,-1.8535,-1.9603,-1.969,-1.969,-1.969,-1.969,-1.969,-1.969,-1.969,0.0,0.0,0.0,0.0,0.0,0.0,0.0,0.0,0.0,0.0,0.0,0.0,0.0,0.0,0.0,0.0,0.0,0.0,0.0,0.0,0.0,0.0,0.0,0.0,0.0,0.0,0.0,0.0,0.0,-1.835,-2.0213,-2.116,-2.1924,-2.2258,0.0,0.0,0.0,0.0,0.0,0.0,0.0,0.0,0.0,-2.6214,-2.6824,-2.748,-2.8126,-2.8426,-2.8646,-2.886,-2.848,-2.844,-2.8659,-2.7238,-2.661,-2.6704,-2.661,-2.6174,-2.5505,-2.5621,-2.5164,-2.4336,0.0,0.0,0.0,0.0,-2.2808,-2.3226,-2.3869,-2.4327,-2.4634,-2.4469,0.0,0.0,0.0,0.0,0.0,0.0,0.0,-2.0555,-2.088,-2.0877,-2.0759,-2.0446,-2.0552,-2.0718,-2.0718,-2.0715,-2.0752,-2.0752,-2.1004,-2.084,-1.966,-1.9459,0.0,0.0,0.0,-1.7841,-1.7841,-1.761,-1.7706,-1.8458,-1.8535,-1.8855,-1.9639,-1.969,-1.969,-1.969,-1.969,-1.969,-1.969,-1.969,-1.969,0.0,0.0,0.0,0.0,0.0,0.0,0.0,0.0,0.0,0.0,0.0,0.0,0.0,0.0,0.0,0.0,0.0,0.0,0.0,0.0,0.0,0.0,0.0,0.0,0.0,0.0,0.0,0.0,-1.9784,-2.1487,-2.1917,-2.323,-2.3864,0.0,0.0,0.0,0.0,0.0,0.0,-2.5304,-2.639,-2.7306,-2.7966,-2.8402,-2.8966,-2.9629,-2.9452,-2.9398,-2.9423,-2.8568,-2.8366,-2.8653,-2.7394,-2.6916,-2.6969,-2.6899,-2.6564,-2.6126,-2.6139,-2.6015,-2.571,-2.4952,-2.479,-2.4888,-2.4369,-2.4482,-2.4995,-2.5427,-2.5914,-2.6288,-2.5959,-2.5482,-2.4809,-2.3705,0.0,0.0,0.0,0.0,-2.1447,-2.1834,-2.1629,-2.1175,-2.0894,-2.0733,-2.065,-2.0492,-2.0878,-2.1317,-2.1455,-2.182,-2.1656,-2.0263,-2.0024,0.0,-1.8756,-1.8513,-1.839,-1.839,-1.8221,-1.8302,-1.8855,-1.8893,-1.9132,-1.9639,-1.969,-1.969,-1.969,-1.969,-1.969,-1.969,-1.969,-1.969,-1.969,0.0,0.0,0.0,0.0,0.0,0.0,0.0,0.0,0.0,0.0,0.0,0.0,0.0,0.0,0.0,0.0,0.0,0.0,0.0,0.0,0.0,0.0,0.0,0.0,0.0,0.0,0.0,0.0,0.0,-2.2617,-2.4358,0.0,0.0,0.0,0.0,-2.545,-2.603,-2.6636,-2.7318,-2.7933,-2.859,-2.9281,-2.9342,-2.9641,-3.0251,-2.956,-2.9497,-3.0053,-2.8547,-2.7838,-2.7823,-2.7063,-2.6708,-2.6708,-2.6708,-2.6452,-2.5967,-2.5627,-2.5805,-2.6226,-2.5078,-2.5015,-2.5553,-2.5506,-2.5506,-2.5568,-2.5597,-2.5612,-2.5749,-2.6348,-2.6108,-2.5444,-2.4801,-2.3677,0.0,0.0,-2.2606,-2.262,-2.2634,-2.2649,-2.2314,-2.1091,-2.0772,-2.0649,-1.999,-2.03,-2.092,-2.1393,-2.1506,-2.1343,-2.0781,0.0,-2.0413,-1.9811,-1.9291,-1.895,-1.895,-1.8478,-1.8302,-1.8855,-1.8893,-1.9132,-1.9639,-1.969,-1.969,-1.969,-1.969,-1.969,-1.969,-1.969,-1.969,-1.969,-1.969,0.0,0.0,0.0,0.0,0.0,0.0,0.0,0.0,0.0,0.0,0.0,0.0,0.0,0.0,0.0,0.0,0.0,0.0,0.0,0.0,0.0,0.0,0.0,0.0,0.0,0.0,0.0,0.0,-2.39,-2.5304,0.0,-2.533,-2.5804,-2.6382,-2.6811,-2.7384,-2.7993,-2.8677,-2.9286,-2.9717,-2.9978,-3.0351,-3.0425,-3.0191,-2.9923,-2.9395,-2.86,-2.8043,-2.7571,-2.708,-2.6826,-2.6691,-2.6691,-2.6691,-2.6624,-2.6383,-2.5609,-2.5456,-2.57,-2.5395,-2.5405,-2.5615,-2.5615,-2.5615,-2.5615,-2.5615,-2.5615,-2.5644,-2.5884,-2.5794,-2.5478,-2.4813,-2.4309,-2.3836,-2.3408,-2.329,-2.329,-2.329,-2.2965,-2.2457,-2.1591,-2.1079,-2.0752,-2.0515,-2.0253,-2.0294,-2.0914,-2.1304,-2.1317,-2.0819,-2.0718,-2.0517,-1.9886,-1.9616,-1.9516,-1.9516,-1.9287,-1.9207,-1.9406,-1.9406,-1.9479,-1.969,-1.969,-1.969,-1.969,-1.969,-1.969,-1.969,-1.969,-1.969,-1.969,-1.969,-1.969,0.0,0.0,0.0,0.0,0.0,0.0,0.0,0.0,0.0,0.0,0.0,0.0,0.0,0.0,0.0,0.0,0.0,0.0,0.0,0.0,0.0,0.0,0.0,0.0,0.0,-2.3216,-2.4559,-2.497,-2.6105,-2.6605,-2.5924,-2.6607,-2.7274,-2.7729,-2.8318,-2.8984,-2.9685,-3.0037,-3.0251,-3.0251,-3.0606,-3.0463,-2.9736,-2.9465,-2.8822,-2.7789,-2.7571,-2.7182,-2.6691,-2.6691,-2.6691,-2.6691,-2.6691,-2.6691,-2.6607,-2.5635,-2.5259,-2.5332,-2.5274,-2.542,-2.5585,-2.536,-2.527,-2.5241,-2.5016,-2.5076,-2.527,-2.527,-2.527,-2.5196,-2.4716,-2.4418,-2.4178,-2.3729,-2.3595,-2.3595,-2.3595,-2.3127,-2.2513,-2.1859,-2.1223,-2.067,-2.0279,-1.9821,-1.9724,-2.04,-2.0733,-2.0803,-2.0439,-2.0376,-2.0343,-2.0156,-1.9934,-1.9855,-2.0059,-1.9895,-1.969,-1.969,-1.969,-1.969,-1.969,-1.969,-1.969,-1.969,-1.969,-1.969,-1.969,-1.969,-1.9603,-1.9442,-1.9244,-1.9169,-1.9169,0.0,0.0,0.0,0.0,0.0,0.0,0.0,0.0,0.0,0.0,0.0,0.0,0.0,0.0,0.0,0.0,0.0,0.0,0.0,0.0,0.0,0.0,0.0,-2.2992,-2.4588,-2.5696,-2.561,-2.6687,-2.7134,-2.6454,-2.7573,-2.8302,-2.8302,-2.8869,-2.9527,-3.0236,-3.0157,-3.0074,-3.0074,-3.0074,-2.9702,-2.8958,-2.8197,-2.7772,-2.7739,-2.7046,-2.6691,-2.6691,-2.6691,-2.6691,-2.6691,-2.6674,-2.6657,-2.6573,-2.5533,-2.5118,-2.5067,-2.4706,-2.4956,-2.5435,-2.4777,-2.4507,-2.4477,-2.3819,-2.4029,-2.4597,-2.4597,-2.4597,-2.4597,-2.4597,-2.4133,-2.3595,-2.3595,-2.3595,-2.3595,-2.358,-2.3131,-2.2527,-2.1845,-2.1169,-2.0401,-1.9311,-1.9054,-1.9225,-1.9887,-1.9933,-1.9825,-1.985,-1.985,-2.0055,-2.0746,-2.0273,0.0,-2.064,-2.0127,-1.969,-1.969,-1.969,-1.969,-1.969,-1.969,-1.969,-1.969,-1.969,-1.969,-1.969,-1.969,-1.9406,-1.8893,-1.838,-1.8106,-1.8066,0.0,0.0,0.0,0.0,0.0,0.0,0.0,0.0,0.0,0.0,0.0,0.0,0.0,0.0,0.0,0.0,0.0,0.0,0.0,0.0,0.0,-2.3274,-2.4282,-2.4802,-2.5705,-2.6366,-2.6348,-2.6962,-2.7134,-2.6454,-2.747,-2.8135,-2.8135,-2.8721,-2.916,-2.9362,-2.9306,-2.9296,-2.9296,-2.9296,-2.8924,-2.8146,-2.7891,-2.7554,-2.6996,-2.6793,-2.6691,-2.6691,-2.6691,-2.6691,-2.6657,-2.6133,-2.5731,-2.5361,-2.4175,-2.348,-2.317,-2.3212,-2.3325,-2.34,-2.2742,-2.2802,-2.332,-2.3941,-2.4322,-2.4518,-2.493,-2.4751,-2.4434,-2.4434,-2.4073,-2.3595,-2.3595,-2.3595,-2.349,-2.3041,-2.2802,-2.2387,-2.1272,-2.0809,-2.0597,-2.0306,-1.9874,-1.9698,-2.04,-2.0525,-2.0664,-2.1116,-2.0818,-2.0733,-2.139,-2.0868,-2.0514,-2.0681,-2.0127,-1.969,-1.969,-1.969,-1.969,-1.969,-1.969,-1.969,-1.969,-1.969,-1.969,-1.969,-1.9332,-1.8855,-1.8341,-1.8185,-1.7907,0.0,0.0,0.0,0.0,0.0,0.0,0.0,0.0,0.0,0.0,0.0,0.0,0.0,0.0,0.0,0.0,0.0,0.0,0.0,0.0,0.0,0.0,-2.3939,-2.4806,-2.551,-2.5944,-2.6264,-2.6485,-2.6762,-2.6816,-2.6646,-2.7424,-2.7956,-2.7956,-2.8286,-2.8636,-2.8958,-2.867,-2.8501,-2.8501,-2.8501,-2.8129,-2.7351,-2.7351,-2.7131,-2.6691,-2.6387,-2.6234,-2.6234,-2.5913,-2.5778,-2.5744,-2.5321,-2.5007,-2.4713,-2.356,-2.2925,-2.2666,0.0,0.0,0.0,0.0,-2.2478,-2.2917,-2.3585,-2.3787,-2.3864,-2.4169,-2.4284,-2.4288,-2.4288,-2.4132,-2.3964,-2.3964,-2.3613,-2.3131,-2.2813,-2.2263,-2.1665,-2.0902,-2.0498,-2.0199,-1.9996,-1.9648,-1.9548,-2.022,-2.0386,0.0,-2.1939,-2.1605,-2.139,-2.2007,-2.131,-2.0821,-2.1097,-2.0294,-1.969,-1.969,-1.969,-1.969,-1.969,-1.969,0.0,0.0,0.0,-1.9244,-1.9043,-1.8496,0.0,0.0,0.0,0.0,0.0,0.0,0.0,0.0,-1.7852,-1.8279,0.0,0.0,0.0,0.0,0.0,0.0,0.0,0.0,0.0,0.0,0.0,0.0,0.0,0.0,0.0,0.0,-2.4251,-2.4912,-2.5498,-2.5499,-2.5622,-2.6209,-2.6267,-2.6421,-2.6749,-2.7336,-2.7689,-2.7689,-2.7689,-2.7994,-2.8687,-2.8061,0.0,0.0,0.0,-2.7368,-2.6708,-2.6623,-2.6573,-2.6573,-2.5828,-2.549,-2.5456,-2.478,-2.4506,-2.4506,-2.4421,-2.4357,-2.4247,-2.3306,-2.2897,-2.2773,-2.1965,-2.185,-2.2121,-2.269,-2.2881,-2.2933,-2.3032,0.0,0.0,-2.317,-2.357,-2.4083,-2.4163,-2.4232,-2.4281,-2.4281,-2.3529,-2.2679,-2.2488,-2.159,-2.0692,-2.0617,-2.0124,-1.9566,-1.9095,-1.9006,-1.9179,-1.9773,-1.9961,-2.0514,-2.2215,-2.2117,-2.2025,-2.2608,-2.1643,-2.1012,-2.1511,-2.0468,-1.969,-1.969,-1.969,0.0,-1.969,-1.969,-1.9479,-1.9006,-1.893,-1.8612,-1.8027,-1.7544,-1.7504,-1.7907,-1.6993,-1.671,-1.7188,-1.671,-1.681,-1.7388,-1.7388,-1.7978,0.0,0.0,0.0,0.0,0.0,0.0,0.0,0.0,0.0,0.0,0.0,0.0,0.0,0.0,0.0,-2.4168,-2.4825,-2.529,-2.5413,-2.4807,-2.4688,-2.5521,-2.6294,-2.6613,-2.6188,-2.6619,-2.6911,-2.6911,-2.6911,-2.6979,-2.7131,-2.6996,-2.6911,-2.6911,-2.6911,-2.6843,-2.6691,-2.6116,-2.5812,-2.5812,-2.5067,0.0,-2.4726,-2.4574,-2.4506,-2.4472,-2.3866,-2.3382,-2.2973,-2.2209,-2.1697,-2.1389,-2.1393,-2.109,-2.0814,-2.1843,-2.2186,-2.2335,-2.3256,-2.3553,-2.3637,-2.4064,-2.4,-2.3898,-2.4486,-2.4111,0.0,-2.3584,-2.3163,-2.2428,-2.1365,-2.0902,-2.0572,-2.0019,-1.9779,-1.969,-1.9566,-1.9566,-1.956,-1.9693,-2.0182,-2.0646,-2.1028,-2.1872,-2.2566,-2.2668,-2.201,-2.1367,-2.0938,-2.0183,-1.969,-1.969,-1.969,-1.969,-1.969,-1.969,-1.9639,-1.9566,-1.9132,-1.8458,-1.7504,-1.7353,-1.7146,-1.6837,-1.6595,-1.6552,-1.6637,-1.6552,-1.681,-1.7388,-1.7388,-1.7978,0.0,0.0,0.0,0.0,0.0,0.0,0.0,0.0,0.0,0.0,0.0,-2.2925,-2.2909,0.0,-2.4389,-2.4389,-2.4608,-2.4744,-2.4744,-2.4249,-2.4216,-2.5016,-2.5236,-2.5436,-2.5763,-2.5664,-2.5896,-2.664,-2.6353,-2.6302,-2.6674,-2.6691,-2.6691,-2.6691,-2.6691,-2.6691,-2.6691,-2.5981,-2.5609,-2.5592,-2.4475,-2.3934,-2.3934,-2.3562,-2.3393,-2.3376,-2.3004,-2.2719,-2.2428,-2.1837,-2.1368,-2.1039,-2.1326,-2.1246,-2.1039,-2.1854,-2.2158,-2.2238,-2.2787,-2.3012,-2.3042,-2.3317,-2.3463,-2.3612,-2.3996,-2.3694,-2.3189,-2.3248,-2.2517,-2.1545,-2.0887,-2.0453,-2.0109,-1.9765,-1.969,-1.969,-1.969,-1.969,-1.969,-1.969,-2.0243,-2.0722,-2.0722,-2.1543,-2.2199,-2.2192,-2.162,-2.1081,-2.0752,-2.0109,-1.969,-1.969,-1.969,-1.969,-1.969,-1.9207,-1.8893,-1.8893,-1.8145,-1.7463,-1.6909,-1.6909,-1.6752,-1.6522,-1.6522,-1.6522,-1.6522,-1.6522,-1.666,-1.6948,-1.6948,-1.7551,0.0,0.0,0.0,0.0,0.0,0.0,0.0,-2.1979,-2.2324,-2.3135,-2.3642,-2.3861,-2.351,-2.4157,-2.4668,-2.4343,-2.4153,-2.4007,-2.4007,-2.3814,-2.3868,-2.448,-2.4133,-2.428,-2.5289,-2.4831,-2.4997,-2.6167,-2.5727,-2.5642,-2.6234,-2.6268,-2.6336,-2.6471,-2.6336,-2.6336,-2.6471,-2.5609,-2.5186,-2.5169,-2.3816,-2.319,-2.3173,-2.2581,-2.231,-2.231,-2.231,-2.231,-2.2282,-2.1899,-2.1538,-2.1291,-2.1598,-2.1735,-2.1794,-2.2163,-2.231,-2.231,-2.231,-2.231,-2.231,-2.231,-2.2699,-2.3207,-2.3359,-2.3191,-2.2999,-2.293,-2.1983,-2.0909,-2.0677,-2.0225,-1.9818,-1.9818,-1.9747,-1.969,-1.969,-1.969,-1.969,-1.969,-2.0139,-2.0513,-2.0513,-2.0946,-2.135,-2.1485,-2.1051,-2.0662,-2.0528,-2.0034,-1.969,-1.969,-1.969,-1.969,-1.969,-1.8893,-1.8341,-1.8106,-1.7312,-1.671,-1.6522,-1.6522,-1.6522,-1.6522,-1.6522,-1.6522,-1.6522,-1.6522,-1.6522,-1.6522,-1.6522,-1.7061,-1.969,-1.9965,-2.0314,-2.0764,-2.0894,-2.1311,0.0,-2.2588,-2.234,-2.3406,-2.3377,-2.3231,-2.36,-2.3455,-2.3343,-2.3714,-2.375,-2.3735,-2.3735,-2.3547,-2.3469,-2.3553,-2.4059,-2.4478,-2.4594,-2.4557,-2.4574,-2.4743,-2.4675,-2.4675,-2.476,-2.476,-2.5033,-2.571,-2.5084,-2.505,-2.5727,-2.434,-2.3646,-2.363,-2.2818,-2.2429,-2.2429,-2.2344,-2.231,-2.231,-2.231,-2.231,-2.2282,-2.2237,-2.2209,-2.2152,-2.2209,-2.2209,-2.2237,-2.2282,-2.231,-2.231,-2.231,-2.231,-2.231,-2.231,-2.2361,-2.2547,-2.319,-2.3031,-2.259,-2.231,-2.2027,-2.1632,-2.0593,-2.0273,-2.0212,-2.0212,-1.9965,-1.969,-1.969,-1.969,-1.969,-1.969,-1.975,-1.9794,-1.9794,-1.9854,-2.0124,-2.0737,-2.0767,-2.0498,-1.9884,-1.9735,-1.969,-1.969,-1.969,-1.969,-1.969,-1.9603,-1.9132,-1.8185,-1.7987,-1.7504,-1.6552,-1.6522,-1.6522,-1.6522,-1.6522,-1.6522,-1.6522,-1.6522,-1.6522,-1.6522,-1.6522,-1.6861,-1.9893,-2.0193,-2.0416,-2.0894,-2.1181,-2.1702,-2.2988,-2.3186,-2.3345,-2.4269,-2.4298,-2.4078,-2.3753,-2.377,-2.3819,-2.372,-2.3585,-2.3524,-2.3524,-2.3089,-2.2767,-2.2767,-2.3038,-2.3376,-2.3816,-2.3613,-2.3727,-2.4438,-2.4279,-2.4257,-2.4489,-2.4506,-2.4659,-2.4949,-2.4675,-2.4659,-2.4949,-2.3917,-2.3393,-2.3393,-2.2649,-2.231,-2.231,-2.231,-2.231,-2.231,-2.231,-2.231,-2.231,-2.231,-2.231,-2.231,-2.231,-2.231,-2.231,-2.231,-2.231,-2.231,-2.231,-2.231,-2.231,-2.231,-2.231,-2.2361,-2.2682,-2.2408,-2.1981,-2.1839,-2.1617,-2.1293,-2.0827,-2.0731,-2.0731,-2.0731,-2.0364,-2.007,-2.007,-1.9874,-1.969,-1.969,-1.969,-1.969,-1.969,-1.969,-1.9794,-2.0079,-2.0124,-2.0019,-1.972,-1.969,-1.969,-1.969,-1.969,-1.969,-1.969,-1.9406,-1.8893,-1.8145,-1.7827,-1.7312,-1.6522,-1.6522,-1.6522,-1.6522,-1.6522,-1.6522,-1.6522,-1.6522,-1.6522,-1.6522,-1.6522,-1.6647,-2.0054,-2.0382,-2.0601,-2.118,-2.1609,-2.2123,-2.301,-2.3456,-2.3868,-2.4381,-2.4448,-2.4162,-2.3536,-2.3664,-2.3776,-2.3385,-2.3184,-2.3105,-2.3105,-2.2649,-2.231,-2.231,-2.2377,-2.2603,-2.3176,-2.2882,-2.302,-2.3829,-2.3687,-2.3674,-2.3879,-2.3883,-2.3985,-2.4201,-2.3985,-2.3985,-2.4201,-2.346,-2.3105,-2.3088,-2.2564,-2.231,-2.231,-2.231,-2.231,-2.231,-2.231,-2.231,-2.231,-2.231,-2.231,-2.231,-2.231,-2.231,-2.231,-2.231,-2.231,-2.231,-2.231,-2.231,-2.231,-2.231,-2.231,-2.231,-2.231,-2.2061,-2.1764,-2.1658,-2.146,-2.1323,-2.1181,-2.115,-2.115,-2.115,-2.0813,-2.0449,-2.0348,-2.0054,-1.9839,-1.9711,-1.969,-1.969,-1.969,-1.969,-1.969,-1.969,-1.969,-1.969,-1.969,-1.969,-1.969,-1.969,-1.969,-1.969,-1.969,-1.9207,-1.865,-1.8145,-1.7585,-1.7076,-1.6522,-1.6522,-1.6522,-1.6522,-1.6522,-1.6522,-1.6522,-1.6522,-1.6522,-1.6522,-1.6522,-1.6522,-2.0177,-2.0616,-2.1165,-2.1898,-2.2388,-2.2772,-2.3129,-2.32,-2.3242,-2.3259,-2.2993,-2.2764,-2.2738,-2.2515,-2.2378,-2.235,-2.2333,-2.2344,-2.2344,-2.2327,-2.231,-2.231,-2.2527,-2.2712,-2.273,-2.2712,-2.259,-2.2389,-2.2588,-2.2624,-2.2378,-2.2378,-2.2699,-2.341,-2.275,-2.2716,-2.3427,-2.2699,-2.2344,-2.2344,-2.2327,-2.231,-2.231,-2.231,-2.231,-2.231,-2.231,-2.231,-2.231,-2.231,-2.231,-2.231,-2.231,-2.231,-2.231,-2.231,-2.231,-2.231,-2.231,-2.231,-2.231,-2.231,-2.231,-2.231,-2.231,-2.2282,-2.218,-2.1735,-2.1928,-2.2152,-2.1688,-2.1582,-2.1582,-2.1582,-2.1275,-2.0862,-2.0416,-2.028,-2.0158,-1.9782,-1.969,-1.969,-1.969,-1.969,-1.969,-1.969,-1.969,-1.969,-1.969,-1.969,-1.969,-1.969,-1.969,-1.969,-1.969,-1.9207,-1.865,-1.8145,-1.7585,-1.7076,-1.6522,-1.6522,-1.6522,-1.6522,-1.6522,-1.6522,-1.6522,-1.6522,-1.6522,-1.6522,-1.6522,-1.6522,-1.9908,-2.0544,-2.1259,-2.2235,-2.26,-2.2848,-2.3392,-2.362,-2.3687,-2.3548,-2.3365,-2.3106,-2.278,-2.2473,-2.231,-2.231,-2.231,-2.236,-2.2537,-2.2563,-2.2669,-2.2857,-2.3445,-2.3819,-2.3819,-2.3344,-2.3125,-2.3347,-2.3446,-2.3364,-2.3067,-2.3038,-2.2919,-2.2682,-2.2446,-2.2429,-2.2682,-2.2429,-2.231,-2.231,-2.231,-2.231,-2.231,-2.231,-2.231,-2.231,-2.231,-2.231,-2.231,-2.231,-2.231,-2.231,-2.231,-2.231,-2.231,-2.231,-2.231,-2.231,-2.231,-2.231,-2.231,-2.231,-2.231,-2.231,-2.231,-2.231,-2.2282,-2.2106,-2.218,-2.2254,-2.2106,-2.2061,-2.2061,-2.2061,-2.1735,-2.1368,-2.1197,-2.0699,-2.0246,-2.0124,-1.9874,-1.969,-1.969,-1.969,-1.969,-1.969,-1.969,-1.969,-1.969,-1.969,-1.969,-1.969,-1.969,-1.969,-1.969,-1.953,-1.9207,-1.865,-1.8458,-1.7947,-1.7076,-1.7034,-1.6879,-1.6522,-1.6522,-1.6522,-1.6522,-1.6522,-1.6522,-1.6522,-1.6522,-1.6522,-2.0067,-2.0655,-2.124,-2.2203,-2.2681,-2.2975,-2.3371,-2.3762,-2.4023,-2.3899,-2.3723,-2.3436,-2.2954,-2.2643,-2.2398,-2.231,-2.231,-2.236,-2.2537,-2.2634,-2.2902,-2.3425,-2.4122,-2.4628,-2.4772,-2.4322,-2.4101,-2.4299,-2.4296,-2.4035,-2.3439,-2.3393,-2.3054,-2.2327,-2.231,-2.231,-2.231,-2.231,-2.231,-2.231,-2.231,-2.231,-2.231,-2.231,-2.231,-2.231,-2.231,-2.231,-2.231,-2.231,-2.231,-2.231,-2.231,-2.231,-2.231,-2.231,-2.231,-2.231,-2.231,-2.231,-2.231,-2.231,-2.231,-2.231,-2.231,-2.231,-2.231,-2.231,-2.231,-2.231,-2.231,-2.231,-2.231,-2.231,-2.2077,-2.1794,-2.1658,-2.1039,-2.0516,-2.0348,-1.9965,-1.969,-1.969,-1.969,-1.969,-1.969,-1.969,-1.969,-1.969,-1.969,-1.969,-1.969,-1.969,-1.969,-1.969,-1.953,-1.9207,-1.865,-1.8419,-1.7947,-1.7034,-1.6993,-1.6837,-1.6522,-1.6522,-1.6522,-1.6522,-1.6522,-1.6522,-1.6522,-1.6522,-1.6522,-2.0426,-2.0831,-2.1059,-2.1729,-2.2488,-2.3066,-2.3012,-2.3584,-2.4154,-2.419,-2.3937,-2.361,-2.3259,-2.2958,-2.2677,-2.24,-2.2361,-2.2389,-2.2417,-2.2581,-2.305,-2.3903,-2.4563,-2.5098,-2.5514,-2.5569,-2.5491,-2.5279,-2.512,-2.4574,-2.3524,-2.346,-2.3105,-2.2327,-2.231,-2.231,-2.231,-2.231,-2.231,-2.231,-2.231,-2.231,-2.231,-2.231,-2.231,-2.231,-2.231,-2.231,-2.231,-2.231,-2.231,-2.231,-2.231,-2.231,-2.231,-2.231,-2.231,-2.231,-2.231,-2.231,-2.231,-2.231,-2.231,-2.231,-2.231,-2.231,-2.231,-2.231,-2.231,-2.231,-2.231,-2.231,-2.231,-2.231,-2.231,-2.218,-2.1688,-2.1275,-2.0862,-2.0382,-1.9965,-1.969,-1.969,-1.969,-1.969,-1.969,-1.969,-1.969,-1.969,-1.969,-1.969,-1.969,-1.969,-1.969,-1.969,-1.9244,-1.8727,-1.8224,-1.7706,-1.7188,-1.6637,-1.6595,-1.6552,-1.6552,-1.6522,-1.6522,-1.6522,-1.6522,-1.6522,-1.6522,-1.6522,-1.6522,-1.7684,-1.8652,-1.9621,-2.0331,-2.1004,-2.1686,-2.2526,-2.3125,-2.3652,-2.4099,-2.4059,-2.3769,-2.3305,-2.343,-2.3495,-2.3163,-2.3335,-2.3549,-2.3763,-2.3602,-2.3616,-2.4085,-2.4796,-2.5552,-2.6249,-2.658,-2.7007,-2.7521,-2.6236,-2.5077,-2.4269,-2.4205,-2.363,-2.2344,-2.231,-2.231,-2.231,-2.231,-2.231,-2.231,-2.231,-2.231,-2.231,-2.231,-2.231,-2.231,-2.231,-2.231,-2.231,-2.231,-2.231,-2.231,-2.231,-2.231,-2.231,-2.231,-2.231,-2.231,-2.231,-2.231,-2.231,-2.231,-2.231,-2.231,-2.231,-2.231,-2.231,-2.231,-2.231,-2.231,-2.231,-2.231,-2.231,-2.231,-2.231,-2.218,-2.1688,-2.1275,-2.0862,-2.0382,-1.9965,-1.969,-1.969,-1.969,-1.969,-1.969,-1.969,-1.969,-1.969,-1.969,-1.969,-1.969,-1.969,-1.969,-1.969,-1.9566,-1.9442,-1.9281,-1.9169,-1.8855,-1.8302,-1.7907,-1.7504,-1.7118,-1.671,-1.6522,-1.6522,-1.6522,-1.6522,-1.6522,-1.6522,-1.6522,-1.6635,-1.7624,-1.8562,-1.9286,-2.025,-2.1166,-2.19,-2.2793,-2.3603,-2.4098,-2.402,-2.3726,-2.3282,-2.3562,-2.3788,-2.3451,-2.3551,-2.377,-2.4086,-2.375,-2.3754,-2.4429,-2.5047,-2.5654,-2.6289,-2.6524,-2.6788,-2.7084,-2.633,-2.5535,-2.4795,-2.4292,-2.3477,-2.2344,-2.231,-2.231,-2.231,-2.231,-2.231,-2.231,-2.231,-2.231,-2.231,-2.231,-2.231,-2.231,-2.231,-2.231,-2.231,-2.231,-2.236,-2.249,-2.249,-2.2571,-2.2686,-2.2686,-2.2607,-2.249,-2.249,-2.2415,-2.231,-2.231,-2.231,-2.231,-2.231,-2.231,-2.231,-2.231,-2.231,-2.231,-2.231,-2.231,-2.231,-2.231,-2.231,-2.218,-2.1688,-2.1275,-2.0797,-2.0158,-1.9839,-1.969,-1.969,-1.969,-1.969,-1.969,-1.969,-1.9794,-2.0094,-2.0139,-2.0243,-2.0543,-2.0572,-2.0572,-2.0572,-2.0572,-2.0482,-2.0239,-1.9753,-1.918,-1.8653,-1.7842,-1.7271,-1.6951,-1.6637,-1.6522,-1.6522,-1.6522,-1.6522,-1.6522,-1.6522,-1.6522,-1.6197,-1.6934,-1.7517,-1.8284,-1.9639,-2.0879,-2.1141,-2.2383,-2.3587,-2.4037,-2.3876,-2.3544,-2.3236,-2.3562,-2.3788,-2.3451,-2.3464,-2.3619,-2.3908,-2.358,-2.3705,-2.4689,-2.5056,-2.5408,-2.5886,-2.5917,-2.5835,-2.5656,-2.5893,-2.5714,-2.5025,-2.4047,-2.3153,-2.2366,-2.2338,-2.2338,-2.2332,-2.2332,-2.2332,-2.2332,-2.2332,-2.2321,-2.231,-2.231,-2.231,-2.231,-2.231,-2.2321,-2.2332,-2.2332,-2.2473,-2.2695,-2.2695,-2.2848,-2.3087,-2.3087,-2.289,-2.2634,-2.2634,-2.25,-2.231,-2.231,-2.231,-2.231,-2.231,-2.231,-2.231,-2.231,-2.231,-2.231,-2.231,-2.2237,-2.2209,-2.2209,-2.218,-2.2003,-2.1521,-2.1118,-2.0599,-1.9854,-1.975,-1.9824,-1.9824,-1.9824,-1.9824,-1.9824,-1.975,-1.9959,-2.0752,-2.0767,-2.0976,-2.162,-2.1695,-2.1695,-2.1695,-2.1695,-2.152,-2.1044,-1.9863,-1.9003,-1.8555,-1.7303,-1.6595,-1.6595,-1.6552,-1.6522,-1.6522,-1.6522,-1.6522,-1.6522,-1.6522,-1.6522,-1.406,-1.4861,-1.561,-1.6507,-1.7995,-1.9389,-2.0065,-2.1313,-2.258,-2.3587,-2.3522,-2.3259,-2.3212,-2.3562,-2.3788,-2.3451,-2.3808,-2.4173,-2.4224,-2.4109,-2.4091,-2.4295,-2.4372,-2.4702,-2.5431,-2.5505,-2.5756,-2.637,-2.5605,-2.4902,-2.4443,-2.4243,-2.3693,-2.2669,-2.2426,-2.2415,-2.2634,-2.2634,-2.2634,-2.2634,-2.2634,-2.2527,-2.231,-2.231,-2.231,-2.231,-2.231,-2.2426,-2.2634,-2.2634,-2.266,-2.2695,-2.2695,-2.2616,-2.247,-2.247,-2.2415,-2.236,-2.236,-2.2349,-2.231,-2.231,-2.231,-2.231,-2.231,-2.231,-2.231,-2.231,-2.231,-2.231,-2.231,-2.2003,-2.1718,-2.1718,-2.1477,-2.1086,-2.0649,-2.0193,-1.9889,-1.9726,-2.0154,-2.0543,-2.0543,-2.0543,-2.0543,-2.0543,-2.0049,-2.0124,-2.1365,-2.1051,-2.0976,-2.162,-2.1695,-2.1695,-2.1695,-2.1695,-2.1655,-2.156,-2.0433,-1.9712,-1.9632,-1.8031,-1.7146,-1.7146,-1.671,-1.6522,-1.6522,-1.6522,-1.6522,-1.6522,-1.6522,-1.6522,-1.2777,-1.3513,-1.4359,-1.6039,-1.7543,-1.893,-2.0229,-2.1618,-2.2833,-2.3538,-2.3566,-2.3414,-2.3212,-2.3562,-2.3788,-2.3451,-2.3798,-2.4279,-2.4855,-2.4721,-2.4616,-2.4814,-2.4814,-2.4795,-2.4777,-2.4777,-2.4942,-2.5328,-2.4839,-2.4556,-2.4617,-2.4058,-2.3407,-2.2738,-2.259,-2.25,-2.25,-2.25,-2.2563,-2.2695,-2.2563,-2.25,-2.25,-2.236,-2.231,-2.231,-2.231,-2.2436,-2.2695,-2.2695,-2.2923,-2.3212,-2.3212,-2.3135,-2.3025,-2.3025,-2.2798,-2.25,-2.2561,-2.246,-2.231,-2.231,-2.231,-2.231,-2.231,-2.231,-2.231,-2.231,-2.231,-2.231,-2.231,-2.1957,-2.1582,-2.1582,-2.1102,-2.0583,-2.0348,-2.0254,-2.0228,-2.0228,-2.0767,-2.1231,-2.1231,-2.0932,-2.0722,-2.0722,-2.0124,-2.0049,-2.1051,-2.1201,-2.1605,-2.2577,-2.2682,-2.2682,-2.2682,-2.2682,-2.2682,-2.2682,-2.1603,-2.0804,-2.0431,-1.8741,-1.7657,-1.7325,-1.7034,-1.6795,-1.6522,-1.6795,-1.6752,-1.6522,-1.6522,-1.6522,-1.2164,-1.2801,-1.3635,-1.592,-1.7501,-1.8917,-2.0445,-2.1962,-2.3189,-2.3522,-2.3588,-2.3522,-2.3236,-2.3447,-2.3529,-2.3214,-2.3629,-2.4313,-2.5163,-2.5267,-2.5372,-2.5619,-2.5513,-2.5164,-2.452,-2.43,-2.419,-2.419,-2.419,-2.4348,-2.4741,-2.3822,-2.3189,-2.2923,-2.2848,-2.2704,-2.248,-2.248,-2.2554,-2.2695,-2.249,-2.25,-2.2712,-2.249,-2.2415,-2.248,-2.248,-2.2643,-2.2923,-2.2923,-2.3212,-2.3692,-2.3692,-2.3671,-2.3588,-2.3522,-2.3141,-2.2695,-2.2686,-2.2525,-2.231,-2.231,-2.231,-2.231,-2.231,-2.231,-2.231,-2.231,-2.231,-2.231,-2.231,-2.1957,-2.1552,-2.1352,-2.0732,-2.0189,-2.0343,-2.0561,-2.0722,-2.0722,-2.1246,-2.165,-2.1515,-2.1171,-2.0872,-2.0737,-2.0258,-2.0094,-2.0647,-2.1171,-2.1919,-2.3071,-2.331,-2.334,-2.3206,-2.3191,-2.3148,-2.3048,-2.1959,-2.0998,-2.0372,-1.8762,-1.7646,-1.7118,-1.7105,-1.6909,-1.6522,-1.6909,-1.6909,-1.6522,-1.6522,-1.6423,-1.2384,-1.2974,-1.3529,-1.5631,-1.7562,-1.9154,-1.9925,-2.1463,-2.2848,-2.3165,-2.3253,-2.3253,-2.3212,-2.2975,-2.2729,-2.2451,-2.3493,-2.4392,-2.4488,-2.562,-2.6442,-2.6502,-2.5841,-2.5384,-2.5311,-2.463,-2.419,-2.419,-2.419,-2.4226,-2.4261,-2.3891,-2.3649,-2.361,-2.3305,-2.3141,-2.3135,-2.3135,-2.2972,-2.2695,-2.2686,-2.2704,-2.279,-2.2704,-2.2822,-2.3135,-2.3135,-2.33,-2.361,-2.361,-2.3631,-2.3692,-2.3692,-2.3522,-2.3212,-2.2898,-2.2746,-2.266,-2.2426,-2.2338,-2.231,-2.231,-2.231,-2.231,-2.231,-2.231,-2.231,-2.231,-2.231,-2.231,-2.231,-2.1957,-2.1399,-2.0601,-2.007,-1.9927,-2.052,-2.0662,-2.0722,-2.0722,-2.1246,-2.1515,-2.0917,-2.1261,-2.1395,-2.0797,-2.0662,-2.0647,-2.0707,-2.0767,-2.1081,-2.1799,-2.2398,-2.2517,-2.1919,-2.1874,-2.1643,-2.1162,-2.0033,-1.91,-1.8551,-1.7338,-1.6658,-1.6552,-1.6552,-1.6552,-1.6522,-1.6552,-1.6552,-1.6522,-1.6522,-1.6194,-1.2974,-1.379,-1.4615,-1.7055,-1.8809,-2.0146,-2.1052,-2.2315,-2.3346,-2.3459,-2.3671,-2.3735,-2.3544,-2.323,-2.2898,-2.259,-2.3024,-2.371,-2.4699,-2.5667,-2.6441,-2.6913,-2.6469,-2.5933,-2.5458,-2.4667,-2.419,-2.419,-2.419,-2.419,-2.419,-2.4074,-2.3917,-2.3714,-2.3566,-2.3392,-2.3189,-2.3189,-2.3236,-2.33,-2.3093,-2.3135,-2.3318,-2.3111,-2.3069,-2.3189,-2.3189,-2.3392,-2.3692,-2.3692,-2.3816,-2.3976,-2.3774,-2.35,-2.3165,-2.2822,-2.2599,-2.2436,-2.2349,-2.231,-2.231,-2.231,-2.231,-2.231,-2.231,-2.231,-2.231,-2.231,-2.231,-2.231,-2.231,-2.1957,-2.1383,-2.0501,-2.0193,-2.0198,-2.0595,-2.0722,-2.0842,-2.1231,-2.1515,-2.162,-2.135,-2.1201,-2.1021,-2.0752,-2.0363,-2.0094,-2.0094,-2.0453,-2.0662,-2.0498,-2.144,-2.1979,-2.1724,-2.1385,-2.1126,-2.0905,-2.0147,-1.9446,-1.8809,-1.7988,-1.7385,-1.6993,-1.6993,-1.6837,-1.6522,-1.6837,-1.7016,-1.7036,-1.6565,-1.6269,-1.3725,-1.4828,-1.5921,-1.8477,-2.0025,-2.1174,-2.2186,-2.3186,-2.3866,-2.3803,-2.4058,-2.4172,-2.3756,-2.3414,-2.3093,0.0,-2.3102,-2.3796,-2.4934,-2.6081,-2.6983,-2.75,-2.7182,-2.6631,-2.5823,-2.4814,-2.419,-2.419,-2.419,-2.419,-2.419,-2.419,-2.4094,-2.3876,-2.3855,-2.3692,-2.3346,-2.3346,-2.3414,-2.3544,-2.3305,-2.3369,-2.3692,-2.3477,-2.3392,-2.35,-2.35,-2.3628,-2.3855,-2.3855,-2.3996,-2.417,-2.3937,-2.3631,-2.3323,-2.2972,-2.2652,-2.2415,-2.2321,-2.231,-2.231,-2.231,-2.231,-2.231,-2.231,-2.231,-2.231,-2.231,-2.231,-2.231,-2.231,-2.1957,-2.143,-2.0682,-2.0416,-2.0377,-2.0633,-2.0722,-2.0857,-2.1321,-2.1395,-2.1395,-2.1395,-2.1186,-2.0855,-2.0531,-2.0226,-1.9849,-1.9302,-1.9616,-1.9733,-1.9302,-2.0079,-2.0754,-2.1096,-2.0636,-2.0246,-2.0084,-1.9573,-1.8986,-1.8341,-1.7962,-1.7565,-1.7076,-1.7076,-1.6879,-1.6522,-1.682,-1.7024,-1.7045,-1.648,-1.6145,-1.4682,-1.5951,-1.7234,-1.9507,-2.0994,-2.2111,-2.3001,-2.3768,-2.4239,-2.4044,-2.4264,-2.4338,-2.3798,-2.3414,-2.3093,-2.2746,-2.4049,-2.5073,-2.509,-2.7006,-2.8384,-2.8402,-2.8044,-2.7475,-2.6667,-2.5144,-2.419,-2.419,-2.419,-2.419,-2.419,-2.419,-2.419,-2.419,-2.419,-2.4036,-2.3692,-2.3692,-2.3522,-2.3212,-2.3189,-2.3369,-2.3692,-2.3692,-2.3876,-2.419,-2.419,-2.419,-2.419,-2.419,-2.4208,-2.419,-2.4208,-2.3996,-2.3649,-2.3323,-2.2972,-2.266,-2.2388,-2.231,-2.231,-2.231,-2.231,-2.231,-2.231,-2.231,-2.231,-2.231,-2.231,-2.231,-2.231,-2.1957,-2.1491,-2.1086,-2.0616,-2.0377,-2.0633,-2.0722,-2.0722,-2.0722,-2.0722,-2.0722,-2.0722,-2.1261,-2.1282,-2.0107,-2.0445,-2.021,-1.8377,-1.8106,-1.8106,-1.8145,-1.8145,-1.8549,-1.9632,-1.9221,-1.8703,-1.8159,-1.7652,-1.7089,-1.6565,-1.6522,-1.6522,-1.6522,-1.6522,-1.6522,-1.6522,-1.6387,-1.6326,-1.6303,-1.609,-1.5658,-1.7229,-1.8429,-1.9465,-2.1558,-2.2835,-2.3687,-2.402,-2.4364,-2.4629,-2.4557,-2.4532,-2.4461,-2.4265,-2.3681,-2.3342,-2.3724,-2.387,-2.4396,-2.5675,-2.6672,-2.7567,-2.8322,-2.7547,-2.6447,-2.5089,-2.4502,-2.419,-2.419,-2.419,-2.419,-2.419,-2.419,-2.419,-2.419,-2.419,-2.4151,-2.4036,-2.4036,-2.3996,-2.3896,-2.3896,-2.3937,-2.4036,-2.4036,-2.4094,-2.419,-2.419,-2.419,-2.419,-2.419,-2.419,-2.417,-2.3955,-2.3795,-2.3671,-2.3305,-2.2996,-2.2695,-2.2599,-2.2436,-2.231,-2.231,-2.231,-2.231,-2.231,-2.231,-2.231,-2.231,-2.2077,-2.1823,-2.1823,-2.1507,-2.1086,-2.0616,-2.0416,-2.0377,-2.0633,-2.0348,-2.0028,-2.0128,-2.0463,-2.0463,-1.9603,-2.0321,-2.0619,-1.9404,-1.9391,-1.9182,-1.8242,-1.8106,-1.8106,-1.8106,-1.8106,-1.8263,-1.8574,-1.8106,-1.7747,-1.7544,-1.7034,-1.668,-1.6522,-1.6522,-1.6522,-1.6522,-1.6522,-1.6293,-1.5908,-1.6158,-1.615,-1.5888,-1.5923,-1.5685,-1.9339,-2.0242,-2.1275,-2.3161,-2.417,-2.4734,-2.4861,-2.4953,-2.4968,-2.4835,-2.4714,-2.4578,-2.4409,-2.3741,-2.3454,-2.4184,-2.4143,-2.4562,-2.6021,-2.6894,-2.7592,-2.8118,-2.698,-2.575,-2.474,-2.4373,-2.419,-2.419,-2.419,-2.419,-2.419,-2.419,-2.419,-2.419,-2.419,-2.419,-2.419,-2.419,-2.419,-2.419,-2.419,-2.419,-2.419,-2.419,-2.419,-2.419,-2.419,-2.419,0.0,-2.419,-2.419,-2.417,-2.3976,-2.3735,-2.35,-2.3277,-2.2915,-2.2537,-2.2537,-2.2453,-2.231,-2.231,-2.231,-2.231,-2.231,-2.218,-2.2032,-2.2032,-2.1735,-2.1368,-2.1368,-2.1181,-2.0894,-2.0416,-2.0314,-2.03,-2.0339,-1.9827,-1.9486,-1.9782,-1.9937,-1.9921,-1.9668,-2.0229,-2.0357,-1.9133,-1.8965,-1.8625,-1.761,-1.7504,-1.7504,-1.7504,-1.7504,-1.7504,-1.7504,-1.7394,-1.7312,-1.7312,-1.6795,-1.6522,-1.6522,-1.6522,-1.6522,-1.6522,-1.6281,-1.5964,-1.5588,-1.5567,-1.5502,-1.5375,-1.5246,-1.5089,0.0,-2.1635,-2.2716,-2.4336,-2.4974,-2.529,-2.5457,-2.5446,0.0,-2.4903,-2.4785,-2.4639,-2.4302,-2.3667,-2.349,-2.4343,-2.4857,-2.5425,-2.6231,-2.7504,-2.8209,-2.7787,-2.6358,-2.5384,-2.5349,-2.465,-2.419,-2.419,-2.419,-2.419,-2.419,-2.419,-2.419,-2.419,-2.419,-2.419,-2.419,-2.419,-2.419,-2.419,-2.419,-2.419,-2.419,-2.419,-2.419,-2.419,-2.419,-2.419,-2.419,-2.419,-2.419,-2.419,-2.419,-2.3816,-2.3259,-2.3259,-2.29,-2.2349,-2.2349,-2.2338,-2.231,-2.231,-2.231,-2.231,-2.231,-2.1957,-2.1582,-2.1582,-2.1275,-2.0959,-2.0959,-2.0974,-2.0876,-2.0426,-2.0354,-2.0281,-1.9822,-1.9317,-1.9085,-1.9515,-1.9251,-1.9318,-2.0407,-2.0658,-2.0256,-1.9106,-1.8942,-1.8299,-1.669,-1.6522,-1.6522,-1.6522,-1.6522,-1.6522,-1.6522,-1.6909,-1.7188,-1.7188,-1.6655,-1.638,-1.6423,-1.6423,-1.6423,-1.6423,-1.582,-1.549,-1.556,-1.4725,-1.446,-1.4727,-1.4326,-1.4077,-2.3652,0.0,-2.3822,-2.4841,-2.5299,-2.5493,0.0,-2.5369,-2.5197,-2.505,-2.4579,-2.4321,-2.4792,-2.3952,-2.3844,-2.5809,-2.5747,-2.5977,-2.7647,-2.7931,-2.7732,-2.7172,-2.6091,-2.5224,-2.4762,-2.4395,-2.419,-2.419,-2.419,-2.419,-2.419,-2.419,-2.419,-2.419,-2.419,-2.419,-2.419,-2.419,-2.419,-2.419,-2.419,-2.419,-2.419,-2.419,-2.419,-2.419,-2.419,-2.419,-2.419,-2.419,-2.419,-2.419,-2.419,-2.4094,-2.3958,-2.3958,-2.3562,-2.2989,-2.2989,-2.2686,-2.231,-2.231,-2.231,-2.231,-2.231,-2.1957,-2.1582,-2.1582,-2.1039,-2.0449,-2.0449,-2.0628,-2.0749,-2.0639,-2.0994,-2.109,-2.007,-1.9773,-1.9447,-1.8725,-1.9135,-1.9418,-1.8684,-1.9041,-1.8996,-1.775,-1.7262,-1.6921,-1.6554,-1.6522,-1.6522,-1.6522,-1.6522,-1.6522,-1.6522,-1.617,-1.6015,-1.6015,-1.5454,-1.5332,-1.5776,-1.582,-1.582,-1.582,-1.4778,-1.4547,-1.5193,-1.4205,-1.3915,-1.4277,-1.4126,-1.4077,-2.4704,-2.4632,-2.4527,-2.5213,-2.549,-2.5582,-2.5553,0.0,0.0,0.0,0.0,-2.4096,-2.4392,-2.406,-2.4219,-2.5662,-2.6136,-2.6745,-2.7961,-2.7695,-2.7093,-2.6299,-2.5486,-2.4856,-2.4532,-2.4321,-2.4247,-2.4339,-2.4266,-2.419,-2.419,-2.419,-2.419,-2.419,-2.419,-2.419,-2.419,-2.419,-2.419,-2.419,-2.419,-2.419,-2.419,-2.419,-2.419,-2.419,-2.419,-2.419,-2.419,-2.419,-2.419,-2.419,-2.419,-2.4094,-2.3937,-2.3795,-2.3414,-2.2947,-2.2832,-2.2571,-2.231,-2.231,-2.231,-2.231,-2.231,-2.1957,-2.1552,-2.1368,-2.0846,-2.0323,-2.0452,-2.0593,-2.0797,-2.1096,-2.144,-2.1431,-2.0483,-2.0071,-1.9698,-1.9038,-1.8982,-1.8968,-1.8818,-1.8841,-1.8657,-1.8068,-1.7751,-1.7417,-1.6967,-1.6911,-1.681,-1.6547,-1.6522,-1.6522,-1.6522,-1.5964,-1.572,-1.6008,-1.57,-1.5656,-1.6008,-1.5927,-1.5753,-1.537,-1.4752,-1.4469,-1.4661,-1.3866,-1.3623,-1.3848,-1.3652,-1.3555,-2.4907,-2.5042,-2.5075,-2.5447,-2.5524,-2.5524,-2.5486,0.0,0.0,0.0,0.0,0.0,-2.3797,-2.4123,-2.4625,-2.523,-2.6478,-2.7487,-2.7812,-2.719,-2.6395,-2.5576,-2.4928,-2.4543,-2.4556,-2.4392,-2.4357,-2.4545,-2.4393,-2.4266,-2.4247,-2.4247,-2.4228,-2.419,-2.419,-2.419,-2.419,-2.419,-2.419,-2.419,-2.419,-2.419,-2.419,-2.419,-2.419,-2.419,-2.419,-2.419,-2.419,-2.419,-2.419,-2.419,-2.419,-2.4016,-2.3753,-2.3392,-2.3069,-2.2738,-2.2415,-2.231,-2.231,-2.231,-2.231,-2.2282,-2.2209,-2.1928,-2.1538,-2.1118,-2.0728,-2.0505,-2.0714,-2.0895,-2.1156,-2.171,-2.1839,-2.165,-2.0896,-2.0314,-1.9849,-1.9703,-1.8809,-1.8416,-1.9441,-1.9089,-1.8674,-1.8821,-1.8796,-1.8459,-1.7626,-1.7501,-1.7325,-1.6823,-1.6773,-1.6773,-1.6773,-1.6296,-1.6207,-1.6729,-1.6436,-1.625,-1.638,-1.6226,-1.5841,-1.5278,-1.5029,-1.4692,-1.4238,-1.374,-1.3506,-1.3496,-1.3076,-1.2881,-2.4695,-2.5365,-2.5786,-2.5294,-2.5228,-2.5207,-2.4966,0.0,0.0,0.0,0.0,0.0,-2.4105,-2.4311,-2.4935,-2.658,-2.7344,-2.7794,-2.803,-2.6805,-2.589,-2.5911,-2.5223,-2.4799,-2.4911,-2.478,-2.4716,-2.4746,-2.4731,-2.4623,-2.4461,-2.4444,-2.4375,-2.4227,-2.419,-2.419,-2.419,-2.419,-2.419,-2.419,-2.419,-2.419,-2.419,-2.419,-2.419,-2.419,-2.419,-2.419,-2.419,-2.419,-2.419,-2.419,-2.419,-2.417,-2.4074,-2.3753,-2.3414,-2.3045,-2.248,-2.231,-2.231,-2.231,-2.231,-2.2225,-2.1823,-2.1658,-2.1538,-2.1118,-2.1075,-2.1162,-2.1214,-2.1796,-2.2398,-2.2503,-2.2539,-2.2218,-2.1083,-2.0384,-1.9819,-1.9241,-1.8958,-1.8819,-1.8843,-1.8462,-1.8151,-1.8056,-1.7784,-1.7702,-1.8044,-1.8078,-1.8041,-1.7953,-1.794,-1.794,-1.794,-1.7847,-1.7847,-1.794,-1.6065,-1.5197,-1.572,-1.5533,-1.5564,-1.5862,-1.4799,-1.4424,-1.4687,-1.3887,-1.3506,-1.3496,-1.3076,-1.2881,-2.4052,-2.4545,-2.4765,-2.4335,-2.496,-2.5536,-2.4942,-2.4673,0.0,0.0,0.0,0.0,-2.392,-2.4712,-2.5834,-2.7427,-2.7767,-2.7656,-2.706,-2.639,-2.5812,-2.5397,-2.5096,-2.4924,-2.4979,-2.4877,-2.4828,-2.4904,-2.4842,-2.476,-2.467,-2.4654,-2.4559,-2.4375,-2.4357,-2.4321,-2.419,-2.419,-2.419,-2.419,-2.419,-2.419,-2.419,-2.419,-2.419,-2.419,-2.419,-2.419,-2.419,-2.419,-2.419,-2.419,-2.419,-2.419,-2.4151,-2.361,-2.3129,-2.266,-2.2405,-2.231,-2.231,-2.231,-2.2135,-2.1899,-2.1658,-2.143,-2.1244,-2.1055,-2.1153,-2.1378,-2.1765,-2.2261,-2.2798,-2.3101,-2.2952,-2.2426,-2.1518,-2.0853,-2.0218,-1.9535,-1.9129,-1.8818,-1.8732,-1.8207,-1.7832,-1.7779,-1.7897,-1.807,-1.8043,-1.8387,-1.8417,-1.7827,-1.7765,-1.7765,-1.7765,-1.7765,-1.789,-1.8191,-1.7178,-1.6561,-1.6432,-1.6592,-1.6424,-1.5838,-1.5934,-1.5615,-1.4785,-1.4797,-1.4475,-1.3848,-1.3652,-1.3437,-2.2914,-2.3392,-2.3563,-2.3218,0.0,-2.5356,-2.4801,-2.4561,-2.4487,0.0,-2.4203,-2.3853,-2.3853,-2.5023,-2.6402,-2.768,-2.7643,-2.7119,-2.6201,-2.5967,-2.5659,-2.4931,-2.4981,-2.5077,-2.5077,-2.4987,-2.4962,-2.5065,-2.4987,-2.4915,-2.4855,-2.4842,-2.4756,-2.4594,-2.4559,-2.4495,-2.4339,-2.4284,-2.4247,-2.419,-2.419,-2.419,-2.419,-2.419,-2.419,-2.419,-2.419,-2.419,-2.419,-2.419,-2.419,-2.419,-2.419,-2.4094,-2.3896,-2.3392,-2.2824,-2.231,-2.231,-2.231,-2.231,-2.231,-2.1974,-2.1582,-2.1491,-2.1181,-2.0829,-2.0829,-2.0983,-2.1341,-2.2093,-2.2504,-2.2832,-2.3445,-2.3009,-2.2346,-2.1805,-2.0953,-2.0181,-1.9631,-1.9097,-1.8661,-1.8447,-1.8112,-1.7797,-1.7633,-1.8221,-1.8572,-1.8116,-1.8718,-1.8783,-1.7793,-1.7706,-1.7647,-1.7457,-1.7457,-1.7629,-1.8044,-1.8138,-1.7941,-1.7364,-1.7718,-1.7364,-1.6224,-1.7115,-1.6895,-1.5472,-1.5725,-1.5442,-1.4536,-1.4125,-1.3818,-2.1105,-2.2158,-2.2976,-2.2228,-2.2852,0.0,-2.423,-2.4318,0.0,-2.4853,-2.4594,-2.4261,-2.4261,-2.5048,-2.6077,-2.7102,-2.6629,-2.6163,-2.6275,-2.559,-2.5056,-2.4986,-2.5152,-2.5274,-2.5274,-2.5264,-2.5264,-2.5274,-2.5264,-2.5192,-2.4998,-2.4986,-2.4911,-2.479,-2.4775,-2.4775,-2.476,-2.4559,-2.4393,-2.419,-2.419,-2.419,-2.419,-2.419,-2.419,-2.419,-2.419,-2.419,-2.419,-2.419,-2.419,-2.419,-2.419,-2.3816,-2.3277,-2.3212,-2.2824,-2.231,-2.231,-2.231,-2.231,-2.231,-2.1974,-2.1521,-2.115,-2.0715,-2.0348,-2.0348,-2.0538,-2.0994,-2.2033,-2.2504,-2.2832,-2.3445,-2.2651,-2.1758,-2.1697,-2.0218,-1.8821,-1.8768,-1.8715,-1.8501,-1.7797,-1.8221,-1.8394,-1.7688,-1.8221,-1.8703,-1.8667,-1.931,-1.9441,-1.8665,-1.8601,-1.8337,-1.7628,-1.7585,-1.7596,-1.763,-1.7979,-1.8157,-1.8097,-1.798,-1.7828,-1.7725,-1.7645,-1.7556,-1.7412,-1.6363,-1.5869,-1.5708,-1.422,-1.3535,-1.9825,-2.0817,-2.1657,-2.1005,-2.1398,0.0,0.0,-2.3596,-2.3991,-2.4159,-2.4208,-2.4393,-2.4882,-2.539,-2.5867,-2.6365,-2.6294,-2.6085,-2.5726,-2.5384,-2.5192,-2.5192,-2.5253,-2.5303,-2.5303,-2.5303,-2.5303,-2.5303,-2.5303,-2.5264,-2.5203,-2.5192,-2.5107,-2.4943,-2.4911,-2.4877,-2.4804,-2.4591,-2.4461,-2.4393,-2.4266,-2.419,-2.419,-2.419,-2.419,-2.419,-2.419,-2.419,-2.419,-2.419,-2.419,-2.417,-2.3976,-2.3477,-2.2898,-2.2898,-2.2643,-2.231,-2.231,-2.231,-2.2237,-2.1974,-2.1568,-2.115,-2.0682,-2.0261,-1.9945,-1.9945,-1.9999,-2.0324,-2.1387,-2.1865,-2.2137,-2.2365,-2.1764,-2.1021,-2.0539,-1.9505,-1.8555,-1.8112,-1.8015,-1.7797,-1.7034,-1.7146,-1.7079,-1.6358,-1.7235,-1.8015,-1.8015,-1.9044,-1.9403,-1.8327,-1.781,-1.7387,-1.712,-1.7399,-1.7578,-1.7578,-1.7714,-1.7899,-1.803,-1.8259,-1.8211,-1.7891,-1.861,-1.8501,-1.7578,-1.717,-1.6698,-1.6255,-1.4944,-1.415,-1.8672,-1.9424,-2.0047,-1.9858,0.0,0.0,-2.1843,-2.285,-2.3661,-2.4041,-2.4252,-2.4511,-2.4942,-2.5244,-2.5461,-2.5608,-2.5836,-2.5811,-2.5351,-2.5303,-2.5303,-2.5303,-2.5322,-2.5322,-2.5303,-2.5322,-2.5322,-2.5303,-2.5303,-2.5303,-2.5303,-2.5303,-2.5243,-2.5099,-2.5099,-2.5041,-2.4968,-2.4731,-2.4591,-2.4591,-2.4339,-2.419,-2.419,-2.419,-2.419,-2.419,-2.419,-2.419,-2.419,-2.419,-2.4151,-2.4016,-2.3671,-2.3189,-2.2695,-2.2695,-2.2439,-2.2077,-2.2077,-2.202,-2.1857,-2.1507,-2.1102,-2.0715,-2.0416,-2.0035,-1.969,-1.969,-1.969,-1.9816,-2.0388,-2.085,-2.1156,-2.1184,-2.0743,-2.0107,-1.9584,-1.8754,-1.7928,-1.7379,-1.7246,-1.7034,-1.6255,-1.6379,-1.6265,-1.5526,-1.6472,-1.7357,-1.7578,-1.8661,-1.9004,-1.7903,-1.7129,-1.6602,-1.6374,-1.6674,-1.6912,-1.6912,-1.6912,-1.7301,-1.814,-1.8734,-1.8863,-1.85,-1.9342,-1.9307,-1.8286,-1.7841,-1.7357,-1.68,-1.5421,-1.4551,-1.7591,-1.7993,-1.8224,-1.8727,0.0,0.0,-2.0781,-2.212,-2.3544,-2.4741,-2.4898,-2.4671,-2.4278,-2.4528,-2.4804,-2.4804,-2.508,-2.5303,-2.5303,-2.5303,-2.5303,-2.5303,-2.537,-2.537,-2.5313,-2.537,-2.537,-2.5303,-2.5303,-2.5303,-2.5303,-2.5303,-2.5303,-2.5303,-2.5303,-2.5303,-2.5303,-2.4949,-2.4804,-2.479,-2.4393,-2.419,-2.419,-2.419,-2.419,-2.419,-2.419,-2.419,-2.419,-2.4208,-2.3996,-2.3671,-2.3305,-2.2996,-2.2695,-2.2695,-2.2214,-2.1582,-2.1582,-2.1337,-2.0991,-2.0991,-2.0682,-2.0314,-2.0314,-2.0035,-1.969,-1.969,-1.969,-1.9566,-1.9043,-1.9382,-1.9895,-2.0048,-1.9564,-1.9035,-1.8915,-1.7792,-1.6719,-1.6511,-1.6492,-1.6265,-1.5526,-1.6036,-1.6255,-1.5526,-1.6036,-1.6765,-1.7523,-1.8221,-1.8394,-1.7688,-1.6922,-1.6197,-1.5468,-1.541,-1.541,-1.541,-1.541,-1.6404,-1.8608,-1.9371,-1.9798,-1.9798,-1.9798,-1.9798,-1.9798,-1.834,-1.7578,-1.7567,-1.569,-1.4551,-1.6022,-1.6464,-1.6879,-1.7109,-1.7825,-1.8838,0.0,-2.1655,0.0,-2.4213,-2.4402,-2.437,-2.4412,-2.4512,-2.4666,-2.4898,-2.501,-2.5141,-2.5274,-2.5341,-2.537,-2.537,-2.5428,-2.5455,-2.5428,-2.5412,-2.539,-2.537,-2.5322,-2.5303,-2.5303,-2.5303,-2.5243,-2.5099,-2.5088,-2.5041,-2.4955,-2.4716,-2.4575,-2.4594,-2.4321,-2.419,-2.419,-2.419,-2.419,-2.419,-2.419,-2.419,-2.417,-2.3955,-2.3649,-2.33,-2.2686,-2.2207,-2.1874,-2.1592,-2.1383,-2.1181,-2.1181,-2.1086,-2.0959,-2.0616,-2.0416,-2.0246,-1.9965,-1.9782,-1.9603,-1.9244,-1.9132,-1.893,-1.8027,-1.761,-1.7529,-1.7961,-1.7586,-1.7049,-1.6814,-1.6448,-1.6071,-1.5773,-1.5748,-1.5642,-1.541,-1.5575,-1.5806,-1.6151,-1.6379,-1.6765,-1.7523,-1.7357,-1.709,-1.6877,-1.614,-1.5642,-1.541,-1.541,-1.541,-1.541,-1.5864,-1.6698,-1.7907,-1.8124,-1.8715,-1.9798,-1.9798,-1.9798,-1.9798,-1.834,-1.7578,-1.7567,-1.569,-1.4717,-1.532,-1.5556,-1.583,-1.6524,-1.722,-1.824,-2.0244,-2.1821,-2.3064,-2.3837,-2.4172,-2.4357,-2.4478,-2.4604,-2.4762,-2.4974,-2.5077,-2.5182,-2.5312,-2.537,-2.5408,-2.5445,-2.5504,-2.5528,-2.5498,-2.5482,-2.533,-2.4947,-2.5178,-2.5197,-2.4832,-2.5139,-2.5214,-2.501,-2.501,-2.4943,-2.4804,-2.4591,-2.4495,-2.4495,-2.4303,-2.419,-2.419,-2.419,-2.419,-2.419,-2.419,-2.4113,-2.3976,-2.3649,-2.3212,-2.2712,-2.2124,-2.1668,-2.1337,-2.1086,-2.0894,-2.0715,-2.0715,-2.0632,-2.0447,-2.0158,-2.0054,-2.0035,-1.9782,-1.969,-1.9603,-1.9043,-1.8893,-1.8612,-1.7272,-1.6506,-1.6139,-1.647,-1.6095,-1.5588,-1.5369,-1.5437,-1.5494,-1.5249,-1.5293,-1.541,-1.541,-1.5642,-1.5979,-1.6425,-1.6978,-1.7413,-1.7578,-1.7468,-1.7146,-1.6539,-1.6093,-1.57,-1.541,-1.541,-1.541,-1.541,-1.5806,-1.6528,-1.7578,-1.7454,-1.797,-1.9359,-1.9214,-1.9047,-1.8927,-1.8004,-1.7468,-1.7135,-1.5695,-1.4941,-1.5077,-1.5005,-1.5073,-1.6722,-1.7288,-1.8159,-2.0846,-2.2346,-2.3282,-2.3653,-2.4155,-2.4512,-2.4543,-2.4809,-2.503,-2.5022,-2.5192,-2.5341,-2.5409,-2.5409,-2.5434,-2.5496,-2.5573,-2.5596,-2.5517,-2.5496,-2.5135,-2.4262,-2.4879,-2.4947,-2.4139,-2.487,-2.5203,-2.4986,-2.4986,-2.4917,-2.4746,-2.4559,-2.4478,-2.4461,-2.4284,-2.417,-2.4151,-2.419,-2.419,-2.419,-2.419,-2.4016,-2.3671,-2.3346,-2.2762,-2.2068,-2.1685,-2.1306,-2.0926,-2.0894,-2.0616,-2.0246,-2.0246,-2.0,-1.969,-1.969,-1.969,-1.969,-1.969,-1.969,-1.953,-1.8968,-1.8779,-1.8366,-1.676,-1.5879,-1.544,-1.5443,-1.4971,-1.4507,-1.4356,-1.4686,-1.4952,-1.4808,-1.5127,-1.541,-1.541,-1.5979,-1.6436,-1.6492,-1.7743,-1.8436,-1.7677,-1.8167,-1.807,-1.6765,-1.6595,-1.6312,-1.5633,-1.5575,-1.5575,-1.5575,-1.5575,-1.6244,-1.7633,-1.7227,-1.7542,-1.8684,-1.8247,-1.7902,-1.7553,-1.7444,-1.706,-1.6357,-1.5638,-1.5088,-1.3918,-1.4334,-1.4925,-1.6268,-1.8057,-1.9832,-2.0863,-2.2201,-2.3333,-2.383,-2.4229,-2.4572,-2.4845,-2.4981,-2.5132,-2.528,-2.5389,-2.5466,-2.5486,-2.5524,-2.5563,-2.558,-2.5649,-2.567,-2.5659,-2.4999,-2.4491,-2.4282,-2.4348,-2.4303,-2.4111,-2.4851,-2.516,-2.4855,-2.4842,-2.4666,-2.4321,-2.4284,-2.4247,-2.4247,-2.4228,-2.4074,-2.3816,-2.4074,-2.419,-2.419,-2.419,-2.4016,-2.3671,-2.3346,-2.2762,-2.204,-2.1366,-2.0846,-2.0416,-2.0104,-1.9925,-1.9854,-1.9854,-1.9782,-1.969,-1.969,-1.969,-1.969,-1.969,-1.9406,-1.8968,-1.8419,-1.7987,-1.7368,-1.6089,-1.5309,-1.4767,-1.4318,-1.3742,-1.3369,-1.3651,-1.4037,-1.4419,-1.4753,-1.5127,-1.541,-1.541,-1.5526,-1.5806,-1.6436,-1.7743,-1.8436,-1.7677,-1.7743,-1.7743,-1.7413,-1.7357,-1.7302,-1.7135,-1.7135,-1.7135,-1.7135,-1.7135,-1.7512,-1.8447,-1.7429,-1.7485,-1.8933,-1.7969,-1.7456,-1.7364,-1.6262,-1.5637,-1.5437,-1.472,-1.4301,-1.3533,-1.4106,-1.5014,-1.6738,-1.8906,-2.0668,-2.0959,-2.2146,-2.3338,-2.3818,-2.4296,-2.4731,-2.5,-2.5156,-2.529,-2.5434,-2.5476,-2.5503,-2.5544,-2.5556,-2.5563,-2.5603,-2.5599,-2.5613,-2.5644,-2.4824,-2.4141,-2.375,-2.4024,-2.3993,-2.3563,-2.4678,-2.5187,-2.4818,-2.4804,-2.4607,-2.419,-2.419,-2.419,-2.419,-2.4054,-2.3795,-2.3477,-2.3649,-2.3816,-2.3937,-2.3795,-2.361,-2.3414,-2.2888,-2.2245,-2.1516,-2.0894,-2.0398,-2.0,-1.9782,-1.969,-1.969,-1.969,-1.969,-1.969,-1.969,-1.969,-1.969,-1.969,-1.9332,-1.8779,-1.8263,-1.7531,-1.6617,-1.5443,-1.4732,-1.4107,-1.3505,-1.3152,-1.2939,-1.3164,-1.3535,-1.3906,-1.4131,-1.4678,-1.5107,-1.5107,-1.5883,-1.6687,-1.7468,-1.8501,-1.898,-1.8232,-1.8124,-1.8015,-1.7633,-1.7578,-1.7578,-1.7578,-1.7578,-1.7578,-1.7578,-1.7578,-1.7786,-1.8167,-1.7269,-1.7167,-1.8029,-1.688,-1.6104,-1.576,-1.5391,-1.5029,-1.4684,-1.4281,-1.4077,-1.3621,-1.4586,-1.596,-1.8018,-1.9828,-2.1118,-2.1165,-2.2228,-2.332,-2.3784,-2.436,-2.487,-2.5101,-2.5312,-2.5386,-2.5303,-2.5418,-2.5477,-2.5388,-2.5442,-2.5528,-2.5581,-2.5541,-2.5537,-2.559,-2.4685,-2.3828,-2.3164,-2.3573,-2.3517,-2.2736,-2.4245,-2.4962,-2.4596,-2.4685,-2.4559,-2.419,-2.419,-2.419,-2.4208,-2.3795,-2.3437,-2.3117,-2.2979,-2.3189,-2.3588,-2.3323,-2.3165,-2.3069,-2.238,-2.1681,-2.0959,-2.0483,-2.0054,-1.969,-1.969,-1.9639,-1.9566,-1.9566,-1.9566,-1.9566,-1.9566,-1.9603,-1.969,-1.9603,-1.9207,-1.8612,-1.7973,-1.7053,-1.6003,-1.4824,-1.419,-1.3637,-1.3065,-1.2881,-1.2881,-1.2881,-1.3213,-1.3506,-1.3506,-1.4199,-1.4805,-1.4883,-1.6388,-1.7731,-1.8232,-1.915,-1.9527,-1.8768,-1.8821,-1.8661,-1.8058,-1.795,-1.795,-1.795,-1.795,-1.795,-1.795,-1.795,-1.7907,-1.7797,-1.7241,-1.6844,-1.6677,-1.5612,-1.4728,-1.4064,-1.4563,-1.4512,-1.3863,-1.3863,-1.3863,-1.4257,-1.66,-1.9207,-2.032,-2.1054,-2.1612,-2.1886,-2.2591,-2.3388,-2.408,-2.4543,-2.4926,-2.5286,-2.5429,-2.5266,-2.4562,-2.5051,-2.5265,-2.4573,-2.5063,-2.5496,-2.5505,-2.5515,-2.5532,-2.5578,-2.419,-2.3242,-2.3184,-2.2479,-2.1983,-2.1871,-2.3235,-2.3909,-2.3681,-2.4233,-2.4426,-2.419,-2.419,-2.419,-2.419,-2.3566,-2.3093,-2.2746,-2.2102,-2.2361,-2.3259,-2.3212,-2.3045,-2.2746,-2.2289,-2.1681,-2.0959,-2.0483,-2.0054,-1.969,-1.969,-1.9406,-1.9006,-1.9006,-1.9006,-1.9006,-1.9006,-1.9332,-1.9603,-1.9169,-1.8612,-1.7973,-1.6928,-1.6176,-1.5443,-1.4226,-1.3862,-1.3637,-1.3065,-1.2881,-1.2881,-1.2881,-1.3213,-1.3506,-1.3506,-1.4199,-1.4902,-1.5264,-1.6588,-1.7413,-1.6877,-1.8501,-1.9527,-1.8768,-1.9254,-1.9631,-1.9527,-1.9527,-1.9527,-1.9527,-1.9527,-1.9527,-1.9527,-1.9527,-1.9202,-1.8555,-1.7893,-1.6861,-1.5446,-1.4826,-1.4296,-1.3813,-1.3409,-1.3135,-1.3047,-1.3047,-1.3047,-1.6099,-1.8271,-2.0215,-2.1069,-2.1428,-2.1685,-2.2012,-2.2768,-2.3551,-2.4169,-2.4655,-2.5062,-2.5398,-2.5505,-2.5447,-2.5091,-2.5331,-2.5422,-2.5035,-2.5248,-2.5448,-2.5438,-2.5409,-2.5409,-2.5486,-2.4008,-2.3058,-2.3088,-2.226,-2.1727,-2.1649,-2.2614,-2.3277,-2.3493,-2.3225,-2.3446,-2.419,-2.3749,-2.3558,-2.3649,-2.3346,-2.294,-2.2463,-2.1866,-2.2074,-2.288,-2.2228,-2.2107,-2.2289,-2.1453,-2.0895,-2.055,-2.0124,-1.9839,-1.9639,-1.9369,-1.9095,-1.8855,-1.8574,-1.8458,-1.8458,-1.8458,-1.8612,-1.8765,-1.8535,-1.8066,-1.7544,-1.7037,-1.6046,-1.496,-1.4422,-1.3789,-1.3238,-1.2968,-1.2881,-1.2881,-1.2881,-1.3027,-1.3232,-1.3467,-1.4004,-1.4561,-1.499,-1.6146,-1.7034,-1.709,-1.8286,-1.9202,-1.9307,-1.9592,-1.9798,-1.9798,-1.9798,-1.9631,-1.9202,-1.9202,-1.9202,-1.9202,-1.8821,-1.8436,-1.8124,-1.7357,-1.6208,-1.4599,-1.4345,-1.3912,-1.3286,-1.3017,-1.2881,-1.2881,-1.2881,-1.2881,-1.788,-1.9521,-2.0731,-2.1864,-2.202,-2.2022,-2.2691,-2.323,-2.3779,-2.4331,-2.4804,-2.5174,-2.5446,-2.5531,-2.5476,-2.5274,-2.539,-2.5428,-2.5178,-2.5274,-2.537,-2.537,-2.5322,-2.5322,-2.539,-2.3929,-2.3007,-2.3018,-2.2035,-2.1389,-2.1244,-2.182,-2.2363,-2.2802,-2.2036,-2.2225,-2.3472,-2.3011,-2.2785,-2.2794,-2.2891,-2.2634,-2.2106,-2.1521,-2.1622,-2.2207,-2.1366,-2.1305,-2.1736,-2.0602,-2.0128,-2.0058,-1.9522,-1.9281,-1.9244,-1.8855,-1.8612,-1.8458,-1.8027,-1.7907,-1.7907,-1.7907,-1.7894,-1.788,-1.7894,-1.7395,-1.6815,-1.6701,-1.5608,-1.4422,-1.4294,-1.3563,-1.2881,-1.2881,-1.2881,-1.2881,-1.2881,-1.2881,-1.3037,-1.3564,-1.3863,-1.4307,-1.4853,-1.5982,-1.6922,-1.7246,-1.8274,-1.9097,-1.9475,-1.9683,-1.9798,-1.9798,-1.9798,-1.9579,-1.9044,-1.8821,-1.8715,-1.8715,-1.8004,-1.7523,-1.7302,-1.6821,-1.5782,-1.4316,-1.4136,-1.3721,-1.2881,-1.2881,-1.2881,-1.2881,-1.2881,-1.2881,-1.8907,-2.0156,-2.1421,-2.3384,-2.324,-2.3014,-2.4426,-2.4353,-2.4137,-2.4657,-2.4949,-2.5187,-2.5445,-2.5454,-2.5157,-2.4408,-2.4851,-2.5043,-2.4283,-2.4832,-2.5303,-2.5303,-2.5303,-2.5322,-2.539,-2.3948,-2.303,-2.3085,-2.1464,-2.042,-2.0293,-2.0557,-2.0769,-2.0937,-2.0691,-2.0873,-2.155,-2.1935,-2.1983,-2.1704,-2.2019,-2.1972,-2.1628,-2.0765,-2.0649,-2.1086,-2.1039,-2.1023,-2.0975,-2.0028,-1.9656,-1.9534,-1.8545,-1.8185,-1.8185,-1.8145,-1.7827,-1.7394,-1.7353,-1.7353,-1.7353,-1.7353,-1.7313,-1.7274,-1.7327,-1.6536,-1.5472,-1.4994,-1.4376,-1.3732,-1.3152,-1.2929,-1.2881,-1.2881,-1.2881,-1.2881,-1.2881,-1.2881,-1.3125,-1.3945,-1.4068,-1.435,-1.5234,-1.6564,-1.7302,-1.6652,-1.8394,-1.9475,-1.8821,-1.9371,-1.9798,-1.9798,-1.9798,-1.9798,-1.9747,-1.9097,-1.8715,-1.8715,-1.8004,-1.7302,-1.6606,-1.6549,-1.5936,-1.4821,-1.4346,-1.3721,-1.2881,-1.2881,-1.2881,-1.2881,-1.2881,-1.2881,-1.9265,-2.0344,-2.1401,-2.3076,-2.3082,-2.2982,-2.407,-2.4298,-2.4394,-2.4888,-2.5163,-2.5289,-2.5249,-2.5262,-2.5152,-2.4824,-2.4892,-2.4883,-2.4601,-2.4803,-2.5012,-2.5088,-2.5099,-2.496,-2.4601,-2.3621,-2.2774,-2.225,-2.1072,-2.0246,-1.9894,-1.9849,-1.9871,-1.9957,-1.9306,-1.9314,-2.0053,-2.0516,-2.069,-2.0565,-2.0482,-2.0257,-1.991,-1.9342,-1.9013,-1.8886,-1.8967,-1.9592,-2.0483,-1.9528,-1.9126,-1.9089,-1.8366,-1.8106,-1.8066,-1.7706,-1.7463,-1.7229,-1.6909,-1.6795,-1.671,-1.633,-1.6176,-1.612,-1.574,-1.5342,-1.4937,-1.4744,-1.4283,-1.3732,-1.3552,-1.319,-1.2881,-1.2881,-1.2881,-1.2881,-1.2881,-1.2881,-1.3047,-1.3623,-1.3902,-1.4478,-1.5542,-1.6385,-1.7146,-1.7797,-1.8608,-1.915,-1.9371,-1.9643,-1.9798,-1.9798,-1.9798,-1.9592,-1.915,-1.8447,-1.8004,-1.8004,-1.6856,-1.6301,-1.6482,-1.6036,-1.5491,-1.4795,-1.391,-1.3417,-1.3281,-1.3018,-1.2881,-1.2881,-1.2881,-1.2881,-1.9381,-2.0409,-2.1354,-2.2876,-2.3047,-2.3206,-2.4547,-2.469,-2.4727,-2.5403,-2.5407,-2.5266,-2.5112,-2.5024,-2.4968,-2.4996,-2.4903,-2.4794,-2.4808,-2.4804,-2.4828,-2.4911,-2.4974,-2.4755,-2.4094,-2.3403,-2.2616,-2.1753,-2.0878,-2.0146,-1.9655,-1.9393,-1.9061,-1.8612,-1.8082,-1.7951,-1.8283,-1.8958,-1.9295,-1.9286,-1.9186,-1.9014,-1.8792,-1.8207,-1.7783,-1.7495,-1.7255,-1.7842,-1.8927,-1.8303,-1.7932,-1.7706,-1.7192,-1.6957,-1.6915,-1.6562,-1.6434,-1.6403,-1.6269,-1.6064,-1.5876,-1.5676,-1.532,-1.496,-1.4744,-1.4433,-1.4154,-1.434,-1.3967,-1.3505,-1.3505,-1.32,-1.2881,-1.2881,-1.2881,-1.292,-1.3066,-1.2978,-1.3047,-1.3613,-1.3945,-1.4468,-1.5532,-1.6385,-1.7191,-1.8178,-1.8768,-1.9254,-1.9747,-1.9798,-1.9798,-1.9798,-1.9579,-1.9254,-1.8715,-1.7797,-1.7246,-1.7246,-1.6083,-1.5642,-1.6093,-1.5391,-1.4858,-1.4592,-1.3438,-1.2922,-1.2952,-1.2466,-1.2206,-1.2206,-1.2206,-1.2304,0.0,0.0,0.0,-2.287,-2.3206,-2.3749,-2.5947,-2.5578,-2.5091,-2.6155,-2.5703,-2.5118,-2.5099,-2.4772,-2.4543,-2.4746,-2.4775,-2.4756,-2.4741,-2.4756,-2.4775,-2.4756,-2.4898,-2.4676,-2.3923,-2.3265,-2.2557,-2.1736,-2.0803,-2.0058,-1.9516,-1.913,-1.8268,-1.6825,-1.7036,-1.6896,-1.6301,-1.7309,-1.7834,-1.785,-1.8152,-1.8315,-1.8269,-1.7382,-1.6997,-1.6915,-1.6009,-1.5894,-1.6271,-1.6325,-1.5997,-1.546,-1.4903,-1.4698,-1.4698,-1.4698,-1.4698,-1.4789,-1.5365,-1.5186,-1.4789,-1.5365,-1.4767,-1.3909,-1.4468,-1.3836,-1.3017,-1.36,-1.3324,-1.2881,-1.2881,-1.2881,-1.2881,-1.2881,-1.2881,-1.2998,-1.3398,-1.3174,-1.3135,-1.3984,-1.4087,-1.4404,-1.5264,-1.6631,-1.7578,-1.7633,-1.8874,-1.9747,-1.9747,-1.9747,-1.9747,-1.9747,-1.9097,-1.8661,-1.8661,-1.7357,-1.6492,-1.6492,-1.5806,-1.541,-1.541,-1.4619,-1.4186,-1.4186,-1.2982,-1.22,-1.1878,-1.1176,-1.0821,-1.0813,-1.0813,-1.1166,-1.8844,0.0,0.0,0.0,0.0,0.0,-2.4523,-2.4731,-2.4807,-2.5582,-2.5566,-2.5303,-2.5003,-2.4644,-2.4278,-2.4043,-2.4003,-2.3926,-2.3687,-2.3848,-2.3967,-2.3857,-2.4444,-2.4283,-2.2798,-2.2814,-2.2338,-2.0944,-2.024,-1.9662,-1.9231,-1.8083,-1.7116,-1.6448,-1.627,-1.6215,-1.6301,-1.6348,-1.6496,-1.6729,-1.6247,-1.6023,-1.5978,-1.5105,-1.452,-1.4196,-1.3972,-1.3574,-1.3106,-1.4618,-1.5331,-1.546,-1.4903,-1.4698,-1.4698,-1.4698,-1.4698,-1.4698,-1.488,-1.4835,-1.4663,-1.4365,-1.4086,-1.3732,-1.3467,-1.3152,-1.292,-1.3104,-1.3017,-1.2881,-1.2881,-1.2881,-1.2881,-1.2881,-1.2881,-1.291,-1.3027,-1.2959,-1.3223,-1.4385,-1.4346,-1.4567,-1.594,-1.6539,-1.7146,-1.8232,-1.8715,-1.898,-1.898,-1.898,-1.8821,-1.8286,-1.8015,-1.7895,-1.7895,-1.7034,-1.6492,-1.6492,-1.5806,-1.541,-1.541,-1.4417,-1.3905,-1.3905,-1.1993,-1.0973,-1.0872,-1.1043,-1.1025,-1.0813,-1.0813,-1.0914,-1.8722,-1.9713,-2.0765,-2.1472,0.0,0.0,-2.4182,-2.4489,-2.4734,-2.5686,-2.5592,-2.5264,-2.5045,-2.4647,-2.4227,-2.3707,-2.3552,-2.3414,-2.323,-2.3218,-2.3275,-2.3352,-2.3934,-2.3866,-2.2721,-2.3091,-2.2792,-2.1324,-2.0577,-1.9722,-1.8661,-1.7325,-1.6501,-1.6301,-1.5983,-1.587,-1.608,-1.5898,-1.5812,-1.5796,-1.533,-1.4892,-1.4523,-1.3841,-1.3137,-1.2459,-1.209,-1.1733,-1.1409,-1.2184,-1.2989,-1.3721,-1.3871,-1.3768,-1.3548,-1.3826,-1.3931,-1.3978,-1.4247,-1.4154,-1.3931,-1.3826,-1.3637,-1.3372,-1.3017,-1.2881,-1.2881,-1.2881,-1.2881,-1.2881,-1.2881,-1.2881,-1.2881,-1.2881,-1.2881,-1.293,-1.3105,-1.3145,-1.3359,-1.4102,-1.4189,-1.4454,-1.5583,-1.6198,-1.6821,-1.7633,-1.8058,-1.8221,-1.8221,-1.8221,-1.8058,-1.7633,-1.7302,-1.7135,-1.7135,-1.6482,-1.5955,-1.5772,-1.5375,-1.4954,-1.4478,-1.3663,-1.3032,-1.2575,-1.1122,-1.0199,-0.9933,-1.0172,-1.0158,-0.9961,-0.9614,-0.982,-1.8755,-1.9965,0.0,-2.1023,-2.1915,0.0,-2.4253,-2.441,-2.4613,-2.5766,-2.5449,-2.4975,-2.4974,-2.4712,-2.4245,-2.349,-2.3249,-2.3117,-2.3093,-2.2778,-2.2685,-2.3045,-2.341,-2.3472,-2.3154,-2.3688,-2.3548,-2.2294,-2.1324,-1.9926,-1.7948,-1.6935,-1.6351,-1.6246,-1.5955,-1.5799,-1.5799,-1.5799,-1.5551,-1.5104,-1.5043,-1.4554,-1.3697,-1.3196,-1.2389,-1.1402,-1.052,-1.0321,-1.0596,-0.9691,-1.0036,-1.132,-1.234,-1.2355,-1.1873,-1.2618,-1.2881,-1.2968,-1.3505,-1.3324,-1.2968,-1.3552,-1.3334,-1.2881,-1.2881,-1.2881,-1.2881,-1.2881,-1.2881,-1.2881,-1.2881,-1.2881,-1.2881,-1.2881,-1.2881,-1.2988,-1.3359,-1.3437,-1.3447,-1.3496,-1.3887,-1.4346,-1.4785,-1.5725,-1.6436,-1.6492,-1.7047,-1.7401,-1.7457,-1.7423,-1.7401,-1.7346,-1.6754,-1.6379,-1.6379,-1.5748,-1.5254,-1.4873,-1.4814,-1.4323,-1.3332,-1.2672,-1.1856,-1.0966,-1.031,-0.9713,-0.9137,-0.8931,-0.8804,-0.8804,-0.8059,-0.8416,-1.8869,-2.0113,-2.1337,-2.1086,-2.2344,0.0,-2.291,-2.3242,-2.3635,-2.3466,-2.3793,-2.4131,-2.4128,-2.4258,-2.3966,-2.2805,-2.2734,-2.2712,-2.2508,-2.2313,-2.2279,-2.2453,-2.3151,-2.34,-2.285,-2.3443,-2.3398,-2.2282,-2.0947,-1.9373,-1.7518,-1.7218,-1.6732,-1.5928,-1.5827,-1.5799,-1.5799,-1.5799,-1.5551,-1.5104,-1.4783,-1.4141,-1.3196,-1.2401,-1.1498,-1.0454,-0.9884,-0.9435,-0.9118,-0.9258,-1.0036,-1.1237,-1.1564,-1.1737,-1.1873,-1.2618,-1.2881,-1.2929,-1.3017,-1.3017,-1.2929,-1.3065,-1.3027,-1.2881,-1.2881,-1.2881,-1.2881,-1.2881,-1.2881,-1.2881,-1.2881,-1.2881,-1.2881,-1.2881,-1.2881,-1.29,-1.2988,-1.2998,-1.3105,-1.3437,-1.4131,-1.4795,-1.5215,-1.5467,-1.5816,-1.6436,-1.6324,-1.6373,-1.6655,-1.6424,-1.6108,-1.5871,-1.569,-1.5633,-1.5633,-1.5468,-1.5381,-1.5293,-1.4971,-1.469,-1.4492,-1.2687,-1.1602,-1.1411,-0.9839,-0.9005,-0.8891,-0.8838,-0.8804,-0.8804,-0.8633,-0.8738,-1.8425,-1.9509,-2.065,-2.1067,-2.1956,0.0,0.0,-2.3006,-2.3268,-2.3378,-2.3512,-2.3669,-2.3859,-2.3629,-2.3251,-2.2774,-2.2684,-2.2716,-2.2729,-2.2378,-2.2197,-2.2473,-2.3155,-2.3529,-2.3363,-2.3993,-2.3732,-2.2111,-2.05,-1.8952,-1.7486,-1.6923,-1.6426,-1.5902,-1.5846,-1.5799,-1.5799,-1.5799,-1.5448,-1.4783,-1.4365,-1.3557,-1.2437,-1.1704,-1.0695,-0.9451,-0.9191,-0.8797,-0.8291,-0.8196,-0.8876,-1.0029,-1.1015,-1.1375,-1.1416,-1.251,-1.2881,-1.2881,-1.2881,-1.2881,-1.2881,-1.2881,-1.2881,-1.2881,-1.2881,-1.2881,-1.2881,-1.2881,-1.2881,-1.2881,-1.2881,-1.2881,-1.2881,-1.2881,-1.2881,-1.2881,-1.2881,-1.3047,-1.332,-1.374,-1.4346,-1.4731,-1.4534,-1.4974,-1.54,-1.5381,-1.5186,-1.5241,-1.5891,-1.5414,-1.5137,-1.5381,-1.541,-1.541,-1.541,-1.541,-1.5139,-1.4524,-1.4185,-1.3525,-1.2593,-1.151,-1.0732,-1.0354,-0.9312,-0.8804,-0.8804,-0.8427,-0.8427,-0.8752,-0.7658,-0.7551,-1.8094,-1.9011,-2.005,-2.1011,-2.1664,-2.2165,0.0,0.0,0.0,-2.3511,-2.3431,-2.3392,-2.3827,-2.3271,-2.2795,-2.2882,-2.2695,-2.264,-2.2954,-2.259,-2.2424,-2.2669,-2.3271,-2.375,-2.3988,-2.4498,-2.3888,-2.1661,-2.0192,-1.8751,-1.7325,-1.6594,-1.6151,-1.6006,-1.5903,-1.5772,-1.5683,-1.5668,-1.5225,-1.4374,-1.39,-1.3004,-1.1774,-1.1121,-0.9992,-0.8537,-0.8553,-0.8193,-0.7538,-0.7154,-0.7598,-0.8636,-1.0271,-1.0774,-1.0771,-1.2147,-1.2666,-1.2715,-1.2832,-1.2881,-1.2881,-1.2881,-1.2881,-1.2881,-1.2881,-1.2881,-1.2881,-1.2881,-1.2881,-1.2881,-1.2881,-1.2881,-1.2881,-1.2881,-1.2881,-1.2881,-1.2881,-1.3244,-1.3649,-1.3936,-1.4395,-1.4544,-1.4052,-1.4657,-1.4932,-1.4332,-1.4031,-1.4123,-1.4855,-1.4319,-1.4123,-1.4864,-1.4932,-1.4932,-1.4932,-1.4932,-1.4499,-1.3531,-1.3126,-1.2163,-1.0685,-1.0331,-0.9847,-0.9158,-0.8925,-0.8752,-0.8593,-0.7996,-0.7996,-0.8533,-0.6627,-0.6362,-1.8691,-1.9685,-2.0664,-2.0968,-2.2346,-2.3316,-2.1994,0.0,-2.2562,-2.1934,0.0,-2.3275,-2.3803,0.0,0.0,-2.2613,-2.2212,-2.2055,-2.2216,-2.2726,-2.2979,-2.2721,-2.3383,-2.3909,-2.3989,-2.4072,-2.3082,-2.0577,-2.0193,-1.9011,-1.6499,-1.6763,-1.6697,-1.6002,-1.5998,-1.5727,-1.5165,-1.5165,-1.4783,-1.3967,-1.3424,-1.2706,-1.1774,-1.0761,-0.9406,-0.7919,-0.7972,-0.7405,-0.6435,-0.6852,-0.7258,-0.7722,-0.876,-0.9504,-1.0064,-1.1416,-1.1913,-1.203,-1.2666,-1.2881,-1.2881,-1.2881,-1.2881,-1.2881,-1.2881,-1.2881,-1.2881,-1.2881,-1.2881,-1.2881,-1.2881,-1.2881,-1.2881,-1.2881,-1.2881,-1.2881,-1.2881,-1.3375,-1.371,-1.3588,-1.4043,-1.4593,-1.5137,-1.4718,-1.4332,-1.4204,-1.327,-1.2772,-1.321,-1.2906,-1.278,-1.321,-1.3243,-1.3243,-1.3243,-1.3243,-1.3235,-1.3072,-1.2397,-1.1933,-1.1726,-1.0539,-0.9516,-0.8858,-0.8824,-0.848,-0.783,-0.7723,-0.7723,-0.7777,-0.6912,-0.6583,-1.8214,-1.8588,-1.9059,-2.0476,-2.1113,-2.141,-2.1375,-2.1735,-2.2,-2.1875,0.0,0.0,0.0,0.0,0.0,0.0,-2.2507,-2.2267,-2.2829,-2.2852,-2.3016,-2.3619,-2.421,-2.4599,-2.4578,-2.4017,-2.3006,-2.1484,-1.977,-1.8219,-1.6837,-1.6002,-1.5461,-1.5133,-1.507,-1.4958,-1.4713,-1.4451,-1.4049,-1.3437,-1.2646,-1.1793,-1.0836,-0.9759,-0.8552,-0.7307,-0.6981,-0.6622,-0.6221,-0.6435,-0.6898,-0.752,-0.7913,-0.8947,-1.0269,-1.1239,-1.1935,-1.2501,-1.2774,-1.2881,-1.2881,-1.2881,-1.2881,-1.2881,-1.2881,-1.2881,-1.2881,-1.2881,-1.2881,-1.2881,-1.2881,-1.2881,-1.2881,-1.2881,-1.2881,-1.3027,-1.3324,-1.3324,-1.3407,-1.3941,-1.3922,-1.3928,-1.4015,-1.381,-1.3486,-1.3193,-1.2207,-1.1821,-1.2654,-1.2201,-1.1992,-1.2687,-1.2885,-1.3009,-1.3009,-1.2879,-1.2576,-1.2022,-1.0982,-1.0262,-1.0124,-0.9556,-0.9113,-0.8811,-0.8374,-0.7996,-0.7723,-0.6848,-0.6411,-0.6411,-0.6091,-0.5982,-1.7354,-1.7368,-1.7556,-1.9662,-1.979,-1.9639,-2.0747,-2.1098,-2.1364,-2.1852,-2.2101,0.0,0.0,0.0,-2.2659,-2.33,0.0,-2.231,-2.3398,-2.2733,-2.2613,-2.3868,-2.4607,-2.5029,-2.5038,-2.4132,-2.298,-2.1615,-1.9345,-1.7555,-1.6583,-1.5246,-1.4525,-1.4491,-1.4358,-1.4181,-1.4029,-1.3634,-1.3196,-1.2728,-1.1757,-1.0918,-1.0138,-0.8793,-0.7658,-0.6723,-0.6132,-0.5802,-0.5739,-0.605,-0.6458,-0.6938,-0.7253,-0.8272,-0.9761,-1.0771,-1.1579,-1.2261,-1.2735,-1.2881,-1.2881,-1.2881,-1.2881,-1.2881,-1.2881,-1.2881,-1.2881,-1.2881,-1.2881,-1.2881,-1.2881,-1.2881,-1.2881,-1.2881,-1.2881,-1.3017,-1.3467,-1.3334,-1.3329,-1.3877,-1.3601,-1.3195,-1.2812,-1.277,-1.2569,-1.2052,-1.118,-1.089,-1.1713,-1.1269,-1.1093,-1.1744,-1.1972,-1.2114,-1.2114,-1.1953,-1.153,-1.0792,-0.9742,-0.9057,-0.8818,-0.8586,-0.848,-0.848,-0.7777,-0.7289,-0.7122,-0.6032,-0.5433,-0.5218,-0.5218,-0.5218,-1.6176,-1.6421,-1.6831,-1.8464,-1.8844,-1.9075,-2.0016,-2.0255,-2.049,-2.1346,-2.1976,-2.2506,-2.2923,-2.3015,-2.3108,-2.3199,-2.2103,0.0,0.0,-2.2273,-2.1694,-2.2894,-2.4082,-2.4898,-2.5072,-2.4419,-2.2799,-1.9981,-1.897,-1.7395,-1.4903,-1.4732,-1.4608,-1.4502,-1.411,-1.3631,-1.3061,-1.2639,-1.2224,-1.1847,-1.0761,-1.0215,-1.0128,-0.8,-0.6723,-0.612,-0.5551,-0.5,-0.4565,-0.5701,-0.5879,-0.5486,-0.6562,-0.7287,-0.7919,-0.9778,-1.0437,-1.0697,-1.2329,-1.2881,-1.2881,-1.2881,-1.2881,-1.2881,-1.2881,-1.2881,-1.2881,-1.2881,-1.2881,-1.2881,-1.2881,-1.2881,-1.2881,-1.2881,-1.2881,-1.2929,-1.2929,-1.3372,-1.36,-1.3085,-1.289,-1.2609,-1.194,-1.1903,-1.1735,-1.1027,-1.0243,-0.9744,-0.9809,-0.9751,-0.9758,-0.9809,-0.9822,-0.9822,-0.9822,-0.9816,-0.963,-0.9285,-0.9252,-0.9057,-0.8818,-0.8103,-0.7723,-0.7723,-0.702,-0.6308,-0.5592,-0.5538,-0.5164,-0.4515,-0.4515,-0.4515,-1.5616,-1.5552,-1.5672,-1.7316,-1.7491,-1.7491,-1.8565,-1.9038,-1.9459,-2.0104,-2.0985,-2.1832,-2.2306,-2.2811,-2.3205,-2.3361,-2.2517,-2.1933,0.0,-2.1419,-2.1045,-2.1483,-2.3121,-2.4231,-2.4296,-2.3113,-2.1711,-2.0206,-1.7881,-1.6143,-1.5262,-1.3648,-1.2964,-1.3408,-1.2619,-1.2299,-1.2533,-1.1828,-1.1212,-1.0723,-1.004,-0.9156,-0.8041,-0.6919,-0.5871,-0.4938,-0.4395,-0.4268,-0.443,-0.4826,-0.513,-0.5346,-0.5733,-0.6214,-0.6855,-0.855,-0.9964,-1.1253,-1.2464,-1.2881,-1.2881,-1.2881,-1.2881,-1.2881,-1.2881,-1.2881,-1.2881,-1.2881,-1.2881,-1.2881,-1.2881,-1.2881,-1.2881,-1.2881,-1.2881,-1.3017,-1.342,-1.3334,-1.3132,-1.2861,-1.2453,-1.1805,-1.0661,-1.0509,-1.0532,-1.0489,-0.9707,-0.9007,-0.8739,-0.9104,-0.9217,-0.8758,-0.933,-0.9686,-0.9686,-0.9506,-0.9265,-0.8971,-0.8958,-0.8911,-0.8811,-0.854,-0.8427,-0.8427,-0.7723,-0.6961,-0.6204,-0.576,-0.5164,-0.4519,-0.4519,-0.4519,-1.4291,-1.4182,-1.4248,-1.5517,-1.5514,-1.5508,-1.666,-1.725,-1.7795,-1.8574,-1.9894,-2.1017,-2.1374,-2.2293,-2.3058,-2.3199,-2.2607,-2.1816,0.0,-2.0816,-2.076,-2.057,-2.2238,-2.3389,-2.3394,-2.2159,-2.0984,-2.0067,-1.7338,-1.5445,-1.4914,-1.2926,-1.1931,-1.2157,-1.1426,-1.1242,-1.1697,-1.0875,-1.0283,-0.9953,-0.9044,-0.8064,-0.6945,-0.5956,-0.5105,-0.4391,-0.3836,-0.3796,-0.4136,-0.4303,-0.4522,-0.4748,-0.5135,-0.5394,-0.5766,-0.7554,-0.9378,-1.1196,-1.2155,-1.2501,-1.2559,-1.2822,-1.2881,-1.2881,-1.2881,-1.2881,-1.2881,-1.2881,-1.2881,-1.2881,-1.2881,-1.2881,-1.2822,-1.2559,-1.2501,-1.254,-1.2696,-1.2423,-1.2138,-1.2092,-1.1557,-1.0813,-0.9969,-0.9399,-0.9148,-0.9349,-0.8798,-0.8224,-0.7677,-0.8245,-0.8526,-0.8086,-0.8863,-0.9372,-0.9372,-0.9198,-0.9005,-0.8818,-0.8804,-0.8804,-0.8804,-0.8321,-0.799,-0.799,-0.7069,-0.6312,-0.5828,-0.5382,-0.4948,-0.4519,-0.4181,-0.4236]}]]